<?xml version="1.0" encoding="UTF-8" standalone="no" ?>
<gpx xmlns="http://www.topografix.com/GPX/1/1" xmlns:xsi="http://www.w3.org/2001/XMLSchema-instance" xsi:schemaLocation="http://www.topografix.com/GPX/1/1 http://www.topografix.com/GPX/1/1/gpx.xsd" version="1.1" creator="VisuGPX - https://www.visugpx.com">
  <metadata>
    <name>Cazilhac - 70 km</name>
  </metadata>
  <trk>
    <name><![CDATA[La Birado 2008- VTT Cazilhac - 70 km - 2495 - UtagawaVTT.com]]></name>
    <extensions>
      <line xmlns="http://www.topografix.com/GPX/gpx_style/0/2">
        <color>0000FF</color>
        <width>4</width>
      </line>
    </extensions>
    <trkseg>
      <trkpt lat="43.18335" lon="2.36178">
        <ele>133.044067</ele>
        <time>2008-09-07T06:09:55Z</time>
      </trkpt>
      <trkpt lat="43.18333" lon="2.36185">
        <ele>133.224869</ele>
        <time>2008-09-07T06:09:58Z</time>
      </trkpt>
      <trkpt lat="43.18332" lon="2.36194">
        <ele>133.352127</ele>
        <time>2008-09-07T06:10:01Z</time>
      </trkpt>
      <trkpt lat="43.1835" lon="2.36216">
        <ele>132.896103</ele>
        <time>2008-09-07T06:10:12Z</time>
      </trkpt>
      <trkpt lat="43.18369" lon="2.36234">
        <ele>132.852798</ele>
        <time>2008-09-07T06:10:21Z</time>
      </trkpt>
      <trkpt lat="43.18367" lon="2.36261">
        <ele>133.356247</ele>
        <time>2008-09-07T06:10:32Z</time>
      </trkpt>
      <trkpt lat="43.18369" lon="2.36287">
        <ele>133.727493</ele>
        <time>2008-09-07T06:10:40Z</time>
      </trkpt>
      <trkpt lat="43.18352" lon="2.36334">
        <ele>134.285004</ele>
        <time>2008-09-07T06:10:53Z</time>
      </trkpt>
      <trkpt lat="43.18321" lon="2.36397">
        <ele>134.988556</ele>
        <time>2008-09-07T06:11:09Z</time>
      </trkpt>
      <trkpt lat="43.18299" lon="2.36447">
        <ele>136.188797</ele>
        <time>2008-09-07T06:11:22Z</time>
      </trkpt>
      <trkpt lat="43.18278" lon="2.365">
        <ele>136.934998</ele>
        <time>2008-09-07T06:11:35Z</time>
      </trkpt>
      <trkpt lat="43.18257" lon="2.36546">
        <ele>137.397507</ele>
        <time>2008-09-07T06:11:47Z</time>
      </trkpt>
      <trkpt lat="43.18269" lon="2.36585">
        <ele>137.139999</ele>
        <time>2008-09-07T06:11:56Z</time>
      </trkpt>
      <trkpt lat="43.18254" lon="2.36674">
        <ele>138</ele>
        <time>2008-09-07T06:12:13Z</time>
      </trkpt>
      <trkpt lat="43.18274" lon="2.36747">
        <ele>138</ele>
        <time>2008-09-07T06:12:28Z</time>
      </trkpt>
      <trkpt lat="43.18303" lon="2.36826">
        <ele>138</ele>
        <time>2008-09-07T06:12:45Z</time>
      </trkpt>
      <trkpt lat="43.18338" lon="2.3691">
        <ele>139.788605</ele>
        <time>2008-09-07T06:13:04Z</time>
      </trkpt>
      <trkpt lat="43.18355" lon="2.36939">
        <ele>141.119675</ele>
        <time>2008-09-07T06:13:13Z</time>
      </trkpt>
      <trkpt lat="43.18379" lon="2.36923">
        <ele>141.580383</ele>
        <time>2008-09-07T06:13:22Z</time>
      </trkpt>
      <trkpt lat="43.18408" lon="2.36948">
        <ele>143.119125</ele>
        <time>2008-09-07T06:13:33Z</time>
      </trkpt>
      <trkpt lat="43.18441" lon="2.36944">
        <ele>144.100372</ele>
        <time>2008-09-07T06:13:45Z</time>
      </trkpt>
      <trkpt lat="43.18485" lon="2.36929">
        <ele>145.647507</ele>
        <time>2008-09-07T06:14:00Z</time>
      </trkpt>
      <trkpt lat="43.18529" lon="2.36939">
        <ele>147.759995</ele>
        <time>2008-09-07T06:14:15Z</time>
      </trkpt>
      <trkpt lat="43.18563" lon="2.36962">
        <ele>150.065002</ele>
        <time>2008-09-07T06:14:28Z</time>
      </trkpt>
      <trkpt lat="43.18572" lon="2.37014">
        <ele>151.520004</ele>
        <time>2008-09-07T06:14:42Z</time>
      </trkpt>
      <trkpt lat="43.18606" lon="2.37078">
        <ele>154.710983</ele>
        <time>2008-09-07T06:15:02Z</time>
      </trkpt>
      <trkpt lat="43.18631" lon="2.37136">
        <ele>158.085007</ele>
        <time>2008-09-07T06:15:21Z</time>
      </trkpt>
      <trkpt lat="43.18656" lon="2.37193">
        <ele>162.139999</ele>
        <time>2008-09-07T06:15:42Z</time>
      </trkpt>
      <trkpt lat="43.18622" lon="2.37227">
        <ele>160.099716</ele>
        <time>2008-09-07T06:15:53Z</time>
      </trkpt>
      <trkpt lat="43.18586" lon="2.37267">
        <ele>157.552505</ele>
        <time>2008-09-07T06:16:01Z</time>
      </trkpt>
      <trkpt lat="43.18518" lon="2.37328">
        <ele>154.842499</ele>
        <time>2008-09-07T06:16:14Z</time>
      </trkpt>
      <trkpt lat="43.18438" lon="2.37369">
        <ele>150.153656</ele>
        <time>2008-09-07T06:16:26Z</time>
      </trkpt>
      <trkpt lat="43.18425" lon="2.37398">
        <ele>149.976135</ele>
        <time>2008-09-07T06:16:34Z</time>
      </trkpt>
      <trkpt lat="43.18403" lon="2.37397">
        <ele>150.193359</ele>
        <time>2008-09-07T06:16:44Z</time>
      </trkpt>
      <trkpt lat="43.18379" lon="2.37422">
        <ele>152.301254</ele>
        <time>2008-09-07T06:16:56Z</time>
      </trkpt>
      <trkpt lat="43.1838" lon="2.37461">
        <ele>154.177505</ele>
        <time>2008-09-07T06:17:03Z</time>
      </trkpt>
      <trkpt lat="43.1839" lon="2.37503">
        <ele>157.499908</ele>
        <time>2008-09-07T06:17:13Z</time>
      </trkpt>
      <trkpt lat="43.18396" lon="2.37518">
        <ele>159.013748</ele>
        <time>2008-09-07T06:17:21Z</time>
      </trkpt>
      <trkpt lat="43.18415" lon="2.37519">
        <ele>159.170319</ele>
        <time>2008-09-07T06:17:30Z</time>
      </trkpt>
      <trkpt lat="43.18431" lon="2.37525">
        <ele>159.539993</ele>
        <time>2008-09-07T06:17:41Z</time>
      </trkpt>
      <trkpt lat="43.1843" lon="2.37558">
        <ele>164.919998</ele>
        <time>2008-09-07T06:17:51Z</time>
      </trkpt>
      <trkpt lat="43.18438" lon="2.37574">
        <ele>167.309998</ele>
        <time>2008-09-07T06:17:58Z</time>
      </trkpt>
      <trkpt lat="43.18452" lon="2.3759">
        <ele>169.502502</ele>
        <time>2008-09-07T06:18:04Z</time>
      </trkpt>
      <trkpt lat="43.18462" lon="2.37593">
        <ele>168.83049</ele>
        <time>2008-09-07T06:18:11Z</time>
      </trkpt>
      <trkpt lat="43.18477" lon="2.37581">
        <ele>165.356506</ele>
        <time>2008-09-07T06:18:17Z</time>
      </trkpt>
      <trkpt lat="43.18507" lon="2.37562">
        <ele>160.22583</ele>
        <time>2008-09-07T06:18:25Z</time>
      </trkpt>
      <trkpt lat="43.18525" lon="2.37543">
        <ele>158.474915</ele>
        <time>2008-09-07T06:18:29Z</time>
      </trkpt>
      <trkpt lat="43.1854" lon="2.37552">
        <ele>158.551651</ele>
        <time>2008-09-07T06:18:33Z</time>
      </trkpt>
      <trkpt lat="43.18579" lon="2.37609">
        <ele>159.964355</ele>
        <time>2008-09-07T06:18:45Z</time>
      </trkpt>
      <trkpt lat="43.18589" lon="2.37641">
        <ele>160.772217</ele>
        <time>2008-09-07T06:18:54Z</time>
      </trkpt>
      <trkpt lat="43.18584" lon="2.37679">
        <ele>163.889709</ele>
        <time>2008-09-07T06:19:02Z</time>
      </trkpt>
      <trkpt lat="43.18579" lon="2.37728">
        <ele>168.828629</ele>
        <time>2008-09-07T06:19:15Z</time>
      </trkpt>
      <trkpt lat="43.18559" lon="2.37775">
        <ele>173.86499</ele>
        <time>2008-09-07T06:19:28Z</time>
      </trkpt>
      <trkpt lat="43.18548" lon="2.3782">
        <ele>175.643097</ele>
        <time>2008-09-07T06:19:39Z</time>
      </trkpt>
      <trkpt lat="43.18532" lon="2.37938">
        <ele>178.212311</ele>
        <time>2008-09-07T06:20:10Z</time>
      </trkpt>
      <trkpt lat="43.18531" lon="2.37985">
        <ele>179.101242</ele>
        <time>2008-09-07T06:20:23Z</time>
      </trkpt>
      <trkpt lat="43.18527" lon="2.38031">
        <ele>180.520981</ele>
        <time>2008-09-07T06:20:36Z</time>
      </trkpt>
      <trkpt lat="43.18513" lon="2.3808">
        <ele>183.11972</ele>
        <time>2008-09-07T06:20:50Z</time>
      </trkpt>
      <trkpt lat="43.18506" lon="2.38129">
        <ele>185.638596</ele>
        <time>2008-09-07T06:21:03Z</time>
      </trkpt>
      <trkpt lat="43.1853" lon="2.38158">
        <ele>187.733749</ele>
        <time>2008-09-07T06:21:13Z</time>
      </trkpt>
      <trkpt lat="43.18569" lon="2.38141">
        <ele>188.258041</ele>
        <time>2008-09-07T06:21:27Z</time>
      </trkpt>
      <trkpt lat="43.1858" lon="2.38146">
        <ele>189.071701</ele>
        <time>2008-09-07T06:21:33Z</time>
      </trkpt>
      <trkpt lat="43.18597" lon="2.38182">
        <ele>192.797501</ele>
        <time>2008-09-07T06:21:48Z</time>
      </trkpt>
      <trkpt lat="43.18604" lon="2.3823">
        <ele>197.038742</ele>
        <time>2008-09-07T06:22:02Z</time>
      </trkpt>
      <trkpt lat="43.1862" lon="2.38266">
        <ele>200.411102</ele>
        <time>2008-09-07T06:22:13Z</time>
      </trkpt>
      <trkpt lat="43.18628" lon="2.38301">
        <ele>201.289108</ele>
        <time>2008-09-07T06:22:23Z</time>
      </trkpt>
      <trkpt lat="43.18632" lon="2.38326">
        <ele>201.850006</ele>
        <time>2008-09-07T06:22:30Z</time>
      </trkpt>
      <trkpt lat="43.1864" lon="2.38357">
        <ele>202.141693</ele>
        <time>2008-09-07T06:22:39Z</time>
      </trkpt>
      <trkpt lat="43.18644" lon="2.38385">
        <ele>202.434998</ele>
        <time>2008-09-07T06:22:47Z</time>
      </trkpt>
      <trkpt lat="43.18654" lon="2.38409">
        <ele>203.057571</ele>
        <time>2008-09-07T06:22:53Z</time>
      </trkpt>
      <trkpt lat="43.18681" lon="2.38457">
        <ele>205.097824</ele>
        <time>2008-09-07T06:23:02Z</time>
      </trkpt>
      <trkpt lat="43.18702" lon="2.38468">
        <ele>206.220703</ele>
        <time>2008-09-07T06:23:07Z</time>
      </trkpt>
      <trkpt lat="43.18712" lon="2.38488">
        <ele>206.949707</ele>
        <time>2008-09-07T06:23:12Z</time>
      </trkpt>
      <trkpt lat="43.18703" lon="2.38537">
        <ele>207.124466</ele>
        <time>2008-09-07T06:23:22Z</time>
      </trkpt>
      <trkpt lat="43.18703" lon="2.38563">
        <ele>207.577316</ele>
        <time>2008-09-07T06:23:32Z</time>
      </trkpt>
      <trkpt lat="43.18712" lon="2.38581">
        <ele>209.187759</ele>
        <time>2008-09-07T06:23:39Z</time>
      </trkpt>
      <trkpt lat="43.18689" lon="2.38672">
        <ele>208.512344</ele>
        <time>2008-09-07T06:23:49Z</time>
      </trkpt>
      <trkpt lat="43.18652" lon="2.38802">
        <ele>203.543533</ele>
        <time>2008-09-07T06:24:01Z</time>
      </trkpt>
      <trkpt lat="43.18633" lon="2.38886">
        <ele>204.2966</ele>
        <time>2008-09-07T06:24:11Z</time>
      </trkpt>
      <trkpt lat="43.18615" lon="2.38974">
        <ele>204.421906</ele>
        <time>2008-09-07T06:24:23Z</time>
      </trkpt>
      <trkpt lat="43.18598" lon="2.39044">
        <ele>202.115952</ele>
        <time>2008-09-07T06:24:33Z</time>
      </trkpt>
      <trkpt lat="43.18585" lon="2.39048">
        <ele>201.154999</ele>
        <time>2008-09-07T06:24:38Z</time>
      </trkpt>
      <trkpt lat="43.18559" lon="2.39005">
        <ele>200.8125</ele>
        <time>2008-09-07T06:24:47Z</time>
      </trkpt>
      <trkpt lat="43.18542" lon="2.39012">
        <ele>199.347595</ele>
        <time>2008-09-07T06:24:54Z</time>
      </trkpt>
      <trkpt lat="43.18527" lon="2.39015">
        <ele>197.659134</ele>
        <time>2008-09-07T06:25:00Z</time>
      </trkpt>
      <trkpt lat="43.18512" lon="2.39011">
        <ele>196.15921</ele>
        <time>2008-09-07T06:25:06Z</time>
      </trkpt>
      <trkpt lat="43.18493" lon="2.39004">
        <ele>194.125793</ele>
        <time>2008-09-07T06:25:13Z</time>
      </trkpt>
      <trkpt lat="43.18487" lon="2.39024">
        <ele>193.313278</ele>
        <time>2008-09-07T06:25:18Z</time>
      </trkpt>
      <trkpt lat="43.18499" lon="2.39042">
        <ele>194.337952</ele>
        <time>2008-09-07T06:25:22Z</time>
      </trkpt>
      <trkpt lat="43.18516" lon="2.39079">
        <ele>195.431808</ele>
        <time>2008-09-07T06:25:29Z</time>
      </trkpt>
      <trkpt lat="43.18528" lon="2.39099">
        <ele>196.199738</ele>
        <time>2008-09-07T06:25:38Z</time>
      </trkpt>
      <trkpt lat="43.18519" lon="2.39109">
        <ele>195.426224</ele>
        <time>2008-09-07T06:25:45Z</time>
      </trkpt>
      <trkpt lat="43.18539" lon="2.39116">
        <ele>196.794189</ele>
        <time>2008-09-07T06:25:52Z</time>
      </trkpt>
      <trkpt lat="43.18561" lon="2.39126">
        <ele>198.38414</ele>
        <time>2008-09-07T06:25:59Z</time>
      </trkpt>
      <trkpt lat="43.18564" lon="2.39175">
        <ele>201.185623</ele>
        <time>2008-09-07T06:26:10Z</time>
      </trkpt>
      <trkpt lat="43.18557" lon="2.39229">
        <ele>204.956833</ele>
        <time>2008-09-07T06:26:21Z</time>
      </trkpt>
      <trkpt lat="43.18534" lon="2.39267">
        <ele>206.983475</ele>
        <time>2008-09-07T06:26:32Z</time>
      </trkpt>
      <trkpt lat="43.18511" lon="2.39284">
        <ele>206.005844</ele>
        <time>2008-09-07T06:26:38Z</time>
      </trkpt>
      <trkpt lat="43.18511" lon="2.3932">
        <ele>209.475388</ele>
        <time>2008-09-07T06:26:45Z</time>
      </trkpt>
      <trkpt lat="43.1852" lon="2.39362">
        <ele>213.085098</ele>
        <time>2008-09-07T06:26:57Z</time>
      </trkpt>
      <trkpt lat="43.18533" lon="2.39395">
        <ele>215.708206</ele>
        <time>2008-09-07T06:27:07Z</time>
      </trkpt>
      <trkpt lat="43.18531" lon="2.39416">
        <ele>214.855026</ele>
        <time>2008-09-07T06:27:15Z</time>
      </trkpt>
      <trkpt lat="43.18515" lon="2.39434">
        <ele>212.898758</ele>
        <time>2008-09-07T06:27:23Z</time>
      </trkpt>
      <trkpt lat="43.18507" lon="2.39461">
        <ele>212.286148</ele>
        <time>2008-09-07T06:27:32Z</time>
      </trkpt>
      <trkpt lat="43.18504" lon="2.39483">
        <ele>212.294968</ele>
        <time>2008-09-07T06:27:39Z</time>
      </trkpt>
      <trkpt lat="43.18503" lon="2.39527">
        <ele>211.077499</ele>
        <time>2008-09-07T06:27:50Z</time>
      </trkpt>
      <trkpt lat="43.18504" lon="2.39541">
        <ele>210.702499</ele>
        <time>2008-09-07T06:28:00Z</time>
      </trkpt>
      <trkpt lat="43.18498" lon="2.39564">
        <ele>209.328751</ele>
        <time>2008-09-07T06:28:11Z</time>
      </trkpt>
      <trkpt lat="43.18497" lon="2.39568">
        <ele>209.070007</ele>
        <time>2008-09-07T06:28:19Z</time>
      </trkpt>
      <trkpt lat="43.18466" lon="2.39571">
        <ele>206.865005</ele>
        <time>2008-09-07T06:28:26Z</time>
      </trkpt>
      <trkpt lat="43.18418" lon="2.39578">
        <ele>202.032394</ele>
        <time>2008-09-07T06:28:32Z</time>
      </trkpt>
      <trkpt lat="43.1839" lon="2.39582">
        <ele>198.492081</ele>
        <time>2008-09-07T06:28:37Z</time>
      </trkpt>
      <trkpt lat="43.18356" lon="2.39566">
        <ele>193.809189</ele>
        <time>2008-09-07T06:28:43Z</time>
      </trkpt>
      <trkpt lat="43.18324" lon="2.39603">
        <ele>190.311722</ele>
        <time>2008-09-07T06:28:52Z</time>
      </trkpt>
      <trkpt lat="43.18307" lon="2.39584">
        <ele>187.497498</ele>
        <time>2008-09-07T06:28:57Z</time>
      </trkpt>
      <trkpt lat="43.18272" lon="2.39589">
        <ele>183.023621</ele>
        <time>2008-09-07T06:29:04Z</time>
      </trkpt>
      <trkpt lat="43.18243" lon="2.39612">
        <ele>180.515213</ele>
        <time>2008-09-07T06:29:13Z</time>
      </trkpt>
      <trkpt lat="43.1825" lon="2.39677">
        <ele>184.956757</ele>
        <time>2008-09-07T06:29:26Z</time>
      </trkpt>
      <trkpt lat="43.18241" lon="2.39703">
        <ele>185.349869</ele>
        <time>2008-09-07T06:29:31Z</time>
      </trkpt>
      <trkpt lat="43.18218" lon="2.39737">
        <ele>184.9328</ele>
        <time>2008-09-07T06:29:38Z</time>
      </trkpt>
      <trkpt lat="43.18229" lon="2.39766">
        <ele>188.048676</ele>
        <time>2008-09-07T06:29:45Z</time>
      </trkpt>
      <trkpt lat="43.18232" lon="2.39817">
        <ele>192.457108</ele>
        <time>2008-09-07T06:29:56Z</time>
      </trkpt>
      <trkpt lat="43.18242" lon="2.39866">
        <ele>194.911972</ele>
        <time>2008-09-07T06:30:07Z</time>
      </trkpt>
      <trkpt lat="43.18253" lon="2.39913">
        <ele>195.550888</ele>
        <time>2008-09-07T06:30:19Z</time>
      </trkpt>
      <trkpt lat="43.18266" lon="2.39938">
        <ele>195.822495</ele>
        <time>2008-09-07T06:30:28Z</time>
      </trkpt>
      <trkpt lat="43.18254" lon="2.39954">
        <ele>195.554993</ele>
        <time>2008-09-07T06:30:34Z</time>
      </trkpt>
      <trkpt lat="43.18254" lon="2.39998">
        <ele>196.081589</ele>
        <time>2008-09-07T06:30:45Z</time>
      </trkpt>
      <trkpt lat="43.18228" lon="2.40031">
        <ele>197.483017</ele>
        <time>2008-09-07T06:30:57Z</time>
      </trkpt>
      <trkpt lat="43.18194" lon="2.40062">
        <ele>199.49028</ele>
        <time>2008-09-07T06:31:12Z</time>
      </trkpt>
      <trkpt lat="43.18185" lon="2.40098">
        <ele>200.825134</ele>
        <time>2008-09-07T06:31:24Z</time>
      </trkpt>
      <trkpt lat="43.18179" lon="2.40136">
        <ele>203.800735</ele>
        <time>2008-09-07T06:31:36Z</time>
      </trkpt>
      <trkpt lat="43.18171" lon="2.40195">
        <ele>209.121063</ele>
        <time>2008-09-07T06:31:56Z</time>
      </trkpt>
      <trkpt lat="43.18157" lon="2.40242">
        <ele>212.724869</ele>
        <time>2008-09-07T06:32:12Z</time>
      </trkpt>
      <trkpt lat="43.18148" lon="2.40287">
        <ele>214.407608</ele>
        <time>2008-09-07T06:32:27Z</time>
      </trkpt>
      <trkpt lat="43.18156" lon="2.40321">
        <ele>214.217499</ele>
        <time>2008-09-07T06:32:39Z</time>
      </trkpt>
      <trkpt lat="43.18198" lon="2.40329">
        <ele>215.936249</ele>
        <time>2008-09-07T06:32:49Z</time>
      </trkpt>
      <trkpt lat="43.18228" lon="2.40349">
        <ele>216.977493</ele>
        <time>2008-09-07T06:32:56Z</time>
      </trkpt>
      <trkpt lat="43.18241" lon="2.40379">
        <ele>215.216705</ele>
        <time>2008-09-07T06:33:02Z</time>
      </trkpt>
      <trkpt lat="43.18232" lon="2.40385">
        <ele>214.219299</ele>
        <time>2008-09-07T06:33:06Z</time>
      </trkpt>
      <trkpt lat="43.18215" lon="2.40427">
        <ele>210.703354</ele>
        <time>2008-09-07T06:33:12Z</time>
      </trkpt>
      <trkpt lat="43.18184" lon="2.40519">
        <ele>202.006958</ele>
        <time>2008-09-07T06:33:22Z</time>
      </trkpt>
      <trkpt lat="43.18159" lon="2.40574">
        <ele>199.745895</ele>
        <time>2008-09-07T06:33:30Z</time>
      </trkpt>
      <trkpt lat="43.18145" lon="2.40621">
        <ele>198.240692</ele>
        <time>2008-09-07T06:33:36Z</time>
      </trkpt>
      <trkpt lat="43.18154" lon="2.40694">
        <ele>198.367706</ele>
        <time>2008-09-07T06:33:46Z</time>
      </trkpt>
      <trkpt lat="43.18169" lon="2.40739">
        <ele>196.255005</ele>
        <time>2008-09-07T06:33:52Z</time>
      </trkpt>
      <trkpt lat="43.18187" lon="2.40786">
        <ele>194.205399</ele>
        <time>2008-09-07T06:33:59Z</time>
      </trkpt>
      <trkpt lat="43.18171" lon="2.40829">
        <ele>189.681595</ele>
        <time>2008-09-07T06:34:07Z</time>
      </trkpt>
      <trkpt lat="43.18169" lon="2.40841">
        <ele>188.432495</ele>
        <time>2008-09-07T06:34:13Z</time>
      </trkpt>
      <trkpt lat="43.18162" lon="2.40868">
        <ele>186.240005</ele>
        <time>2008-09-07T06:34:18Z</time>
      </trkpt>
      <trkpt lat="43.18159" lon="2.40891">
        <ele>185.173752</ele>
        <time>2008-09-07T06:34:23Z</time>
      </trkpt>
      <trkpt lat="43.1816" lon="2.409">
        <ele>185.301254</ele>
        <time>2008-09-07T06:34:31Z</time>
      </trkpt>
      <trkpt lat="43.18145" lon="2.40949">
        <ele>181.48172</ele>
        <time>2008-09-07T06:34:39Z</time>
      </trkpt>
      <trkpt lat="43.1814" lon="2.41023">
        <ele>179.332031</ele>
        <time>2008-09-07T06:34:46Z</time>
      </trkpt>
      <trkpt lat="43.18163" lon="2.41068">
        <ele>178.110397</ele>
        <time>2008-09-07T06:34:53Z</time>
      </trkpt>
      <trkpt lat="43.18193" lon="2.41113">
        <ele>176.12265</ele>
        <time>2008-09-07T06:35:02Z</time>
      </trkpt>
      <trkpt lat="43.18242" lon="2.41195">
        <ele>174.883667</ele>
        <time>2008-09-07T06:35:18Z</time>
      </trkpt>
      <trkpt lat="43.18264" lon="2.41259">
        <ele>170.975418</ele>
        <time>2008-09-07T06:35:28Z</time>
      </trkpt>
      <trkpt lat="43.18295" lon="2.41321">
        <ele>166.628326</ele>
        <time>2008-09-07T06:35:38Z</time>
      </trkpt>
      <trkpt lat="43.18293" lon="2.41343">
        <ele>164.576447</ele>
        <time>2008-09-07T06:35:43Z</time>
      </trkpt>
      <trkpt lat="43.18263" lon="2.41373">
        <ele>161.180435</ele>
        <time>2008-09-07T06:35:50Z</time>
      </trkpt>
      <trkpt lat="43.1826" lon="2.41437">
        <ele>157.220001</ele>
        <time>2008-09-07T06:35:57Z</time>
      </trkpt>
      <trkpt lat="43.18259" lon="2.41476">
        <ele>155.186279</ele>
        <time>2008-09-07T06:36:01Z</time>
      </trkpt>
      <trkpt lat="43.18225" lon="2.41532">
        <ele>149.222809</ele>
        <time>2008-09-07T06:36:09Z</time>
      </trkpt>
      <trkpt lat="43.18214" lon="2.41564">
        <ele>146.990372</ele>
        <time>2008-09-07T06:36:15Z</time>
      </trkpt>
      <trkpt lat="43.18194" lon="2.41579">
        <ele>144.182495</ele>
        <time>2008-09-07T06:36:21Z</time>
      </trkpt>
      <trkpt lat="43.18173" lon="2.41584">
        <ele>141.887497</ele>
        <time>2008-09-07T06:36:26Z</time>
      </trkpt>
      <trkpt lat="43.18162" lon="2.41559">
        <ele>142.673126</ele>
        <time>2008-09-07T06:36:31Z</time>
      </trkpt>
      <trkpt lat="43.1814" lon="2.41548">
        <ele>142.395889</ele>
        <time>2008-09-07T06:36:37Z</time>
      </trkpt>
      <trkpt lat="43.1811" lon="2.41573">
        <ele>143.139099</ele>
        <time>2008-09-07T06:36:43Z</time>
      </trkpt>
      <trkpt lat="43.18032" lon="2.41624">
        <ele>143.987122</ele>
        <time>2008-09-07T06:36:58Z</time>
      </trkpt>
      <trkpt lat="43.17999" lon="2.41655">
        <ele>144.420563</ele>
        <time>2008-09-07T06:37:05Z</time>
      </trkpt>
      <trkpt lat="43.17986" lon="2.41678">
        <ele>144.817337</ele>
        <time>2008-09-07T06:37:09Z</time>
      </trkpt>
      <trkpt lat="43.17952" lon="2.4175">
        <ele>143.32132</ele>
        <time>2008-09-07T06:37:21Z</time>
      </trkpt>
      <trkpt lat="43.17911" lon="2.41777">
        <ele>143.603058</ele>
        <time>2008-09-07T06:37:31Z</time>
      </trkpt>
      <trkpt lat="43.17882" lon="2.41767">
        <ele>143.352493</ele>
        <time>2008-09-07T06:37:40Z</time>
      </trkpt>
      <trkpt lat="43.17843" lon="2.41769">
        <ele>142.770264</ele>
        <time>2008-09-07T06:37:48Z</time>
      </trkpt>
      <trkpt lat="43.17822" lon="2.41801">
        <ele>141.692169</ele>
        <time>2008-09-07T06:37:56Z</time>
      </trkpt>
      <trkpt lat="43.17851" lon="2.41856">
        <ele>144.570297</ele>
        <time>2008-09-07T06:38:07Z</time>
      </trkpt>
      <trkpt lat="43.17881" lon="2.41879">
        <ele>148.333847</ele>
        <time>2008-09-07T06:38:17Z</time>
      </trkpt>
      <trkpt lat="43.17913" lon="2.41877">
        <ele>149.8414</ele>
        <time>2008-09-07T06:38:27Z</time>
      </trkpt>
      <trkpt lat="43.17985" lon="2.41825">
        <ele>144.546997</ele>
        <time>2008-09-07T06:38:42Z</time>
      </trkpt>
      <trkpt lat="43.18039" lon="2.41761">
        <ele>143.039993</ele>
        <time>2008-09-07T06:38:52Z</time>
      </trkpt>
      <trkpt lat="43.18076" lon="2.41747">
        <ele>142.984695</ele>
        <time>2008-09-07T06:39:00Z</time>
      </trkpt>
      <trkpt lat="43.1812" lon="2.41783">
        <ele>145.941437</ele>
        <time>2008-09-07T06:39:11Z</time>
      </trkpt>
      <trkpt lat="43.18159" lon="2.4185">
        <ele>144.893509</ele>
        <time>2008-09-07T06:39:22Z</time>
      </trkpt>
      <trkpt lat="43.1814" lon="2.41948">
        <ele>147.497208</ele>
        <time>2008-09-07T06:39:34Z</time>
      </trkpt>
      <trkpt lat="43.18134" lon="2.41968">
        <ele>148.034622</ele>
        <time>2008-09-07T06:39:38Z</time>
      </trkpt>
      <trkpt lat="43.1812" lon="2.4201">
        <ele>149.134567</ele>
        <time>2008-09-07T06:39:45Z</time>
      </trkpt>
      <trkpt lat="43.18101" lon="2.42049">
        <ele>152.112</ele>
        <time>2008-09-07T06:39:52Z</time>
      </trkpt>
      <trkpt lat="43.18093" lon="2.42102">
        <ele>152.987839</ele>
        <time>2008-09-07T06:40:00Z</time>
      </trkpt>
      <trkpt lat="43.18068" lon="2.4217">
        <ele>157.138504</ele>
        <time>2008-09-07T06:40:14Z</time>
      </trkpt>
      <trkpt lat="43.18084" lon="2.42191">
        <ele>155.148331</ele>
        <time>2008-09-07T06:40:20Z</time>
      </trkpt>
      <trkpt lat="43.18109" lon="2.42192">
        <ele>152.537506</ele>
        <time>2008-09-07T06:40:36Z</time>
      </trkpt>
      <trkpt lat="43.18101" lon="2.42208">
        <ele>153.715866</ele>
        <time>2008-09-07T06:40:46Z</time>
      </trkpt>
      <trkpt lat="43.18092" lon="2.4225">
        <ele>156.085663</ele>
        <time>2008-09-07T06:40:56Z</time>
      </trkpt>
      <trkpt lat="43.18074" lon="2.4231">
        <ele>158.782501</ele>
        <time>2008-09-07T06:41:10Z</time>
      </trkpt>
      <trkpt lat="43.18035" lon="2.42363">
        <ele>161.882507</ele>
        <time>2008-09-07T06:41:25Z</time>
      </trkpt>
      <trkpt lat="43.17995" lon="2.42445">
        <ele>156.89035</ele>
        <time>2008-09-07T06:41:40Z</time>
      </trkpt>
      <trkpt lat="43.17964" lon="2.42523">
        <ele>147.529144</ele>
        <time>2008-09-07T06:41:52Z</time>
      </trkpt>
      <trkpt lat="43.1792" lon="2.42539">
        <ele>149.108932</ele>
        <time>2008-09-07T06:42:01Z</time>
      </trkpt>
      <trkpt lat="43.17869" lon="2.42571">
        <ele>153.03891</ele>
        <time>2008-09-07T06:42:11Z</time>
      </trkpt>
      <trkpt lat="43.17841" lon="2.42612">
        <ele>154.195023</ele>
        <time>2008-09-07T06:42:18Z</time>
      </trkpt>
      <trkpt lat="43.17785" lon="2.42644">
        <ele>159.033752</ele>
        <time>2008-09-07T06:42:30Z</time>
      </trkpt>
      <trkpt lat="43.17763" lon="2.42697">
        <ele>157.17453</ele>
        <time>2008-09-07T06:42:41Z</time>
      </trkpt>
      <trkpt lat="43.17721" lon="2.42709">
        <ele>159.561371</ele>
        <time>2008-09-07T06:42:52Z</time>
      </trkpt>
      <trkpt lat="43.17666" lon="2.42718">
        <ele>165.308411</ele>
        <time>2008-09-07T06:43:07Z</time>
      </trkpt>
      <trkpt lat="43.1766" lon="2.4274">
        <ele>164.103973</ele>
        <time>2008-09-07T06:43:12Z</time>
      </trkpt>
      <trkpt lat="43.17654" lon="2.42788">
        <ele>161.824646</ele>
        <time>2008-09-07T06:43:23Z</time>
      </trkpt>
      <trkpt lat="43.17632" lon="2.42785">
        <ele>165.38945</ele>
        <time>2008-09-07T06:43:34Z</time>
      </trkpt>
      <trkpt lat="43.17616" lon="2.42803">
        <ele>166.221222</ele>
        <time>2008-09-07T06:43:43Z</time>
      </trkpt>
      <trkpt lat="43.17589" lon="2.42826">
        <ele>169.487076</ele>
        <time>2008-09-07T06:43:53Z</time>
      </trkpt>
      <trkpt lat="43.17583" lon="2.42861">
        <ele>169.669525</ele>
        <time>2008-09-07T06:44:03Z</time>
      </trkpt>
      <trkpt lat="43.1758" lon="2.4292">
        <ele>174.020004</ele>
        <time>2008-09-07T06:44:19Z</time>
      </trkpt>
      <trkpt lat="43.17569" lon="2.42976">
        <ele>177.257477</ele>
        <time>2008-09-07T06:44:34Z</time>
      </trkpt>
      <trkpt lat="43.17567" lon="2.43042">
        <ele>178.321182</ele>
        <time>2008-09-07T06:44:51Z</time>
      </trkpt>
      <trkpt lat="43.17545" lon="2.4308">
        <ele>180.317505</ele>
        <time>2008-09-07T06:45:04Z</time>
      </trkpt>
      <trkpt lat="43.17527" lon="2.43092">
        <ele>181.693756</ele>
        <time>2008-09-07T06:45:15Z</time>
      </trkpt>
      <trkpt lat="43.17475" lon="2.43141">
        <ele>183.715149</ele>
        <time>2008-09-07T06:45:33Z</time>
      </trkpt>
      <trkpt lat="43.17464" lon="2.43175">
        <ele>183.751282</ele>
        <time>2008-09-07T06:45:37Z</time>
      </trkpt>
      <trkpt lat="43.17426" lon="2.4326">
        <ele>178.98288</ele>
        <time>2008-09-07T06:45:48Z</time>
      </trkpt>
      <trkpt lat="43.17422" lon="2.43308">
        <ele>173.640549</ele>
        <time>2008-09-07T06:45:53Z</time>
      </trkpt>
      <trkpt lat="43.17396" lon="2.43357">
        <ele>171.904312</ele>
        <time>2008-09-07T06:45:59Z</time>
      </trkpt>
      <trkpt lat="43.17373" lon="2.43423">
        <ele>171.215454</ele>
        <time>2008-09-07T06:46:07Z</time>
      </trkpt>
      <trkpt lat="43.17372" lon="2.43476">
        <ele>172.935806</ele>
        <time>2008-09-07T06:46:14Z</time>
      </trkpt>
      <trkpt lat="43.17362" lon="2.43512">
        <ele>176.000031</ele>
        <time>2008-09-07T06:46:20Z</time>
      </trkpt>
      <trkpt lat="43.17347" lon="2.43603">
        <ele>183.526001</ele>
        <time>2008-09-07T06:46:45Z</time>
      </trkpt>
      <trkpt lat="43.17338" lon="2.43641">
        <ele>187.396957</ele>
        <time>2008-09-07T06:46:58Z</time>
      </trkpt>
      <trkpt lat="43.17334" lon="2.43658">
        <ele>189.517258</ele>
        <time>2008-09-07T06:47:05Z</time>
      </trkpt>
      <trkpt lat="43.17324" lon="2.43696">
        <ele>193.988068</ele>
        <time>2008-09-07T06:47:20Z</time>
      </trkpt>
      <trkpt lat="43.17314" lon="2.43727">
        <ele>198.456207</ele>
        <time>2008-09-07T06:47:35Z</time>
      </trkpt>
      <trkpt lat="43.17296" lon="2.43751">
        <ele>203.770187</ele>
        <time>2008-09-07T06:47:49Z</time>
      </trkpt>
      <trkpt lat="43.17266" lon="2.43773">
        <ele>205.970459</ele>
        <time>2008-09-07T06:48:05Z</time>
      </trkpt>
      <trkpt lat="43.1725" lon="2.43816">
        <ele>204.828583</ele>
        <time>2008-09-07T06:48:18Z</time>
      </trkpt>
      <trkpt lat="43.17256" lon="2.43876">
        <ele>207.079849</ele>
        <time>2008-09-07T06:48:31Z</time>
      </trkpt>
      <trkpt lat="43.17268" lon="2.4394">
        <ele>208.330688</ele>
        <time>2008-09-07T06:48:46Z</time>
      </trkpt>
      <trkpt lat="43.1726" lon="2.43984">
        <ele>205.9095</ele>
        <time>2008-09-07T06:48:55Z</time>
      </trkpt>
      <trkpt lat="43.17236" lon="2.44033">
        <ele>204.046799</ele>
        <time>2008-09-07T06:49:03Z</time>
      </trkpt>
      <trkpt lat="43.17167" lon="2.44064">
        <ele>204.232269</ele>
        <time>2008-09-07T06:49:16Z</time>
      </trkpt>
      <trkpt lat="43.17137" lon="2.44067">
        <ele>203.307068</ele>
        <time>2008-09-07T06:49:24Z</time>
      </trkpt>
      <trkpt lat="43.1711" lon="2.44085">
        <ele>202.417862</ele>
        <time>2008-09-07T06:49:30Z</time>
      </trkpt>
      <trkpt lat="43.17075" lon="2.44155">
        <ele>200.100006</ele>
        <time>2008-09-07T06:49:39Z</time>
      </trkpt>
      <trkpt lat="43.1705" lon="2.44203">
        <ele>197.882446</ele>
        <time>2008-09-07T06:49:44Z</time>
      </trkpt>
      <trkpt lat="43.16995" lon="2.44246">
        <ele>193.785004</ele>
        <time>2008-09-07T06:49:51Z</time>
      </trkpt>
      <trkpt lat="43.16939" lon="2.44276">
        <ele>190.353394</ele>
        <time>2008-09-07T06:49:57Z</time>
      </trkpt>
      <trkpt lat="43.16933" lon="2.44329">
        <ele>189.574051</ele>
        <time>2008-09-07T06:50:02Z</time>
      </trkpt>
      <trkpt lat="43.16922" lon="2.44404">
        <ele>189.914993</ele>
        <time>2008-09-07T06:50:09Z</time>
      </trkpt>
      <trkpt lat="43.16891" lon="2.44445">
        <ele>190.642502</ele>
        <time>2008-09-07T06:50:16Z</time>
      </trkpt>
      <trkpt lat="43.16855" lon="2.4448">
        <ele>192.861694</ele>
        <time>2008-09-07T06:50:28Z</time>
      </trkpt>
      <trkpt lat="43.16822" lon="2.44502">
        <ele>194.796997</ele>
        <time>2008-09-07T06:50:43Z</time>
      </trkpt>
      <trkpt lat="43.16779" lon="2.44497">
        <ele>198.969589</ele>
        <time>2008-09-07T06:51:00Z</time>
      </trkpt>
      <trkpt lat="43.1673" lon="2.44498">
        <ele>203.090164</ele>
        <time>2008-09-07T06:51:19Z</time>
      </trkpt>
      <trkpt lat="43.16689" lon="2.44519">
        <ele>205.865005</ele>
        <time>2008-09-07T06:51:35Z</time>
      </trkpt>
      <trkpt lat="43.1669" lon="2.44535">
        <ele>207.482269</ele>
        <time>2008-09-07T06:51:41Z</time>
      </trkpt>
      <trkpt lat="43.16711" lon="2.44545">
        <ele>206.800964</ele>
        <time>2008-09-07T06:51:48Z</time>
      </trkpt>
      <trkpt lat="43.16724" lon="2.44564">
        <ele>207.547073</ele>
        <time>2008-09-07T06:51:56Z</time>
      </trkpt>
      <trkpt lat="43.16741" lon="2.44656">
        <ele>217.631485</ele>
        <time>2008-09-07T06:52:33Z</time>
      </trkpt>
      <trkpt lat="43.16763" lon="2.44679">
        <ele>217.168625</ele>
        <time>2008-09-07T06:52:49Z</time>
      </trkpt>
      <trkpt lat="43.16773" lon="2.4471">
        <ele>219.235001</ele>
        <time>2008-09-07T06:53:04Z</time>
      </trkpt>
      <trkpt lat="43.16777" lon="2.44743">
        <ele>218.615005</ele>
        <time>2008-09-07T06:53:17Z</time>
      </trkpt>
      <trkpt lat="43.16785" lon="2.448">
        <ele>218.575104</ele>
        <time>2008-09-07T06:53:31Z</time>
      </trkpt>
      <trkpt lat="43.16795" lon="2.44813">
        <ele>216.717224</ele>
        <time>2008-09-07T06:53:40Z</time>
      </trkpt>
      <trkpt lat="43.16808" lon="2.44833">
        <ele>214.239883</ele>
        <time>2008-09-07T06:53:49Z</time>
      </trkpt>
      <trkpt lat="43.16808" lon="2.44858">
        <ele>215.241196</ele>
        <time>2008-09-07T06:53:59Z</time>
      </trkpt>
      <trkpt lat="43.16811" lon="2.44881">
        <ele>215.955383</ele>
        <time>2008-09-07T06:54:11Z</time>
      </trkpt>
      <trkpt lat="43.1681" lon="2.44887">
        <ele>216.407257</ele>
        <time>2008-09-07T06:54:15Z</time>
      </trkpt>
      <trkpt lat="43.16806" lon="2.44906">
        <ele>216.193192</ele>
        <time>2008-09-07T06:54:23Z</time>
      </trkpt>
      <trkpt lat="43.16819" lon="2.44932">
        <ele>213.481171</ele>
        <time>2008-09-07T06:54:32Z</time>
      </trkpt>
      <trkpt lat="43.16825" lon="2.44972">
        <ele>209.968094</ele>
        <time>2008-09-07T06:54:39Z</time>
      </trkpt>
      <trkpt lat="43.16834" lon="2.44996">
        <ele>206.977295</ele>
        <time>2008-09-07T06:54:45Z</time>
      </trkpt>
      <trkpt lat="43.16843" lon="2.45026">
        <ele>203.049484</ele>
        <time>2008-09-07T06:54:51Z</time>
      </trkpt>
      <trkpt lat="43.16848" lon="2.45053">
        <ele>201.111206</ele>
        <time>2008-09-07T06:54:57Z</time>
      </trkpt>
      <trkpt lat="43.16846" lon="2.45096">
        <ele>200.479645</ele>
        <time>2008-09-07T06:55:05Z</time>
      </trkpt>
      <trkpt lat="43.16845" lon="2.45133">
        <ele>199.874176</ele>
        <time>2008-09-07T06:55:12Z</time>
      </trkpt>
      <trkpt lat="43.1685" lon="2.45214">
        <ele>199.414413</ele>
        <time>2008-09-07T06:55:27Z</time>
      </trkpt>
      <trkpt lat="43.16861" lon="2.45256">
        <ele>198.351898</ele>
        <time>2008-09-07T06:55:37Z</time>
      </trkpt>
      <trkpt lat="43.16867" lon="2.45293">
        <ele>195.660309</ele>
        <time>2008-09-07T06:55:42Z</time>
      </trkpt>
      <trkpt lat="43.1687" lon="2.45355">
        <ele>189.697495</ele>
        <time>2008-09-07T06:55:49Z</time>
      </trkpt>
      <trkpt lat="43.16874" lon="2.45397">
        <ele>185.762131</ele>
        <time>2008-09-07T06:55:55Z</time>
      </trkpt>
      <trkpt lat="43.1687" lon="2.45446">
        <ele>181.622467</ele>
        <time>2008-09-07T06:56:04Z</time>
      </trkpt>
      <trkpt lat="43.16874" lon="2.45498">
        <ele>177.787247</ele>
        <time>2008-09-07T06:56:11Z</time>
      </trkpt>
      <trkpt lat="43.16867" lon="2.45516">
        <ele>173.100708</ele>
        <time>2008-09-07T06:56:14Z</time>
      </trkpt>
      <trkpt lat="43.16848" lon="2.45511">
        <ele>168.853531</ele>
        <time>2008-09-07T06:56:21Z</time>
      </trkpt>
      <trkpt lat="43.16838" lon="2.45502">
        <ele>166.908905</ele>
        <time>2008-09-07T06:56:26Z</time>
      </trkpt>
      <trkpt lat="43.16831" lon="2.45576">
        <ele>159.179871</ele>
        <time>2008-09-07T06:56:37Z</time>
      </trkpt>
      <trkpt lat="43.16834" lon="2.45616">
        <ele>156.651749</ele>
        <time>2008-09-07T06:56:44Z</time>
      </trkpt>
      <trkpt lat="43.16829" lon="2.45648">
        <ele>154.643997</ele>
        <time>2008-09-07T06:56:48Z</time>
      </trkpt>
      <trkpt lat="43.16835" lon="2.45679">
        <ele>152.038849</ele>
        <time>2008-09-07T06:56:54Z</time>
      </trkpt>
      <trkpt lat="43.16844" lon="2.45685">
        <ele>150.425278</ele>
        <time>2008-09-07T06:56:58Z</time>
      </trkpt>
      <trkpt lat="43.1685" lon="2.45707">
        <ele>149.539993</ele>
        <time>2008-09-07T06:57:04Z</time>
      </trkpt>
      <trkpt lat="43.16848" lon="2.45693">
        <ele>149.735001</ele>
        <time>2008-09-07T06:57:11Z</time>
      </trkpt>
      <trkpt lat="43.16834" lon="2.45737">
        <ele>151.699997</ele>
        <time>2008-09-07T06:57:29Z</time>
      </trkpt>
      <trkpt lat="43.16815" lon="2.45779">
        <ele>156.527023</ele>
        <time>2008-09-07T06:57:42Z</time>
      </trkpt>
      <trkpt lat="43.168" lon="2.45826">
        <ele>160.565002</ele>
        <time>2008-09-07T06:57:57Z</time>
      </trkpt>
      <trkpt lat="43.16796" lon="2.45852">
        <ele>162.192505</ele>
        <time>2008-09-07T06:58:05Z</time>
      </trkpt>
      <trkpt lat="43.16793" lon="2.45894">
        <ele>164.558167</ele>
        <time>2008-09-07T06:58:19Z</time>
      </trkpt>
      <trkpt lat="43.16787" lon="2.45944">
        <ele>166.654602</ele>
        <time>2008-09-07T06:58:35Z</time>
      </trkpt>
      <trkpt lat="43.16775" lon="2.45979">
        <ele>165.230499</ele>
        <time>2008-09-07T06:58:47Z</time>
      </trkpt>
      <trkpt lat="43.16763" lon="2.45967">
        <ele>162.104797</ele>
        <time>2008-09-07T06:58:54Z</time>
      </trkpt>
      <trkpt lat="43.16755" lon="2.4594">
        <ele>161.466675</ele>
        <time>2008-09-07T06:59:05Z</time>
      </trkpt>
      <trkpt lat="43.16745" lon="2.45898">
        <ele>161.96965</ele>
        <time>2008-09-07T06:59:22Z</time>
      </trkpt>
      <trkpt lat="43.16728" lon="2.45844">
        <ele>162.355194</ele>
        <time>2008-09-07T06:59:36Z</time>
      </trkpt>
      <trkpt lat="43.16684" lon="2.4572">
        <ele>164.536606</ele>
        <time>2008-09-07T07:00:02Z</time>
      </trkpt>
      <trkpt lat="43.16662" lon="2.45671">
        <ele>166.804642</ele>
        <time>2008-09-07T07:00:11Z</time>
      </trkpt>
      <trkpt lat="43.16643" lon="2.45621">
        <ele>169.032272</ele>
        <time>2008-09-07T07:00:21Z</time>
      </trkpt>
      <trkpt lat="43.16632" lon="2.45573">
        <ele>173.570206</ele>
        <time>2008-09-07T07:00:31Z</time>
      </trkpt>
      <trkpt lat="43.16604" lon="2.45491">
        <ele>178.920532</ele>
        <time>2008-09-07T07:00:49Z</time>
      </trkpt>
      <trkpt lat="43.16578" lon="2.4543">
        <ele>178.974792</ele>
        <time>2008-09-07T07:00:59Z</time>
      </trkpt>
      <trkpt lat="43.16558" lon="2.45364">
        <ele>179.384048</ele>
        <time>2008-09-07T07:01:11Z</time>
      </trkpt>
      <trkpt lat="43.16529" lon="2.4529">
        <ele>179.722031</ele>
        <time>2008-09-07T07:01:26Z</time>
      </trkpt>
      <trkpt lat="43.16484" lon="2.4517">
        <ele>181.944427</ele>
        <time>2008-09-07T07:01:49Z</time>
      </trkpt>
      <trkpt lat="43.16457" lon="2.45139">
        <ele>183.308502</ele>
        <time>2008-09-07T07:01:58Z</time>
      </trkpt>
      <trkpt lat="43.1643" lon="2.45141">
        <ele>185.004898</ele>
        <time>2008-09-07T07:02:08Z</time>
      </trkpt>
      <trkpt lat="43.16405" lon="2.45095">
        <ele>183.001526</ele>
        <time>2008-09-07T07:02:25Z</time>
      </trkpt>
      <trkpt lat="43.16383" lon="2.45051">
        <ele>186</ele>
        <time>2008-09-07T07:02:36Z</time>
      </trkpt>
      <trkpt lat="43.16355" lon="2.45013">
        <ele>185.733124</ele>
        <time>2008-09-07T07:02:47Z</time>
      </trkpt>
      <trkpt lat="43.16317" lon="2.44972">
        <ele>184.642258</ele>
        <time>2008-09-07T07:02:58Z</time>
      </trkpt>
      <trkpt lat="43.16287" lon="2.44938">
        <ele>188.917755</ele>
        <time>2008-09-07T07:03:11Z</time>
      </trkpt>
      <trkpt lat="43.16264" lon="2.44925">
        <ele>189.6241</ele>
        <time>2008-09-07T07:03:18Z</time>
      </trkpt>
      <trkpt lat="43.16214" lon="2.44871">
        <ele>189.624649</ele>
        <time>2008-09-07T07:03:29Z</time>
      </trkpt>
      <trkpt lat="43.16175" lon="2.44818">
        <ele>187.355896</ele>
        <time>2008-09-07T07:03:39Z</time>
      </trkpt>
      <trkpt lat="43.16135" lon="2.44755">
        <ele>186.774368</ele>
        <time>2008-09-07T07:03:50Z</time>
      </trkpt>
      <trkpt lat="43.16112" lon="2.4474">
        <ele>189.792725</ele>
        <time>2008-09-07T07:03:57Z</time>
      </trkpt>
      <trkpt lat="43.1611" lon="2.44718">
        <ele>191.796005</ele>
        <time>2008-09-07T07:04:04Z</time>
      </trkpt>
      <trkpt lat="43.16105" lon="2.44684">
        <ele>196.316818</ele>
        <time>2008-09-07T07:04:18Z</time>
      </trkpt>
      <trkpt lat="43.16095" lon="2.4467">
        <ele>200.679398</ele>
        <time>2008-09-07T07:04:28Z</time>
      </trkpt>
      <trkpt lat="43.16077" lon="2.44687">
        <ele>203.315536</ele>
        <time>2008-09-07T07:04:44Z</time>
      </trkpt>
      <trkpt lat="43.16061" lon="2.44697">
        <ele>206.567429</ele>
        <time>2008-09-07T07:04:58Z</time>
      </trkpt>
      <trkpt lat="43.16052" lon="2.44693">
        <ele>208.978897</ele>
        <time>2008-09-07T07:05:04Z</time>
      </trkpt>
      <trkpt lat="43.16039" lon="2.44699">
        <ele>211.619827</ele>
        <time>2008-09-07T07:05:15Z</time>
      </trkpt>
      <trkpt lat="43.16034" lon="2.44698">
        <ele>212.853424</ele>
        <time>2008-09-07T07:05:26Z</time>
      </trkpt>
      <trkpt lat="43.16027" lon="2.44714">
        <ele>211.934525</ele>
        <time>2008-09-07T07:05:34Z</time>
      </trkpt>
      <trkpt lat="43.1601" lon="2.44731">
        <ele>213.421494</ele>
        <time>2008-09-07T07:05:47Z</time>
      </trkpt>
      <trkpt lat="43.1599" lon="2.44748">
        <ele>216.759796</ele>
        <time>2008-09-07T07:06:03Z</time>
      </trkpt>
      <trkpt lat="43.15962" lon="2.44763">
        <ele>222.432648</ele>
        <time>2008-09-07T07:06:24Z</time>
      </trkpt>
      <trkpt lat="43.15956" lon="2.44762">
        <ele>224.541183</ele>
        <time>2008-09-07T07:06:40Z</time>
      </trkpt>
      <trkpt lat="43.15945" lon="2.44779">
        <ele>223.930511</ele>
        <time>2008-09-07T07:06:48Z</time>
      </trkpt>
      <trkpt lat="43.15928" lon="2.44812">
        <ele>221.372498</ele>
        <time>2008-09-07T07:06:55Z</time>
      </trkpt>
      <trkpt lat="43.15915" lon="2.44855">
        <ele>214.0345</ele>
        <time>2008-09-07T07:07:01Z</time>
      </trkpt>
      <trkpt lat="43.15906" lon="2.4488">
        <ele>209.893707</ele>
        <time>2008-09-07T07:07:06Z</time>
      </trkpt>
      <trkpt lat="43.159" lon="2.44914">
        <ele>206.07608</ele>
        <time>2008-09-07T07:07:12Z</time>
      </trkpt>
      <trkpt lat="43.15877" lon="2.44977">
        <ele>202.949997</ele>
        <time>2008-09-07T07:07:22Z</time>
      </trkpt>
      <trkpt lat="43.15862" lon="2.4501">
        <ele>200.850006</ele>
        <time>2008-09-07T07:07:28Z</time>
      </trkpt>
      <trkpt lat="43.15851" lon="2.45033">
        <ele>198.819382</ele>
        <time>2008-09-07T07:07:37Z</time>
      </trkpt>
      <trkpt lat="43.1585" lon="2.4504">
        <ele>197.628387</ele>
        <time>2008-09-07T07:08:07Z</time>
      </trkpt>
      <trkpt lat="43.15842" lon="2.45057">
        <ele>195.942902</ele>
        <time>2008-09-07T07:08:11Z</time>
      </trkpt>
      <trkpt lat="43.15826" lon="2.451">
        <ele>188.766815</ele>
        <time>2008-09-07T07:08:19Z</time>
      </trkpt>
      <trkpt lat="43.15827" lon="2.45128">
        <ele>182.343246</ele>
        <time>2008-09-07T07:08:25Z</time>
      </trkpt>
      <trkpt lat="43.1582" lon="2.45155">
        <ele>176.926254</ele>
        <time>2008-09-07T07:08:31Z</time>
      </trkpt>
      <trkpt lat="43.15804" lon="2.45141">
        <ele>180.637802</ele>
        <time>2008-09-07T07:08:38Z</time>
      </trkpt>
      <trkpt lat="43.15795" lon="2.45129">
        <ele>183.983749</ele>
        <time>2008-09-07T07:08:44Z</time>
      </trkpt>
      <trkpt lat="43.15779" lon="2.45155">
        <ele>184.576813</ele>
        <time>2008-09-07T07:08:52Z</time>
      </trkpt>
      <trkpt lat="43.15783" lon="2.45167">
        <ele>182.09375</ele>
        <time>2008-09-07T07:08:55Z</time>
      </trkpt>
      <trkpt lat="43.158" lon="2.45232">
        <ele>172.350006</ele>
        <time>2008-09-07T07:09:05Z</time>
      </trkpt>
      <trkpt lat="43.158" lon="2.45277">
        <ele>169.614548</ele>
        <time>2008-09-07T07:09:11Z</time>
      </trkpt>
      <trkpt lat="43.15811" lon="2.4531">
        <ele>165.377243</ele>
        <time>2008-09-07T07:09:16Z</time>
      </trkpt>
      <trkpt lat="43.15826" lon="2.45306">
        <ele>163.893021</ele>
        <time>2008-09-07T07:09:21Z</time>
      </trkpt>
      <trkpt lat="43.15819" lon="2.45338">
        <ele>161.163422</ele>
        <time>2008-09-07T07:09:25Z</time>
      </trkpt>
      <trkpt lat="43.15775" lon="2.45401">
        <ele>154.442719</ele>
        <time>2008-09-07T07:09:32Z</time>
      </trkpt>
      <trkpt lat="43.15782" lon="2.45444">
        <ele>149.216248</ele>
        <time>2008-09-07T07:09:39Z</time>
      </trkpt>
      <trkpt lat="43.15808" lon="2.45502">
        <ele>141.275253</ele>
        <time>2008-09-07T07:09:44Z</time>
      </trkpt>
      <trkpt lat="43.15828" lon="2.45556">
        <ele>137.30806</ele>
        <time>2008-09-07T07:09:48Z</time>
      </trkpt>
      <trkpt lat="43.15846" lon="2.45591">
        <ele>137.475006</ele>
        <time>2008-09-07T07:09:52Z</time>
      </trkpt>
      <trkpt lat="43.15892" lon="2.45588">
        <ele>137.457657</ele>
        <time>2008-09-07T07:09:59Z</time>
      </trkpt>
      <trkpt lat="43.15946" lon="2.456">
        <ele>138.7005</ele>
        <time>2008-09-07T07:10:08Z</time>
      </trkpt>
      <trkpt lat="43.15968" lon="2.45587">
        <ele>138.90239</ele>
        <time>2008-09-07T07:10:15Z</time>
      </trkpt>
      <trkpt lat="43.15952" lon="2.45623">
        <ele>139.831558</ele>
        <time>2008-09-07T07:10:26Z</time>
      </trkpt>
      <trkpt lat="43.15924" lon="2.45697">
        <ele>143.319794</ele>
        <time>2008-09-07T07:10:45Z</time>
      </trkpt>
      <trkpt lat="43.15902" lon="2.45758">
        <ele>145.795319</ele>
        <time>2008-09-07T07:11:00Z</time>
      </trkpt>
      <trkpt lat="43.15873" lon="2.4584">
        <ele>150.137497</ele>
        <time>2008-09-07T07:11:20Z</time>
      </trkpt>
      <trkpt lat="43.15863" lon="2.45874">
        <ele>151.710007</ele>
        <time>2008-09-07T07:11:29Z</time>
      </trkpt>
      <trkpt lat="43.15879" lon="2.4588">
        <ele>153.137497</ele>
        <time>2008-09-07T07:11:40Z</time>
      </trkpt>
      <trkpt lat="43.15893" lon="2.45877">
        <ele>153.755005</ele>
        <time>2008-09-07T07:11:57Z</time>
      </trkpt>
      <trkpt lat="43.15897" lon="2.45879">
        <ele>154.135864</ele>
        <time>2008-09-07T07:16:28Z</time>
      </trkpt>
      <trkpt lat="43.15908" lon="2.45872">
        <ele>154.078918</ele>
        <time>2008-09-07T07:16:38Z</time>
      </trkpt>
      <trkpt lat="43.15926" lon="2.45868">
        <ele>154.654999</ele>
        <time>2008-09-07T07:16:48Z</time>
      </trkpt>
      <trkpt lat="43.15947" lon="2.45872">
        <ele>156.174423</ele>
        <time>2008-09-07T07:16:58Z</time>
      </trkpt>
      <trkpt lat="43.15968" lon="2.45882">
        <ele>158.062439</ele>
        <time>2008-09-07T07:17:09Z</time>
      </trkpt>
      <trkpt lat="43.15994" lon="2.459">
        <ele>160.738663</ele>
        <time>2008-09-07T07:17:21Z</time>
      </trkpt>
      <trkpt lat="43.16014" lon="2.45893">
        <ele>161.904739</ele>
        <time>2008-09-07T07:17:29Z</time>
      </trkpt>
      <trkpt lat="43.16044" lon="2.45875">
        <ele>161.877502</ele>
        <time>2008-09-07T07:17:42Z</time>
      </trkpt>
      <trkpt lat="43.16068" lon="2.45856">
        <ele>161.14119</ele>
        <time>2008-09-07T07:17:50Z</time>
      </trkpt>
      <trkpt lat="43.16101" lon="2.45848">
        <ele>160.088974</ele>
        <time>2008-09-07T07:17:57Z</time>
      </trkpt>
      <trkpt lat="43.16114" lon="2.45864">
        <ele>160.824539</ele>
        <time>2008-09-07T07:18:03Z</time>
      </trkpt>
      <trkpt lat="43.16128" lon="2.45891">
        <ele>163.209274</ele>
        <time>2008-09-07T07:18:13Z</time>
      </trkpt>
      <trkpt lat="43.1615" lon="2.45921">
        <ele>165.478912</ele>
        <time>2008-09-07T07:18:28Z</time>
      </trkpt>
      <trkpt lat="43.16168" lon="2.45953">
        <ele>167.957947</ele>
        <time>2008-09-07T07:18:42Z</time>
      </trkpt>
      <trkpt lat="43.16172" lon="2.45996">
        <ele>171.375</ele>
        <time>2008-09-07T07:18:55Z</time>
      </trkpt>
      <trkpt lat="43.16169" lon="2.46015">
        <ele>173.205002</ele>
        <time>2008-09-07T07:19:02Z</time>
      </trkpt>
      <trkpt lat="43.16167" lon="2.46018">
        <ele>173.475006</ele>
        <time>2008-09-07T07:19:14Z</time>
      </trkpt>
      <trkpt lat="43.16165" lon="2.46037">
        <ele>175.387497</ele>
        <time>2008-09-07T07:19:21Z</time>
      </trkpt>
      <trkpt lat="43.16175" lon="2.46073">
        <ele>179.01442</ele>
        <time>2008-09-07T07:19:34Z</time>
      </trkpt>
      <trkpt lat="43.16186" lon="2.46095">
        <ele>181.485382</ele>
        <time>2008-09-07T07:19:46Z</time>
      </trkpt>
      <trkpt lat="43.16197" lon="2.46124">
        <ele>184.877502</ele>
        <time>2008-09-07T07:20:01Z</time>
      </trkpt>
      <trkpt lat="43.16225" lon="2.46174">
        <ele>190.748703</ele>
        <time>2008-09-07T07:20:28Z</time>
      </trkpt>
      <trkpt lat="43.16243" lon="2.46201">
        <ele>192.981247</ele>
        <time>2008-09-07T07:20:45Z</time>
      </trkpt>
      <trkpt lat="43.16262" lon="2.46222">
        <ele>194.281799</ele>
        <time>2008-09-07T07:20:57Z</time>
      </trkpt>
      <trkpt lat="43.16251" lon="2.46254">
        <ele>196.987564</ele>
        <time>2008-09-07T07:21:12Z</time>
      </trkpt>
      <trkpt lat="43.16235" lon="2.4628">
        <ele>198.369797</ele>
        <time>2008-09-07T07:21:26Z</time>
      </trkpt>
      <trkpt lat="43.16212" lon="2.46277">
        <ele>197.537201</ele>
        <time>2008-09-07T07:21:34Z</time>
      </trkpt>
      <trkpt lat="43.16173" lon="2.46299">
        <ele>197.996704</ele>
        <time>2008-09-07T07:21:44Z</time>
      </trkpt>
      <trkpt lat="43.16158" lon="2.46339">
        <ele>198.701431</ele>
        <time>2008-09-07T07:21:52Z</time>
      </trkpt>
      <trkpt lat="43.16159" lon="2.46378">
        <ele>200.49649</ele>
        <time>2008-09-07T07:22:01Z</time>
      </trkpt>
      <trkpt lat="43.16156" lon="2.46413">
        <ele>203.314224</ele>
        <time>2008-09-07T07:22:12Z</time>
      </trkpt>
      <trkpt lat="43.16158" lon="2.46429">
        <ele>205.022095</ele>
        <time>2008-09-07T07:22:17Z</time>
      </trkpt>
      <trkpt lat="43.16151" lon="2.46467">
        <ele>209.733444</ele>
        <time>2008-09-07T07:22:29Z</time>
      </trkpt>
      <trkpt lat="43.16159" lon="2.46513">
        <ele>214.545929</ele>
        <time>2008-09-07T07:22:43Z</time>
      </trkpt>
      <trkpt lat="43.1615" lon="2.46541">
        <ele>216.679062</ele>
        <time>2008-09-07T07:22:53Z</time>
      </trkpt>
      <trkpt lat="43.1614" lon="2.46581">
        <ele>217.808533</ele>
        <time>2008-09-07T07:23:07Z</time>
      </trkpt>
      <trkpt lat="43.16141" lon="2.46615">
        <ele>218.292801</ele>
        <time>2008-09-07T07:23:19Z</time>
      </trkpt>
      <trkpt lat="43.16147" lon="2.46662">
        <ele>217.677338</ele>
        <time>2008-09-07T07:23:37Z</time>
      </trkpt>
      <trkpt lat="43.16151" lon="2.46672">
        <ele>217.5737</ele>
        <time>2008-09-07T07:23:45Z</time>
      </trkpt>
      <trkpt lat="43.16149" lon="2.46687">
        <ele>218.323441</ele>
        <time>2008-09-07T07:24:06Z</time>
      </trkpt>
      <trkpt lat="43.16142" lon="2.46716">
        <ele>219.827347</ele>
        <time>2008-09-07T07:24:16Z</time>
      </trkpt>
      <trkpt lat="43.16132" lon="2.46737">
        <ele>220.891495</ele>
        <time>2008-09-07T07:24:25Z</time>
      </trkpt>
      <trkpt lat="43.16127" lon="2.4677">
        <ele>221.845108</ele>
        <time>2008-09-07T07:24:36Z</time>
      </trkpt>
      <trkpt lat="43.16127" lon="2.4679">
        <ele>222.434998</ele>
        <time>2008-09-07T07:24:44Z</time>
      </trkpt>
      <trkpt lat="43.16119" lon="2.4681">
        <ele>223.857498</ele>
        <time>2008-09-07T07:24:54Z</time>
      </trkpt>
      <trkpt lat="43.16122" lon="2.46842">
        <ele>228.419998</ele>
        <time>2008-09-07T07:25:06Z</time>
      </trkpt>
      <trkpt lat="43.16117" lon="2.46879">
        <ele>230.973602</ele>
        <time>2008-09-07T07:25:19Z</time>
      </trkpt>
      <trkpt lat="43.16109" lon="2.46913">
        <ele>232.338745</ele>
        <time>2008-09-07T07:25:32Z</time>
      </trkpt>
      <trkpt lat="43.1611" lon="2.46925">
        <ele>233.648376</ele>
        <time>2008-09-07T07:26:28Z</time>
      </trkpt>
      <trkpt lat="43.16104" lon="2.46937">
        <ele>235.679123</ele>
        <time>2008-09-07T07:26:35Z</time>
      </trkpt>
      <trkpt lat="43.16092" lon="2.46951">
        <ele>237.335754</ele>
        <time>2008-09-07T07:26:46Z</time>
      </trkpt>
      <trkpt lat="43.16078" lon="2.46977">
        <ele>238.114655</ele>
        <time>2008-09-07T07:27:32Z</time>
      </trkpt>
      <trkpt lat="43.16076" lon="2.46982">
        <ele>238.381561</ele>
        <time>2008-09-07T07:27:52Z</time>
      </trkpt>
      <trkpt lat="43.16062" lon="2.46992">
        <ele>238.492813</ele>
        <time>2008-09-07T07:28:02Z</time>
      </trkpt>
      <trkpt lat="43.16052" lon="2.46996">
        <ele>239.454056</ele>
        <time>2008-09-07T07:28:10Z</time>
      </trkpt>
      <trkpt lat="43.16038" lon="2.46991">
        <ele>240.375473</ele>
        <time>2008-09-07T07:28:21Z</time>
      </trkpt>
      <trkpt lat="43.16011" lon="2.46996">
        <ele>243.640869</ele>
        <time>2008-09-07T07:28:40Z</time>
      </trkpt>
      <trkpt lat="43.16007" lon="2.46995">
        <ele>244.411331</ele>
        <time>2008-09-07T07:28:54Z</time>
      </trkpt>
      <trkpt lat="43.15994" lon="2.47028">
        <ele>247.074692</ele>
        <time>2008-09-07T07:29:05Z</time>
      </trkpt>
      <trkpt lat="43.15989" lon="2.47058">
        <ele>249.18721</ele>
        <time>2008-09-07T07:29:14Z</time>
      </trkpt>
      <trkpt lat="43.15982" lon="2.47081">
        <ele>250.217056</ele>
        <time>2008-09-07T07:29:21Z</time>
      </trkpt>
      <trkpt lat="43.1595" lon="2.47147">
        <ele>254.35553</ele>
        <time>2008-09-07T07:30:00Z</time>
      </trkpt>
      <trkpt lat="43.15942" lon="2.47159">
        <ele>254.309128</ele>
        <time>2008-09-07T07:30:07Z</time>
      </trkpt>
      <trkpt lat="43.15935" lon="2.47173">
        <ele>254.529144</ele>
        <time>2008-09-07T07:30:13Z</time>
      </trkpt>
      <trkpt lat="43.15922" lon="2.47193">
        <ele>255.361069</ele>
        <time>2008-09-07T07:30:37Z</time>
      </trkpt>
      <trkpt lat="43.15916" lon="2.47204">
        <ele>255.777039</ele>
        <time>2008-09-07T07:30:44Z</time>
      </trkpt>
      <trkpt lat="43.15903" lon="2.47214">
        <ele>256.348633</ele>
        <time>2008-09-07T07:30:51Z</time>
      </trkpt>
      <trkpt lat="43.15888" lon="2.47229">
        <ele>257.138184</ele>
        <time>2008-09-07T07:30:59Z</time>
      </trkpt>
      <trkpt lat="43.15882" lon="2.47238">
        <ele>257.554413</ele>
        <time>2008-09-07T07:31:14Z</time>
      </trkpt>
      <trkpt lat="43.15849" lon="2.47262">
        <ele>258.70166</ele>
        <time>2008-09-07T07:31:31Z</time>
      </trkpt>
      <trkpt lat="43.15834" lon="2.47277">
        <ele>258.602844</ele>
        <time>2008-09-07T07:31:40Z</time>
      </trkpt>
      <trkpt lat="43.15824" lon="2.47293">
        <ele>259.447021</ele>
        <time>2008-09-07T07:31:48Z</time>
      </trkpt>
      <trkpt lat="43.15805" lon="2.47334">
        <ele>260.22876</ele>
        <time>2008-09-07T07:32:04Z</time>
      </trkpt>
      <trkpt lat="43.15806" lon="2.47359">
        <ele>260.757538</ele>
        <time>2008-09-07T07:32:11Z</time>
      </trkpt>
      <trkpt lat="43.15792" lon="2.4741">
        <ele>261.748718</ele>
        <time>2008-09-07T07:32:26Z</time>
      </trkpt>
      <trkpt lat="43.15789" lon="2.47427">
        <ele>263.299438</ele>
        <time>2008-09-07T07:32:32Z</time>
      </trkpt>
      <trkpt lat="43.15781" lon="2.47436">
        <ele>263.871735</ele>
        <time>2008-09-07T07:32:38Z</time>
      </trkpt>
      <trkpt lat="43.15779" lon="2.47455">
        <ele>265.160339</ele>
        <time>2008-09-07T07:32:45Z</time>
      </trkpt>
      <trkpt lat="43.15779" lon="2.47478">
        <ele>266.68808</ele>
        <time>2008-09-07T07:32:53Z</time>
      </trkpt>
      <trkpt lat="43.15775" lon="2.47494">
        <ele>267.359131</ele>
        <time>2008-09-07T07:32:59Z</time>
      </trkpt>
      <trkpt lat="43.15761" lon="2.47518">
        <ele>267.513824</ele>
        <time>2008-09-07T07:33:08Z</time>
      </trkpt>
      <trkpt lat="43.15771" lon="2.47535">
        <ele>269.132111</ele>
        <time>2008-09-07T07:33:15Z</time>
      </trkpt>
      <trkpt lat="43.15788" lon="2.47564">
        <ele>272.133148</ele>
        <time>2008-09-07T07:33:27Z</time>
      </trkpt>
      <trkpt lat="43.15807" lon="2.47599">
        <ele>275.906433</ele>
        <time>2008-09-07T07:33:40Z</time>
      </trkpt>
      <trkpt lat="43.15819" lon="2.47633">
        <ele>279.224426</ele>
        <time>2008-09-07T07:33:55Z</time>
      </trkpt>
      <trkpt lat="43.15833" lon="2.47646">
        <ele>281.856598</ele>
        <time>2008-09-07T07:34:05Z</time>
      </trkpt>
      <trkpt lat="43.15856" lon="2.47667">
        <ele>286.154419</ele>
        <time>2008-09-07T07:34:22Z</time>
      </trkpt>
      <trkpt lat="43.15866" lon="2.47678">
        <ele>288.100342</ele>
        <time>2008-09-07T07:34:31Z</time>
      </trkpt>
      <trkpt lat="43.15887" lon="2.47698">
        <ele>291.872498</ele>
        <time>2008-09-07T07:34:49Z</time>
      </trkpt>
      <trkpt lat="43.15905" lon="2.47711">
        <ele>295.008209</ele>
        <time>2008-09-07T07:35:03Z</time>
      </trkpt>
      <trkpt lat="43.1592" lon="2.47736">
        <ele>297.94104</ele>
        <time>2008-09-07T07:35:19Z</time>
      </trkpt>
      <trkpt lat="43.15939" lon="2.47763">
        <ele>301.107513</ele>
        <time>2008-09-07T07:35:34Z</time>
      </trkpt>
      <trkpt lat="43.15954" lon="2.47795">
        <ele>304.407501</ele>
        <time>2008-09-07T07:35:48Z</time>
      </trkpt>
      <trkpt lat="43.15975" lon="2.47824">
        <ele>308.702515</ele>
        <time>2008-09-07T07:36:05Z</time>
      </trkpt>
      <trkpt lat="43.1599" lon="2.47849">
        <ele>311.523193</ele>
        <time>2008-09-07T07:36:18Z</time>
      </trkpt>
      <trkpt lat="43.16007" lon="2.47884">
        <ele>315.488831</ele>
        <time>2008-09-07T07:36:36Z</time>
      </trkpt>
      <trkpt lat="43.16022" lon="2.47912">
        <ele>318.456238</ele>
        <time>2008-09-07T07:36:50Z</time>
      </trkpt>
      <trkpt lat="43.16037" lon="2.47947">
        <ele>320.356262</ele>
        <time>2008-09-07T07:37:07Z</time>
      </trkpt>
      <trkpt lat="43.16052" lon="2.4799">
        <ele>322.451263</ele>
        <time>2008-09-07T07:37:24Z</time>
      </trkpt>
      <trkpt lat="43.16077" lon="2.48017">
        <ele>324.521851</ele>
        <time>2008-09-07T07:37:39Z</time>
      </trkpt>
      <trkpt lat="43.16095" lon="2.48044">
        <ele>326.054108</ele>
        <time>2008-09-07T07:37:52Z</time>
      </trkpt>
      <trkpt lat="43.16116" lon="2.48081">
        <ele>328.268188</ele>
        <time>2008-09-07T07:38:09Z</time>
      </trkpt>
      <trkpt lat="43.16176" lon="2.48144">
        <ele>335.771179</ele>
        <time>2008-09-07T07:38:46Z</time>
      </trkpt>
      <trkpt lat="43.16202" lon="2.48176">
        <ele>340.612457</ele>
        <time>2008-09-07T07:39:03Z</time>
      </trkpt>
      <trkpt lat="43.1623" lon="2.48209">
        <ele>343.92749</ele>
        <time>2008-09-07T07:39:21Z</time>
      </trkpt>
      <trkpt lat="43.16252" lon="2.48221">
        <ele>344.719543</ele>
        <time>2008-09-07T07:39:33Z</time>
      </trkpt>
      <trkpt lat="43.16271" lon="2.48247">
        <ele>346.387421</ele>
        <time>2008-09-07T07:39:46Z</time>
      </trkpt>
      <trkpt lat="43.16297" lon="2.4828">
        <ele>349.161255</ele>
        <time>2008-09-07T07:40:02Z</time>
      </trkpt>
      <trkpt lat="43.16303" lon="2.48297">
        <ele>350.257507</ele>
        <time>2008-09-07T07:40:08Z</time>
      </trkpt>
      <trkpt lat="43.16334" lon="2.48319">
        <ele>352.732513</ele>
        <time>2008-09-07T07:40:23Z</time>
      </trkpt>
      <trkpt lat="43.16365" lon="2.48406">
        <ele>360.848938</ele>
        <time>2008-09-07T07:40:55Z</time>
      </trkpt>
      <trkpt lat="43.16381" lon="2.48441">
        <ele>364.567719</ele>
        <time>2008-09-07T07:41:11Z</time>
      </trkpt>
      <trkpt lat="43.16397" lon="2.48461">
        <ele>366.459991</ele>
        <time>2008-09-07T07:41:19Z</time>
      </trkpt>
      <trkpt lat="43.16403" lon="2.48474">
        <ele>367.413757</ele>
        <time>2008-09-07T07:41:26Z</time>
      </trkpt>
      <trkpt lat="43.16408" lon="2.48497">
        <ele>368.748749</ele>
        <time>2008-09-07T07:41:35Z</time>
      </trkpt>
      <trkpt lat="43.16416" lon="2.48522">
        <ele>370.285004</ele>
        <time>2008-09-07T07:41:45Z</time>
      </trkpt>
      <trkpt lat="43.16434" lon="2.48564">
        <ele>373.147491</ele>
        <time>2008-09-07T07:42:02Z</time>
      </trkpt>
      <trkpt lat="43.16455" lon="2.48625">
        <ele>376.463837</ele>
        <time>2008-09-07T07:42:28Z</time>
      </trkpt>
      <trkpt lat="43.16477" lon="2.48683">
        <ele>380.187988</ele>
        <time>2008-09-07T07:42:58Z</time>
      </trkpt>
      <trkpt lat="43.16491" lon="2.48705">
        <ele>380.769073</ele>
        <time>2008-09-07T07:43:12Z</time>
      </trkpt>
      <trkpt lat="43.16488" lon="2.48723">
        <ele>381.260468</ele>
        <time>2008-09-07T07:43:25Z</time>
      </trkpt>
      <trkpt lat="43.16487" lon="2.48744">
        <ele>381.765167</ele>
        <time>2008-09-07T07:43:36Z</time>
      </trkpt>
      <trkpt lat="43.165" lon="2.48773">
        <ele>382.085846</ele>
        <time>2008-09-07T07:43:52Z</time>
      </trkpt>
      <trkpt lat="43.16504" lon="2.48792">
        <ele>382.125824</ele>
        <time>2008-09-07T07:44:01Z</time>
      </trkpt>
      <trkpt lat="43.16512" lon="2.48802">
        <ele>382.023163</ele>
        <time>2008-09-07T07:44:08Z</time>
      </trkpt>
      <trkpt lat="43.16511" lon="2.48813">
        <ele>382.042969</ele>
        <time>2008-09-07T07:44:15Z</time>
      </trkpt>
      <trkpt lat="43.16517" lon="2.4883">
        <ele>381.912506</ele>
        <time>2008-09-07T07:44:24Z</time>
      </trkpt>
      <trkpt lat="43.1653" lon="2.48853">
        <ele>381.61499</ele>
        <time>2008-09-07T07:44:36Z</time>
      </trkpt>
      <trkpt lat="43.16534" lon="2.4887">
        <ele>381.524994</ele>
        <time>2008-09-07T07:44:46Z</time>
      </trkpt>
      <trkpt lat="43.16535" lon="2.48886">
        <ele>381.727966</ele>
        <time>2008-09-07T07:44:54Z</time>
      </trkpt>
      <trkpt lat="43.16547" lon="2.48928">
        <ele>382.249359</ele>
        <time>2008-09-07T07:45:08Z</time>
      </trkpt>
      <trkpt lat="43.16553" lon="2.48956">
        <ele>382.737793</ele>
        <time>2008-09-07T07:45:18Z</time>
      </trkpt>
      <trkpt lat="43.16556" lon="2.48983">
        <ele>383.488983</ele>
        <time>2008-09-07T07:45:29Z</time>
      </trkpt>
      <trkpt lat="43.16566" lon="2.48993">
        <ele>383.019409</ele>
        <time>2008-09-07T07:45:36Z</time>
      </trkpt>
      <trkpt lat="43.16569" lon="2.48994">
        <ele>382.855621</ele>
        <time>2008-09-07T07:45:48Z</time>
      </trkpt>
      <trkpt lat="43.16567" lon="2.49005">
        <ele>383.184784</ele>
        <time>2008-09-07T07:45:57Z</time>
      </trkpt>
      <trkpt lat="43.16571" lon="2.49024">
        <ele>383.031433</ele>
        <time>2008-09-07T07:46:05Z</time>
      </trkpt>
      <trkpt lat="43.16578" lon="2.49042">
        <ele>382.582947</ele>
        <time>2008-09-07T07:46:13Z</time>
      </trkpt>
      <trkpt lat="43.16594" lon="2.49051">
        <ele>380.966003</ele>
        <time>2008-09-07T07:46:24Z</time>
      </trkpt>
      <trkpt lat="43.16629" lon="2.4906">
        <ele>373.008514</ele>
        <time>2008-09-07T07:47:06Z</time>
      </trkpt>
      <trkpt lat="43.16632" lon="2.4907">
        <ele>371.075043</ele>
        <time>2008-09-07T07:47:17Z</time>
      </trkpt>
      <trkpt lat="43.16632" lon="2.49074">
        <ele>370.547699</ele>
        <time>2008-09-07T07:47:21Z</time>
      </trkpt>
      <trkpt lat="43.16627" lon="2.49086">
        <ele>370.723541</ele>
        <time>2008-09-07T07:47:32Z</time>
      </trkpt>
      <trkpt lat="43.16619" lon="2.49106">
        <ele>371.186401</ele>
        <time>2008-09-07T07:47:59Z</time>
      </trkpt>
      <trkpt lat="43.16604" lon="2.49132">
        <ele>373.664246</ele>
        <time>2008-09-07T07:48:12Z</time>
      </trkpt>
      <trkpt lat="43.16587" lon="2.49141">
        <ele>374.402985</ele>
        <time>2008-09-07T07:48:21Z</time>
      </trkpt>
      <trkpt lat="43.16581" lon="2.4914">
        <ele>375.503662</ele>
        <time>2008-09-07T07:48:25Z</time>
      </trkpt>
      <trkpt lat="43.16559" lon="2.4914">
        <ele>378.546204</ele>
        <time>2008-09-07T07:48:39Z</time>
      </trkpt>
      <trkpt lat="43.16526" lon="2.49133">
        <ele>381.386108</ele>
        <time>2008-09-07T07:49:05Z</time>
      </trkpt>
      <trkpt lat="43.16523" lon="2.49134">
        <ele>381.401428</ele>
        <time>2008-09-07T07:49:14Z</time>
      </trkpt>
      <trkpt lat="43.16517" lon="2.49132">
        <ele>381.856506</ele>
        <time>2008-09-07T07:49:41Z</time>
      </trkpt>
      <trkpt lat="43.16506" lon="2.49133">
        <ele>382.204834</ele>
        <time>2008-09-07T07:49:47Z</time>
      </trkpt>
      <trkpt lat="43.16474" lon="2.49125">
        <ele>383.701874</ele>
        <time>2008-09-07T07:50:03Z</time>
      </trkpt>
      <trkpt lat="43.16445" lon="2.49129">
        <ele>383.780853</ele>
        <time>2008-09-07T07:50:16Z</time>
      </trkpt>
      <trkpt lat="43.16396" lon="2.49166">
        <ele>383.470306</ele>
        <time>2008-09-07T07:50:41Z</time>
      </trkpt>
      <trkpt lat="43.16378" lon="2.49167">
        <ele>383.566071</ele>
        <time>2008-09-07T07:50:47Z</time>
      </trkpt>
      <trkpt lat="43.16353" lon="2.49188">
        <ele>383.272491</ele>
        <time>2008-09-07T07:50:57Z</time>
      </trkpt>
      <trkpt lat="43.16326" lon="2.49201">
        <ele>383.097687</ele>
        <time>2008-09-07T07:51:07Z</time>
      </trkpt>
      <trkpt lat="43.16308" lon="2.49203">
        <ele>383.433838</ele>
        <time>2008-09-07T07:51:13Z</time>
      </trkpt>
      <trkpt lat="43.1627" lon="2.4922">
        <ele>383.855927</ele>
        <time>2008-09-07T07:51:24Z</time>
      </trkpt>
      <trkpt lat="43.16185" lon="2.49272">
        <ele>377.600708</ele>
        <time>2008-09-07T07:51:49Z</time>
      </trkpt>
      <trkpt lat="43.16166" lon="2.49281">
        <ele>375.698364</ele>
        <time>2008-09-07T07:51:56Z</time>
      </trkpt>
      <trkpt lat="43.16146" lon="2.49294">
        <ele>373.34375</ele>
        <time>2008-09-07T07:52:08Z</time>
      </trkpt>
      <trkpt lat="43.16115" lon="2.49312">
        <ele>370.287689</ele>
        <time>2008-09-07T07:52:22Z</time>
      </trkpt>
      <trkpt lat="43.16103" lon="2.49313">
        <ele>369.824738</ele>
        <time>2008-09-07T07:52:26Z</time>
      </trkpt>
      <trkpt lat="43.16078" lon="2.4933">
        <ele>367.667999</ele>
        <time>2008-09-07T07:52:33Z</time>
      </trkpt>
      <trkpt lat="43.16063" lon="2.49339">
        <ele>367.369598</ele>
        <time>2008-09-07T07:52:39Z</time>
      </trkpt>
      <trkpt lat="43.16041" lon="2.49352">
        <ele>365.86618</ele>
        <time>2008-09-07T07:52:45Z</time>
      </trkpt>
      <trkpt lat="43.16034" lon="2.49354">
        <ele>365.567719</ele>
        <time>2008-09-07T07:52:57Z</time>
      </trkpt>
      <trkpt lat="43.16022" lon="2.49361">
        <ele>365.125275</ele>
        <time>2008-09-07T07:53:08Z</time>
      </trkpt>
      <trkpt lat="43.16006" lon="2.49397">
        <ele>364.23172</ele>
        <time>2008-09-07T07:53:19Z</time>
      </trkpt>
      <trkpt lat="43.15974" lon="2.49445">
        <ele>364</ele>
        <time>2008-09-07T07:53:32Z</time>
      </trkpt>
      <trkpt lat="43.15949" lon="2.49475">
        <ele>362.822998</ele>
        <time>2008-09-07T07:53:39Z</time>
      </trkpt>
      <trkpt lat="43.15945" lon="2.49504">
        <ele>363.247498</ele>
        <time>2008-09-07T07:53:44Z</time>
      </trkpt>
      <trkpt lat="43.15942" lon="2.49571">
        <ele>364.730804</ele>
        <time>2008-09-07T07:53:55Z</time>
      </trkpt>
      <trkpt lat="43.15924" lon="2.49639">
        <ele>363.537506</ele>
        <time>2008-09-07T07:54:04Z</time>
      </trkpt>
      <trkpt lat="43.15922" lon="2.49688">
        <ele>363.880005</ele>
        <time>2008-09-07T07:54:12Z</time>
      </trkpt>
      <trkpt lat="43.15935" lon="2.49711">
        <ele>366.002502</ele>
        <time>2008-09-07T07:54:20Z</time>
      </trkpt>
      <trkpt lat="43.15949" lon="2.49767">
        <ele>370.023743</ele>
        <time>2008-09-07T07:54:35Z</time>
      </trkpt>
      <trkpt lat="43.1596" lon="2.49833">
        <ele>374.776184</ele>
        <time>2008-09-07T07:54:50Z</time>
      </trkpt>
      <trkpt lat="43.15962" lon="2.4989">
        <ele>378.585114</ele>
        <time>2008-09-07T07:55:05Z</time>
      </trkpt>
      <trkpt lat="43.15965" lon="2.49941">
        <ele>382.320007</ele>
        <time>2008-09-07T07:55:21Z</time>
      </trkpt>
      <trkpt lat="43.15967" lon="2.49988">
        <ele>385.511261</ele>
        <time>2008-09-07T07:55:37Z</time>
      </trkpt>
      <trkpt lat="43.15977" lon="2.50044">
        <ele>389.95752</ele>
        <time>2008-09-07T07:55:56Z</time>
      </trkpt>
      <trkpt lat="43.15987" lon="2.50082">
        <ele>393.027496</ele>
        <time>2008-09-07T07:56:09Z</time>
      </trkpt>
      <trkpt lat="43.15998" lon="2.50117">
        <ele>396.063141</ele>
        <time>2008-09-07T07:56:21Z</time>
      </trkpt>
      <trkpt lat="43.16009" lon="2.50159">
        <ele>399.372131</ele>
        <time>2008-09-07T07:56:34Z</time>
      </trkpt>
      <trkpt lat="43.1602" lon="2.50209">
        <ele>402.368317</ele>
        <time>2008-09-07T07:56:49Z</time>
      </trkpt>
      <trkpt lat="43.16023" lon="2.50251">
        <ele>404.411255</ele>
        <time>2008-09-07T07:57:01Z</time>
      </trkpt>
      <trkpt lat="43.16029" lon="2.50291">
        <ele>407.597504</ele>
        <time>2008-09-07T07:57:14Z</time>
      </trkpt>
      <trkpt lat="43.16043" lon="2.5033">
        <ele>411.067505</ele>
        <time>2008-09-07T07:57:30Z</time>
      </trkpt>
      <trkpt lat="43.16056" lon="2.50372">
        <ele>413.968597</ele>
        <time>2008-09-07T07:57:47Z</time>
      </trkpt>
      <trkpt lat="43.16072" lon="2.50385">
        <ele>417.124481</ele>
        <time>2008-09-07T07:57:59Z</time>
      </trkpt>
      <trkpt lat="43.16104" lon="2.50301">
        <ele>420.982544</ele>
        <time>2008-09-07T07:58:28Z</time>
      </trkpt>
      <trkpt lat="43.16122" lon="2.50276">
        <ele>422.111084</ele>
        <time>2008-09-07T07:58:39Z</time>
      </trkpt>
      <trkpt lat="43.16148" lon="2.50256">
        <ele>423.165192</ele>
        <time>2008-09-07T07:58:52Z</time>
      </trkpt>
      <trkpt lat="43.16161" lon="2.50285">
        <ele>425.692871</ele>
        <time>2008-09-07T07:59:04Z</time>
      </trkpt>
      <trkpt lat="43.16164" lon="2.5033">
        <ele>429.918488</ele>
        <time>2008-09-07T07:59:16Z</time>
      </trkpt>
      <trkpt lat="43.16164" lon="2.50408">
        <ele>436.006622</ele>
        <time>2008-09-07T07:59:43Z</time>
      </trkpt>
      <trkpt lat="43.16174" lon="2.50454">
        <ele>439.4646</ele>
        <time>2008-09-07T08:00:00Z</time>
      </trkpt>
      <trkpt lat="43.16179" lon="2.50475">
        <ele>441.344177</ele>
        <time>2008-09-07T08:00:08Z</time>
      </trkpt>
      <trkpt lat="43.16186" lon="2.50515">
        <ele>443.992493</ele>
        <time>2008-09-07T08:00:24Z</time>
      </trkpt>
      <trkpt lat="43.1619" lon="2.50564">
        <ele>445.597504</ele>
        <time>2008-09-07T08:00:41Z</time>
      </trkpt>
      <trkpt lat="43.16207" lon="2.5061">
        <ele>449.040924</ele>
        <time>2008-09-07T08:00:58Z</time>
      </trkpt>
      <trkpt lat="43.16226" lon="2.50643">
        <ele>451.507416</ele>
        <time>2008-09-07T08:01:13Z</time>
      </trkpt>
      <trkpt lat="43.16251" lon="2.50664">
        <ele>456.557495</ele>
        <time>2008-09-07T08:01:28Z</time>
      </trkpt>
      <trkpt lat="43.16269" lon="2.50673">
        <ele>460.902496</ele>
        <time>2008-09-07T08:01:41Z</time>
      </trkpt>
      <trkpt lat="43.16285" lon="2.50687">
        <ele>464.862488</ele>
        <time>2008-09-07T08:01:55Z</time>
      </trkpt>
      <trkpt lat="43.163" lon="2.50759">
        <ele>468.922241</ele>
        <time>2008-09-07T08:02:32Z</time>
      </trkpt>
      <trkpt lat="43.16308" lon="2.50764">
        <ele>470.951874</ele>
        <time>2008-09-07T08:02:39Z</time>
      </trkpt>
      <trkpt lat="43.16312" lon="2.50749">
        <ele>471.617828</ele>
        <time>2008-09-07T08:02:47Z</time>
      </trkpt>
      <trkpt lat="43.16326" lon="2.507">
        <ele>474.548645</ele>
        <time>2008-09-07T08:03:07Z</time>
      </trkpt>
      <trkpt lat="43.16341" lon="2.50651">
        <ele>477.50885</ele>
        <time>2008-09-07T08:03:26Z</time>
      </trkpt>
      <trkpt lat="43.16354" lon="2.50644">
        <ele>480.540802</ele>
        <time>2008-09-07T08:03:37Z</time>
      </trkpt>
      <trkpt lat="43.16359" lon="2.50671">
        <ele>481.687134</ele>
        <time>2008-09-07T08:03:48Z</time>
      </trkpt>
      <trkpt lat="43.16364" lon="2.50713">
        <ele>484.046661</ele>
        <time>2008-09-07T08:04:05Z</time>
      </trkpt>
      <trkpt lat="43.16371" lon="2.50746">
        <ele>485.46637</ele>
        <time>2008-09-07T08:04:17Z</time>
      </trkpt>
      <trkpt lat="43.16379" lon="2.50742">
        <ele>487.426849</ele>
        <time>2008-09-07T08:04:22Z</time>
      </trkpt>
      <trkpt lat="43.16397" lon="2.50689">
        <ele>491.046112</ele>
        <time>2008-09-07T08:04:41Z</time>
      </trkpt>
      <trkpt lat="43.16423" lon="2.50631">
        <ele>495.433441</ele>
        <time>2008-09-07T08:05:04Z</time>
      </trkpt>
      <trkpt lat="43.16448" lon="2.50586">
        <ele>497.148834</ele>
        <time>2008-09-07T08:05:23Z</time>
      </trkpt>
      <trkpt lat="43.16471" lon="2.50548">
        <ele>498.625</ele>
        <time>2008-09-07T08:05:39Z</time>
      </trkpt>
      <trkpt lat="43.16484" lon="2.50542">
        <ele>498.968933</ele>
        <time>2008-09-07T08:05:47Z</time>
      </trkpt>
      <trkpt lat="43.16485" lon="2.50589">
        <ele>499.877106</ele>
        <time>2008-09-07T08:06:01Z</time>
      </trkpt>
      <trkpt lat="43.16483" lon="2.50638">
        <ele>500.417267</ele>
        <time>2008-09-07T08:06:16Z</time>
      </trkpt>
      <trkpt lat="43.16485" lon="2.50699">
        <ele>500.557495</ele>
        <time>2008-09-07T08:06:32Z</time>
      </trkpt>
      <trkpt lat="43.16498" lon="2.50755">
        <ele>500.11377</ele>
        <time>2008-09-07T08:06:48Z</time>
      </trkpt>
      <trkpt lat="43.16504" lon="2.50801">
        <ele>499.611816</ele>
        <time>2008-09-07T08:06:59Z</time>
      </trkpt>
      <trkpt lat="43.16503" lon="2.50819">
        <ele>499.25824</ele>
        <time>2008-09-07T08:07:04Z</time>
      </trkpt>
      <trkpt lat="43.16506" lon="2.5086">
        <ele>495.945709</ele>
        <time>2008-09-07T08:07:13Z</time>
      </trkpt>
      <trkpt lat="43.16508" lon="2.50876">
        <ele>493.32016</ele>
        <time>2008-09-07T08:07:17Z</time>
      </trkpt>
      <trkpt lat="43.16495" lon="2.50926">
        <ele>487.117188</ele>
        <time>2008-09-07T08:07:26Z</time>
      </trkpt>
      <trkpt lat="43.16488" lon="2.50966">
        <ele>483.25827</ele>
        <time>2008-09-07T08:07:32Z</time>
      </trkpt>
      <trkpt lat="43.16483" lon="2.51002">
        <ele>481.748169</ele>
        <time>2008-09-07T08:07:37Z</time>
      </trkpt>
      <trkpt lat="43.16469" lon="2.51044">
        <ele>483.068573</ele>
        <time>2008-09-07T08:07:44Z</time>
      </trkpt>
      <trkpt lat="43.1646" lon="2.51093">
        <ele>482.933044</ele>
        <time>2008-09-07T08:07:53Z</time>
      </trkpt>
      <trkpt lat="43.16454" lon="2.51132">
        <ele>481.916229</ele>
        <time>2008-09-07T08:08:04Z</time>
      </trkpt>
      <trkpt lat="43.16425" lon="2.51131">
        <ele>485.145264</ele>
        <time>2008-09-07T08:08:14Z</time>
      </trkpt>
      <trkpt lat="43.16397" lon="2.51162">
        <ele>483.95578</ele>
        <time>2008-09-07T08:08:22Z</time>
      </trkpt>
      <trkpt lat="43.16397" lon="2.51187">
        <ele>484.006836</ele>
        <time>2008-09-07T08:08:28Z</time>
      </trkpt>
      <trkpt lat="43.16413" lon="2.51203">
        <ele>484.802948</ele>
        <time>2008-09-07T08:08:37Z</time>
      </trkpt>
      <trkpt lat="43.16436" lon="2.51221">
        <ele>480.599182</ele>
        <time>2008-09-07T08:08:48Z</time>
      </trkpt>
      <trkpt lat="43.16433" lon="2.51279">
        <ele>479.615601</ele>
        <time>2008-09-07T08:08:59Z</time>
      </trkpt>
      <trkpt lat="43.16425" lon="2.51345">
        <ele>480.620636</ele>
        <time>2008-09-07T08:09:10Z</time>
      </trkpt>
      <trkpt lat="43.16422" lon="2.514">
        <ele>479.274231</ele>
        <time>2008-09-07T08:09:19Z</time>
      </trkpt>
      <trkpt lat="43.16421" lon="2.51432">
        <ele>478.424377</ele>
        <time>2008-09-07T08:09:25Z</time>
      </trkpt>
      <trkpt lat="43.16417" lon="2.51464">
        <ele>478.188202</ele>
        <time>2008-09-07T08:09:32Z</time>
      </trkpt>
      <trkpt lat="43.16418" lon="2.51479">
        <ele>476.674225</ele>
        <time>2008-09-07T08:09:36Z</time>
      </trkpt>
      <trkpt lat="43.16411" lon="2.5151">
        <ele>474.672974</ele>
        <time>2008-09-07T08:09:44Z</time>
      </trkpt>
      <trkpt lat="43.16409" lon="2.51546">
        <ele>473.47403</ele>
        <time>2008-09-07T08:09:50Z</time>
      </trkpt>
      <trkpt lat="43.16401" lon="2.51575">
        <ele>473.402588</ele>
        <time>2008-09-07T08:09:56Z</time>
      </trkpt>
      <trkpt lat="43.16379" lon="2.51597">
        <ele>473.986694</ele>
        <time>2008-09-07T08:10:03Z</time>
      </trkpt>
      <trkpt lat="43.16364" lon="2.51614">
        <ele>473.385193</ele>
        <time>2008-09-07T08:10:09Z</time>
      </trkpt>
      <trkpt lat="43.16364" lon="2.51637">
        <ele>471.026489</ele>
        <time>2008-09-07T08:10:14Z</time>
      </trkpt>
      <trkpt lat="43.16369" lon="2.51678">
        <ele>466.88855</ele>
        <time>2008-09-07T08:10:22Z</time>
      </trkpt>
      <trkpt lat="43.16359" lon="2.51707">
        <ele>466.043488</ele>
        <time>2008-09-07T08:10:31Z</time>
      </trkpt>
      <trkpt lat="43.16363" lon="2.51719">
        <ele>464.482483</ele>
        <time>2008-09-07T08:10:39Z</time>
      </trkpt>
      <trkpt lat="43.16374" lon="2.51716">
        <ele>462.494843</ele>
        <time>2008-09-07T08:11:02Z</time>
      </trkpt>
      <trkpt lat="43.164" lon="2.51707">
        <ele>455.79248</ele>
        <time>2008-09-07T08:11:08Z</time>
      </trkpt>
      <trkpt lat="43.16418" lon="2.51699">
        <ele>451.222229</ele>
        <time>2008-09-07T08:11:14Z</time>
      </trkpt>
      <trkpt lat="43.16426" lon="2.51693">
        <ele>449.43689</ele>
        <time>2008-09-07T08:11:56Z</time>
      </trkpt>
      <trkpt lat="43.16438" lon="2.51694">
        <ele>445.051208</ele>
        <time>2008-09-07T08:12:04Z</time>
      </trkpt>
      <trkpt lat="43.16445" lon="2.51706">
        <ele>440.612549</ele>
        <time>2008-09-07T08:12:10Z</time>
      </trkpt>
      <trkpt lat="43.16466" lon="2.51715">
        <ele>431.16684</ele>
        <time>2008-09-07T08:12:25Z</time>
      </trkpt>
      <trkpt lat="43.16469" lon="2.51716">
        <ele>430.11969</ele>
        <time>2008-09-07T08:12:37Z</time>
      </trkpt>
      <trkpt lat="43.16473" lon="2.51718">
        <ele>428.322174</ele>
        <time>2008-09-07T08:12:39Z</time>
      </trkpt>
      <trkpt lat="43.16497" lon="2.51714">
        <ele>419.489532</ele>
        <time>2008-09-07T08:12:51Z</time>
      </trkpt>
      <trkpt lat="43.16519" lon="2.51704">
        <ele>413.132507</ele>
        <time>2008-09-07T08:13:00Z</time>
      </trkpt>
      <trkpt lat="43.16536" lon="2.51701">
        <ele>408.404999</ele>
        <time>2008-09-07T08:13:07Z</time>
      </trkpt>
      <trkpt lat="43.16556" lon="2.51703">
        <ele>401.954742</ele>
        <time>2008-09-07T08:13:15Z</time>
      </trkpt>
      <trkpt lat="43.16586" lon="2.51695">
        <ele>395.400848</ele>
        <time>2008-09-07T08:13:29Z</time>
      </trkpt>
      <trkpt lat="43.16598" lon="2.51703">
        <ele>391.682709</ele>
        <time>2008-09-07T08:13:37Z</time>
      </trkpt>
      <trkpt lat="43.16609" lon="2.51706">
        <ele>389.411743</ele>
        <time>2008-09-07T08:13:41Z</time>
      </trkpt>
      <trkpt lat="43.16627" lon="2.51706">
        <ele>386.6185</ele>
        <time>2008-09-07T08:13:47Z</time>
      </trkpt>
      <trkpt lat="43.16627" lon="2.51701">
        <ele>387.467499</ele>
        <time>2008-09-07T08:13:56Z</time>
      </trkpt>
      <trkpt lat="43.16629" lon="2.51702">
        <ele>386.90451</ele>
        <time>2008-09-07T08:19:57Z</time>
      </trkpt>
      <trkpt lat="43.16627" lon="2.51687">
        <ele>388.062103</ele>
        <time>2008-09-07T08:20:09Z</time>
      </trkpt>
      <trkpt lat="43.16623" lon="2.51677">
        <ele>389.005219</ele>
        <time>2008-09-07T08:20:17Z</time>
      </trkpt>
      <trkpt lat="43.1664" lon="2.51675">
        <ele>385.943665</ele>
        <time>2008-09-07T08:20:30Z</time>
      </trkpt>
      <trkpt lat="43.16649" lon="2.51662">
        <ele>384.532166</ele>
        <time>2008-09-07T08:20:36Z</time>
      </trkpt>
      <trkpt lat="43.16669" lon="2.51658">
        <ele>380.126892</ele>
        <time>2008-09-07T08:20:46Z</time>
      </trkpt>
      <trkpt lat="43.16688" lon="2.51661">
        <ele>376.570618</ele>
        <time>2008-09-07T08:20:54Z</time>
      </trkpt>
      <trkpt lat="43.16727" lon="2.51658">
        <ele>364.793396</ele>
        <time>2008-09-07T08:21:09Z</time>
      </trkpt>
      <trkpt lat="43.16741" lon="2.5165">
        <ele>359.411194</ele>
        <time>2008-09-07T08:21:15Z</time>
      </trkpt>
      <trkpt lat="43.16749" lon="2.51644">
        <ele>356.370178</ele>
        <time>2008-09-07T08:21:19Z</time>
      </trkpt>
      <trkpt lat="43.16756" lon="2.51641">
        <ele>354.287384</ele>
        <time>2008-09-07T08:21:33Z</time>
      </trkpt>
      <trkpt lat="43.16771" lon="2.5164">
        <ele>350.63501</ele>
        <time>2008-09-07T08:21:40Z</time>
      </trkpt>
      <trkpt lat="43.16788" lon="2.51616">
        <ele>343.252594</ele>
        <time>2008-09-07T08:21:49Z</time>
      </trkpt>
      <trkpt lat="43.16805" lon="2.51591">
        <ele>334.985535</ele>
        <time>2008-09-07T08:21:55Z</time>
      </trkpt>
      <trkpt lat="43.16845" lon="2.51558">
        <ele>323.363464</ele>
        <time>2008-09-07T08:22:08Z</time>
      </trkpt>
      <trkpt lat="43.16856" lon="2.51548">
        <ele>320.583252</ele>
        <time>2008-09-07T08:22:14Z</time>
      </trkpt>
      <trkpt lat="43.1687" lon="2.51542">
        <ele>317.601746</ele>
        <time>2008-09-07T08:22:22Z</time>
      </trkpt>
      <trkpt lat="43.16876" lon="2.51529">
        <ele>314.63913</ele>
        <time>2008-09-07T08:22:27Z</time>
      </trkpt>
      <trkpt lat="43.16881" lon="2.51514">
        <ele>311.782867</ele>
        <time>2008-09-07T08:22:34Z</time>
      </trkpt>
      <trkpt lat="43.16889" lon="2.51491">
        <ele>307.575226</ele>
        <time>2008-09-07T08:22:42Z</time>
      </trkpt>
      <trkpt lat="43.16898" lon="2.51464">
        <ele>302.716888</ele>
        <time>2008-09-07T08:22:50Z</time>
      </trkpt>
      <trkpt lat="43.16908" lon="2.51426">
        <ele>292.804382</ele>
        <time>2008-09-07T08:22:57Z</time>
      </trkpt>
      <trkpt lat="43.16913" lon="2.51416">
        <ele>288.299988</ele>
        <time>2008-09-07T08:23:02Z</time>
      </trkpt>
      <trkpt lat="43.16915" lon="2.51417">
        <ele>287.804718</ele>
        <time>2008-09-07T08:23:09Z</time>
      </trkpt>
      <trkpt lat="43.16926" lon="2.51413">
        <ele>282.862122</ele>
        <time>2008-09-07T08:23:32Z</time>
      </trkpt>
      <trkpt lat="43.16928" lon="2.51421">
        <ele>284.412994</ele>
        <time>2008-09-07T08:23:40Z</time>
      </trkpt>
      <trkpt lat="43.16929" lon="2.51427">
        <ele>285.326263</ele>
        <time>2008-09-07T08:23:47Z</time>
      </trkpt>
      <trkpt lat="43.16932" lon="2.51426">
        <ele>284.099487</ele>
        <time>2008-09-07T08:23:51Z</time>
      </trkpt>
      <trkpt lat="43.16935" lon="2.51422">
        <ele>281.802124</ele>
        <time>2008-09-07T08:24:00Z</time>
      </trkpt>
      <trkpt lat="43.16945" lon="2.51429">
        <ele>279.792755</ele>
        <time>2008-09-07T08:24:09Z</time>
      </trkpt>
      <trkpt lat="43.1695" lon="2.51435">
        <ele>278.488495</ele>
        <time>2008-09-07T08:24:13Z</time>
      </trkpt>
      <trkpt lat="43.1697" lon="2.51449">
        <ele>272.801758</ele>
        <time>2008-09-07T08:24:21Z</time>
      </trkpt>
      <trkpt lat="43.1699" lon="2.51448">
        <ele>265.881561</ele>
        <time>2008-09-07T08:24:27Z</time>
      </trkpt>
      <trkpt lat="43.17015" lon="2.51456">
        <ele>258.588989</ele>
        <time>2008-09-07T08:24:34Z</time>
      </trkpt>
      <trkpt lat="43.17049" lon="2.51443">
        <ele>247.133209</ele>
        <time>2008-09-07T08:24:41Z</time>
      </trkpt>
      <trkpt lat="43.17065" lon="2.5144">
        <ele>245.541656</ele>
        <time>2008-09-07T08:24:45Z</time>
      </trkpt>
      <trkpt lat="43.17082" lon="2.51441">
        <ele>244.323151</ele>
        <time>2008-09-07T08:24:51Z</time>
      </trkpt>
      <trkpt lat="43.1709" lon="2.51436">
        <ele>243.168137</ele>
        <time>2008-09-07T08:24:57Z</time>
      </trkpt>
      <trkpt lat="43.17103" lon="2.51414">
        <ele>240.327499</ele>
        <time>2008-09-07T08:25:04Z</time>
      </trkpt>
      <trkpt lat="43.17114" lon="2.51403">
        <ele>238.787491</ele>
        <time>2008-09-07T08:25:12Z</time>
      </trkpt>
      <trkpt lat="43.17119" lon="2.51415">
        <ele>239.714996</ele>
        <time>2008-09-07T08:25:23Z</time>
      </trkpt>
      <trkpt lat="43.17122" lon="2.51419">
        <ele>240.024994</ele>
        <time>2008-09-07T08:25:27Z</time>
      </trkpt>
      <trkpt lat="43.1713" lon="2.51436">
        <ele>241.252502</ele>
        <time>2008-09-07T08:25:38Z</time>
      </trkpt>
      <trkpt lat="43.1713" lon="2.51439">
        <ele>241.524994</ele>
        <time>2008-09-07T08:25:47Z</time>
      </trkpt>
      <trkpt lat="43.17128" lon="2.51449">
        <ele>242.662506</ele>
        <time>2008-09-07T08:25:54Z</time>
      </trkpt>
      <trkpt lat="43.17137" lon="2.5148">
        <ele>240.37645</ele>
        <time>2008-09-07T08:26:07Z</time>
      </trkpt>
      <trkpt lat="43.17149" lon="2.51509">
        <ele>238.148758</ele>
        <time>2008-09-07T08:26:15Z</time>
      </trkpt>
      <trkpt lat="43.17148" lon="2.51528">
        <ele>235.722122</ele>
        <time>2008-09-07T08:26:25Z</time>
      </trkpt>
      <trkpt lat="43.17164" lon="2.51553">
        <ele>235.147079</ele>
        <time>2008-09-07T08:26:34Z</time>
      </trkpt>
      <trkpt lat="43.17173" lon="2.51574">
        <ele>235.501083</ele>
        <time>2008-09-07T08:26:41Z</time>
      </trkpt>
      <trkpt lat="43.17183" lon="2.51584">
        <ele>237.357452</ele>
        <time>2008-09-07T08:26:48Z</time>
      </trkpt>
      <trkpt lat="43.17191" lon="2.51574">
        <ele>238.379501</ele>
        <time>2008-09-07T08:27:10Z</time>
      </trkpt>
      <trkpt lat="43.17192" lon="2.51575">
        <ele>238.349121</ele>
        <time>2008-09-07T08:27:19Z</time>
      </trkpt>
      <trkpt lat="43.17195" lon="2.51584">
        <ele>237.833481</ele>
        <time>2008-09-07T08:27:34Z</time>
      </trkpt>
      <trkpt lat="43.17195" lon="2.51598">
        <ele>236.008255</ele>
        <time>2008-09-07T08:27:43Z</time>
      </trkpt>
      <trkpt lat="43.17201" lon="2.51641">
        <ele>232.207779</ele>
        <time>2008-09-07T08:27:53Z</time>
      </trkpt>
      <trkpt lat="43.17206" lon="2.51661">
        <ele>230.529724</ele>
        <time>2008-09-07T08:28:00Z</time>
      </trkpt>
      <trkpt lat="43.17205" lon="2.51676">
        <ele>228.290649</ele>
        <time>2008-09-07T08:28:08Z</time>
      </trkpt>
      <trkpt lat="43.17211" lon="2.51704">
        <ele>225.166931</ele>
        <time>2008-09-07T08:28:18Z</time>
      </trkpt>
      <trkpt lat="43.17219" lon="2.51738">
        <ele>221.150528</ele>
        <time>2008-09-07T08:28:26Z</time>
      </trkpt>
      <trkpt lat="43.17232" lon="2.51744">
        <ele>220.922852</ele>
        <time>2008-09-07T08:28:34Z</time>
      </trkpt>
      <trkpt lat="43.17244" lon="2.51738">
        <ele>220.845337</ele>
        <time>2008-09-07T08:28:47Z</time>
      </trkpt>
      <trkpt lat="43.17258" lon="2.51749">
        <ele>218.487305</ele>
        <time>2008-09-07T08:29:03Z</time>
      </trkpt>
      <trkpt lat="43.17263" lon="2.51761">
        <ele>216.712051</ele>
        <time>2008-09-07T08:29:09Z</time>
      </trkpt>
      <trkpt lat="43.17272" lon="2.51797">
        <ele>210.706848</ele>
        <time>2008-09-07T08:29:16Z</time>
      </trkpt>
      <trkpt lat="43.17279" lon="2.51828">
        <ele>204.626266</ele>
        <time>2008-09-07T08:29:22Z</time>
      </trkpt>
      <trkpt lat="43.17279" lon="2.5185">
        <ele>203.431503</ele>
        <time>2008-09-07T08:29:26Z</time>
      </trkpt>
      <trkpt lat="43.17286" lon="2.51857">
        <ele>202.098602</ele>
        <time>2008-09-07T08:29:36Z</time>
      </trkpt>
      <trkpt lat="43.17293" lon="2.51847">
        <ele>201.519196</ele>
        <time>2008-09-07T08:29:45Z</time>
      </trkpt>
      <trkpt lat="43.17296" lon="2.51853">
        <ele>200.847946</ele>
        <time>2008-09-07T08:29:50Z</time>
      </trkpt>
      <trkpt lat="43.17309" lon="2.51883">
        <ele>198.749878</ele>
        <time>2008-09-07T08:30:00Z</time>
      </trkpt>
      <trkpt lat="43.17311" lon="2.51928">
        <ele>197.684998</ele>
        <time>2008-09-07T08:30:16Z</time>
      </trkpt>
      <trkpt lat="43.17315" lon="2.51944">
        <ele>197.84137</ele>
        <time>2008-09-07T08:30:20Z</time>
      </trkpt>
      <trkpt lat="43.17324" lon="2.51985">
        <ele>193.937454</ele>
        <time>2008-09-07T08:30:28Z</time>
      </trkpt>
      <trkpt lat="43.17329" lon="2.52057">
        <ele>185.100372</ele>
        <time>2008-09-07T08:30:45Z</time>
      </trkpt>
      <trkpt lat="43.17333" lon="2.52081">
        <ele>182.40625</ele>
        <time>2008-09-07T08:30:49Z</time>
      </trkpt>
      <trkpt lat="43.17334" lon="2.52131">
        <ele>179.881607</ele>
        <time>2008-09-07T08:30:56Z</time>
      </trkpt>
      <trkpt lat="43.17338" lon="2.52155">
        <ele>179.039688</ele>
        <time>2008-09-07T08:31:03Z</time>
      </trkpt>
      <trkpt lat="43.17339" lon="2.52175">
        <ele>178.262497</ele>
        <time>2008-09-07T08:31:10Z</time>
      </trkpt>
      <trkpt lat="43.17346" lon="2.52198">
        <ele>178.375961</ele>
        <time>2008-09-07T08:31:18Z</time>
      </trkpt>
      <trkpt lat="43.17354" lon="2.52239">
        <ele>177.361343</ele>
        <time>2008-09-07T08:31:26Z</time>
      </trkpt>
      <trkpt lat="43.17355" lon="2.52281">
        <ele>173.169479</ele>
        <time>2008-09-07T08:31:33Z</time>
      </trkpt>
      <trkpt lat="43.17357" lon="2.52318">
        <ele>168.292496</ele>
        <time>2008-09-07T08:31:42Z</time>
      </trkpt>
      <trkpt lat="43.17358" lon="2.52379">
        <ele>162.465683</ele>
        <time>2008-09-07T08:31:55Z</time>
      </trkpt>
      <trkpt lat="43.17366" lon="2.52418">
        <ele>158.785706</ele>
        <time>2008-09-07T08:32:02Z</time>
      </trkpt>
      <trkpt lat="43.17362" lon="2.52438">
        <ele>157.824417</ele>
        <time>2008-09-07T08:32:08Z</time>
      </trkpt>
      <trkpt lat="43.17351" lon="2.52438">
        <ele>155.631882</ele>
        <time>2008-09-07T08:32:30Z</time>
      </trkpt>
      <trkpt lat="43.17344" lon="2.52441">
        <ele>153.301575</ele>
        <time>2008-09-07T08:32:35Z</time>
      </trkpt>
      <trkpt lat="43.17343" lon="2.52471">
        <ele>145.859222</ele>
        <time>2008-09-07T08:32:43Z</time>
      </trkpt>
      <trkpt lat="43.17347" lon="2.52482">
        <ele>143.707214</ele>
        <time>2008-09-07T08:32:47Z</time>
      </trkpt>
      <trkpt lat="43.17349" lon="2.52499">
        <ele>139.368988</ele>
        <time>2008-09-07T08:32:51Z</time>
      </trkpt>
      <trkpt lat="43.17362" lon="2.52506">
        <ele>138.26001</ele>
        <time>2008-09-07T08:32:57Z</time>
      </trkpt>
      <trkpt lat="43.1737" lon="2.52507">
        <ele>137.607498</ele>
        <time>2008-09-07T08:33:03Z</time>
      </trkpt>
      <trkpt lat="43.1738" lon="2.52512">
        <ele>136.247498</ele>
        <time>2008-09-07T08:33:10Z</time>
      </trkpt>
      <trkpt lat="43.17424" lon="2.52529">
        <ele>131.53746</ele>
        <time>2008-09-07T08:33:22Z</time>
      </trkpt>
      <trkpt lat="43.17456" lon="2.52584">
        <ele>125.983749</ele>
        <time>2008-09-07T08:33:34Z</time>
      </trkpt>
      <trkpt lat="43.17486" lon="2.5264">
        <ele>123.646248</ele>
        <time>2008-09-07T08:33:42Z</time>
      </trkpt>
      <trkpt lat="43.17513" lon="2.52721">
        <ele>122.263237</ele>
        <time>2008-09-07T08:33:50Z</time>
      </trkpt>
      <trkpt lat="43.17498" lon="2.52745">
        <ele>120.384499</ele>
        <time>2008-09-07T08:33:56Z</time>
      </trkpt>
      <trkpt lat="43.17493" lon="2.52748">
        <ele>120.571999</ele>
        <time>2008-09-07T08:37:41Z</time>
      </trkpt>
      <trkpt lat="43.17469" lon="2.52781">
        <ele>128.796478</ele>
        <time>2008-09-07T08:37:53Z</time>
      </trkpt>
      <trkpt lat="43.17491" lon="2.52832">
        <ele>127.177399</ele>
        <time>2008-09-07T08:38:03Z</time>
      </trkpt>
      <trkpt lat="43.17521" lon="2.52898">
        <ele>126.291496</ele>
        <time>2008-09-07T08:38:15Z</time>
      </trkpt>
      <trkpt lat="43.17535" lon="2.52949">
        <ele>126.149567</ele>
        <time>2008-09-07T08:38:26Z</time>
      </trkpt>
      <trkpt lat="43.17543" lon="2.53004">
        <ele>128.352768</ele>
        <time>2008-09-07T08:38:38Z</time>
      </trkpt>
      <trkpt lat="43.17553" lon="2.53056">
        <ele>129.832611</ele>
        <time>2008-09-07T08:38:49Z</time>
      </trkpt>
      <trkpt lat="43.17569" lon="2.53182">
        <ele>131.257019</ele>
        <time>2008-09-07T08:39:19Z</time>
      </trkpt>
      <trkpt lat="43.17565" lon="2.53245">
        <ele>132.8965</ele>
        <time>2008-09-07T08:39:36Z</time>
      </trkpt>
      <trkpt lat="43.17554" lon="2.53286">
        <ele>134.180069</ele>
        <time>2008-09-07T08:39:47Z</time>
      </trkpt>
      <trkpt lat="43.17545" lon="2.53335">
        <ele>134.56131</ele>
        <time>2008-09-07T08:40:02Z</time>
      </trkpt>
      <trkpt lat="43.1753" lon="2.5335">
        <ele>138.020355</ele>
        <time>2008-09-07T08:40:13Z</time>
      </trkpt>
      <trkpt lat="43.17524" lon="2.53334">
        <ele>140.33345</ele>
        <time>2008-09-07T08:40:22Z</time>
      </trkpt>
      <trkpt lat="43.17521" lon="2.53318">
        <ele>141.782516</ele>
        <time>2008-09-07T08:40:31Z</time>
      </trkpt>
      <trkpt lat="43.17512" lon="2.53295">
        <ele>145.092499</ele>
        <time>2008-09-07T08:40:45Z</time>
      </trkpt>
      <trkpt lat="43.17502" lon="2.53274">
        <ele>149.321991</ele>
        <time>2008-09-07T08:40:55Z</time>
      </trkpt>
      <trkpt lat="43.17499" lon="2.53256">
        <ele>151.209671</ele>
        <time>2008-09-07T08:41:05Z</time>
      </trkpt>
      <trkpt lat="43.17495" lon="2.53233">
        <ele>153.800507</ele>
        <time>2008-09-07T08:41:17Z</time>
      </trkpt>
      <trkpt lat="43.17487" lon="2.53228">
        <ele>155.681595</ele>
        <time>2008-09-07T08:41:23Z</time>
      </trkpt>
      <trkpt lat="43.17483" lon="2.53228">
        <ele>156.237167</ele>
        <time>2008-09-07T08:41:27Z</time>
      </trkpt>
      <trkpt lat="43.17445" lon="2.53169">
        <ele>159.69101</ele>
        <time>2008-09-07T08:41:45Z</time>
      </trkpt>
      <trkpt lat="43.17399" lon="2.53143">
        <ele>154.887497</ele>
        <time>2008-09-07T08:41:53Z</time>
      </trkpt>
      <trkpt lat="43.17377" lon="2.53156">
        <ele>150.852493</ele>
        <time>2008-09-07T08:41:59Z</time>
      </trkpt>
      <trkpt lat="43.17364" lon="2.53158">
        <ele>148.369995</ele>
        <time>2008-09-07T08:42:05Z</time>
      </trkpt>
      <trkpt lat="43.17366" lon="2.53157">
        <ele>148.617493</ele>
        <time>2008-09-07T08:42:09Z</time>
      </trkpt>
      <trkpt lat="43.17358" lon="2.53149">
        <ele>147.135147</ele>
        <time>2008-09-07T08:42:15Z</time>
      </trkpt>
      <trkpt lat="43.17357" lon="2.53188">
        <ele>148.3358</ele>
        <time>2008-09-07T08:42:24Z</time>
      </trkpt>
      <trkpt lat="43.17341" lon="2.53252">
        <ele>149.506073</ele>
        <time>2008-09-07T08:42:38Z</time>
      </trkpt>
      <trkpt lat="43.17322" lon="2.53316">
        <ele>150.719009</ele>
        <time>2008-09-07T08:42:52Z</time>
      </trkpt>
      <trkpt lat="43.17309" lon="2.53365">
        <ele>151.901199</ele>
        <time>2008-09-07T08:43:02Z</time>
      </trkpt>
      <trkpt lat="43.17287" lon="2.53416">
        <ele>152.370438</ele>
        <time>2008-09-07T08:43:14Z</time>
      </trkpt>
      <trkpt lat="43.17264" lon="2.53466">
        <ele>153.301941</ele>
        <time>2008-09-07T08:43:28Z</time>
      </trkpt>
      <trkpt lat="43.17251" lon="2.53512">
        <ele>155.336914</ele>
        <time>2008-09-07T08:43:40Z</time>
      </trkpt>
      <trkpt lat="43.17246" lon="2.53567">
        <ele>157.535263</ele>
        <time>2008-09-07T08:43:53Z</time>
      </trkpt>
      <trkpt lat="43.17247" lon="2.53608">
        <ele>159.714844</ele>
        <time>2008-09-07T08:44:03Z</time>
      </trkpt>
      <trkpt lat="43.17243" lon="2.53657">
        <ele>161.365082</ele>
        <time>2008-09-07T08:44:16Z</time>
      </trkpt>
      <trkpt lat="43.17236" lon="2.53719">
        <ele>163.899994</ele>
        <time>2008-09-07T08:44:30Z</time>
      </trkpt>
      <trkpt lat="43.17219" lon="2.53776">
        <ele>164.067719</ele>
        <time>2008-09-07T08:44:43Z</time>
      </trkpt>
      <trkpt lat="43.17202" lon="2.53821">
        <ele>166.649994</ele>
        <time>2008-09-07T08:44:56Z</time>
      </trkpt>
      <trkpt lat="43.17198" lon="2.5386">
        <ele>170.302338</ele>
        <time>2008-09-07T08:45:07Z</time>
      </trkpt>
      <trkpt lat="43.17179" lon="2.53888">
        <ele>172.281952</ele>
        <time>2008-09-07T08:45:18Z</time>
      </trkpt>
      <trkpt lat="43.17167" lon="2.53909">
        <ele>175.460907</ele>
        <time>2008-09-07T08:45:28Z</time>
      </trkpt>
      <trkpt lat="43.17169" lon="2.53948">
        <ele>178.539993</ele>
        <time>2008-09-07T08:45:42Z</time>
      </trkpt>
      <trkpt lat="43.17181" lon="2.53985">
        <ele>180.683411</ele>
        <time>2008-09-07T08:45:55Z</time>
      </trkpt>
      <trkpt lat="43.17174" lon="2.54007">
        <ele>181.675629</ele>
        <time>2008-09-07T08:46:05Z</time>
      </trkpt>
      <trkpt lat="43.1715" lon="2.5401">
        <ele>181.800781</ele>
        <time>2008-09-07T08:46:16Z</time>
      </trkpt>
      <trkpt lat="43.17122" lon="2.53995">
        <ele>184.012054</ele>
        <time>2008-09-07T08:46:31Z</time>
      </trkpt>
      <trkpt lat="43.1711" lon="2.54008">
        <ele>185.238586</ele>
        <time>2008-09-07T08:46:38Z</time>
      </trkpt>
      <trkpt lat="43.17081" lon="2.5408">
        <ele>186.747589</ele>
        <time>2008-09-07T08:47:07Z</time>
      </trkpt>
      <trkpt lat="43.17071" lon="2.54119">
        <ele>187.643051</ele>
        <time>2008-09-07T08:47:20Z</time>
      </trkpt>
      <trkpt lat="43.17065" lon="2.54161">
        <ele>186.562561</ele>
        <time>2008-09-07T08:47:30Z</time>
      </trkpt>
      <trkpt lat="43.17056" lon="2.5419">
        <ele>186.815872</ele>
        <time>2008-09-07T08:47:42Z</time>
      </trkpt>
      <trkpt lat="43.17047" lon="2.54179">
        <ele>189.56604</ele>
        <time>2008-09-07T08:47:48Z</time>
      </trkpt>
      <trkpt lat="43.17052" lon="2.54136">
        <ele>191.538544</ele>
        <time>2008-09-07T08:48:03Z</time>
      </trkpt>
      <trkpt lat="43.17042" lon="2.54114">
        <ele>195.606506</ele>
        <time>2008-09-07T08:48:13Z</time>
      </trkpt>
      <trkpt lat="43.17017" lon="2.54137">
        <ele>195.937515</ele>
        <time>2008-09-07T08:48:26Z</time>
      </trkpt>
      <trkpt lat="43.17002" lon="2.54108">
        <ele>198.359268</ele>
        <time>2008-09-07T08:48:34Z</time>
      </trkpt>
      <trkpt lat="43.16985" lon="2.54093">
        <ele>198.757507</ele>
        <time>2008-09-07T08:48:39Z</time>
      </trkpt>
      <trkpt lat="43.16947" lon="2.54091">
        <ele>198.199707</ele>
        <time>2008-09-07T08:48:48Z</time>
      </trkpt>
      <trkpt lat="43.1692" lon="2.54091">
        <ele>198.711609</ele>
        <time>2008-09-07T08:49:00Z</time>
      </trkpt>
      <trkpt lat="43.169" lon="2.54093">
        <ele>200.547501</ele>
        <time>2008-09-07T08:49:14Z</time>
      </trkpt>
      <trkpt lat="43.16879" lon="2.54099">
        <ele>204.204407</ele>
        <time>2008-09-07T08:49:24Z</time>
      </trkpt>
      <trkpt lat="43.16866" lon="2.54114">
        <ele>205.901794</ele>
        <time>2008-09-07T08:49:32Z</time>
      </trkpt>
      <trkpt lat="43.16861" lon="2.54113">
        <ele>207.140427</ele>
        <time>2008-09-07T08:49:37Z</time>
      </trkpt>
      <trkpt lat="43.16853" lon="2.54101">
        <ele>209.673752</ele>
        <time>2008-09-07T08:49:46Z</time>
      </trkpt>
      <trkpt lat="43.16847" lon="2.54111">
        <ele>211.140823</ele>
        <time>2008-09-07T08:49:52Z</time>
      </trkpt>
      <trkpt lat="43.16845" lon="2.54129">
        <ele>211.098343</ele>
        <time>2008-09-07T08:50:00Z</time>
      </trkpt>
      <trkpt lat="43.16841" lon="2.54148">
        <ele>211.776169</ele>
        <time>2008-09-07T08:50:06Z</time>
      </trkpt>
      <trkpt lat="43.16834" lon="2.54174">
        <ele>212.502502</ele>
        <time>2008-09-07T08:50:16Z</time>
      </trkpt>
      <trkpt lat="43.16835" lon="2.54198">
        <ele>210.382492</ele>
        <time>2008-09-07T08:50:24Z</time>
      </trkpt>
      <trkpt lat="43.16824" lon="2.54235">
        <ele>211.44725</ele>
        <time>2008-09-07T08:50:36Z</time>
      </trkpt>
      <trkpt lat="43.1681" lon="2.54272">
        <ele>214.956253</ele>
        <time>2008-09-07T08:50:46Z</time>
      </trkpt>
      <trkpt lat="43.16802" lon="2.54314">
        <ele>217.262497</ele>
        <time>2008-09-07T08:50:55Z</time>
      </trkpt>
      <trkpt lat="43.16795" lon="2.54369">
        <ele>216.9375</ele>
        <time>2008-09-07T08:51:07Z</time>
      </trkpt>
      <trkpt lat="43.16784" lon="2.54412">
        <ele>219.188797</ele>
        <time>2008-09-07T08:51:20Z</time>
      </trkpt>
      <trkpt lat="43.16777" lon="2.54429">
        <ele>222.240494</ele>
        <time>2008-09-07T08:51:27Z</time>
      </trkpt>
      <trkpt lat="43.16771" lon="2.5447">
        <ele>225.140305</ele>
        <time>2008-09-07T08:51:39Z</time>
      </trkpt>
      <trkpt lat="43.16778" lon="2.54521">
        <ele>223.843262</ele>
        <time>2008-09-07T08:51:54Z</time>
      </trkpt>
      <trkpt lat="43.16774" lon="2.5456">
        <ele>223.796814</ele>
        <time>2008-09-07T08:52:07Z</time>
      </trkpt>
      <trkpt lat="43.16773" lon="2.54565">
        <ele>223.893661</ele>
        <time>2008-09-07T08:52:10Z</time>
      </trkpt>
      <trkpt lat="43.16766" lon="2.54556">
        <ele>228.220947</ele>
        <time>2008-09-07T08:52:19Z</time>
      </trkpt>
      <trkpt lat="43.16762" lon="2.54544">
        <ele>230.749954</ele>
        <time>2008-09-07T08:52:25Z</time>
      </trkpt>
      <trkpt lat="43.16753" lon="2.54511">
        <ele>236.4245</ele>
        <time>2008-09-07T08:52:49Z</time>
      </trkpt>
      <trkpt lat="43.16753" lon="2.54515">
        <ele>236.141556</ele>
        <time>2008-09-07T08:52:57Z</time>
      </trkpt>
      <trkpt lat="43.16755" lon="2.54519">
        <ele>235.279373</ele>
        <time>2008-09-07T08:53:07Z</time>
      </trkpt>
      <trkpt lat="43.16749" lon="2.54562">
        <ele>236.493835</ele>
        <time>2008-09-07T08:53:27Z</time>
      </trkpt>
      <trkpt lat="43.1674" lon="2.5459">
        <ele>240.84082</ele>
        <time>2008-09-07T08:53:41Z</time>
      </trkpt>
      <trkpt lat="43.1674" lon="2.54612">
        <ele>241.15062</ele>
        <time>2008-09-07T08:53:53Z</time>
      </trkpt>
      <trkpt lat="43.16741" lon="2.54615">
        <ele>240.699585</ele>
        <time>2008-09-07T08:53:57Z</time>
      </trkpt>
      <trkpt lat="43.16741" lon="2.54614">
        <ele>240.48793</ele>
        <time>2008-09-07T08:54:02Z</time>
      </trkpt>
      <trkpt lat="43.16741" lon="2.54619">
        <ele>240.772583</ele>
        <time>2008-09-07T08:54:04Z</time>
      </trkpt>
      <trkpt lat="43.16736" lon="2.5462">
        <ele>243.312195</ele>
        <time>2008-09-07T08:54:12Z</time>
      </trkpt>
      <trkpt lat="43.16733" lon="2.54619">
        <ele>245.009705</ele>
        <time>2008-09-07T08:54:18Z</time>
      </trkpt>
      <trkpt lat="43.16723" lon="2.54598">
        <ele>250.919998</ele>
        <time>2008-09-07T08:54:30Z</time>
      </trkpt>
      <trkpt lat="43.16718" lon="2.54581">
        <ele>253.895004</ele>
        <time>2008-09-07T08:54:37Z</time>
      </trkpt>
      <trkpt lat="43.1672" lon="2.54575">
        <ele>252.737503</ele>
        <time>2008-09-07T08:54:43Z</time>
      </trkpt>
      <trkpt lat="43.16718" lon="2.54561">
        <ele>254.412506</ele>
        <time>2008-09-07T08:54:48Z</time>
      </trkpt>
      <trkpt lat="43.16717" lon="2.54534">
        <ele>256.327484</ele>
        <time>2008-09-07T08:55:02Z</time>
      </trkpt>
      <trkpt lat="43.1672" lon="2.54525">
        <ele>254.514999</ele>
        <time>2008-09-07T08:55:11Z</time>
      </trkpt>
      <trkpt lat="43.1672" lon="2.5452">
        <ele>254.692032</ele>
        <time>2008-09-07T08:55:19Z</time>
      </trkpt>
      <trkpt lat="43.16719" lon="2.54519">
        <ele>255.345688</ele>
        <time>2008-09-07T08:55:28Z</time>
      </trkpt>
      <trkpt lat="43.16717" lon="2.54523">
        <ele>256.108673</ele>
        <time>2008-09-07T08:55:40Z</time>
      </trkpt>
      <trkpt lat="43.16716" lon="2.54521">
        <ele>257.146881</ele>
        <time>2008-09-07T08:55:52Z</time>
      </trkpt>
      <trkpt lat="43.16717" lon="2.54509">
        <ele>257.121246</ele>
        <time>2008-09-07T08:56:05Z</time>
      </trkpt>
      <trkpt lat="43.16716" lon="2.54494">
        <ele>257.910217</ele>
        <time>2008-09-07T08:56:21Z</time>
      </trkpt>
      <trkpt lat="43.16713" lon="2.54489">
        <ele>260.239746</ele>
        <time>2008-09-07T08:56:30Z</time>
      </trkpt>
      <trkpt lat="43.16707" lon="2.54501">
        <ele>264.333099</ele>
        <time>2008-09-07T08:56:53Z</time>
      </trkpt>
      <trkpt lat="43.16705" lon="2.54497">
        <ele>265.791199</ele>
        <time>2008-09-07T08:57:00Z</time>
      </trkpt>
      <trkpt lat="43.16693" lon="2.54465">
        <ele>275.008759</ele>
        <time>2008-09-07T08:57:37Z</time>
      </trkpt>
      <trkpt lat="43.1669" lon="2.54439">
        <ele>277.526398</ele>
        <time>2008-09-07T08:57:56Z</time>
      </trkpt>
      <trkpt lat="43.16683" lon="2.54421">
        <ele>281.920776</ele>
        <time>2008-09-07T08:58:15Z</time>
      </trkpt>
      <trkpt lat="43.16679" lon="2.54391">
        <ele>285.614624</ele>
        <time>2008-09-07T08:58:42Z</time>
      </trkpt>
      <trkpt lat="43.1668" lon="2.54373">
        <ele>286.483582</ele>
        <time>2008-09-07T08:59:00Z</time>
      </trkpt>
      <trkpt lat="43.16679" lon="2.54358">
        <ele>288.136414</ele>
        <time>2008-09-07T08:59:15Z</time>
      </trkpt>
      <trkpt lat="43.16672" lon="2.54338">
        <ele>293.830475</ele>
        <time>2008-09-07T08:59:37Z</time>
      </trkpt>
      <trkpt lat="43.16668" lon="2.5432">
        <ele>295.977936</ele>
        <time>2008-09-07T08:59:55Z</time>
      </trkpt>
      <trkpt lat="43.1666" lon="2.54301">
        <ele>300.389404</ele>
        <time>2008-09-07T09:00:10Z</time>
      </trkpt>
      <trkpt lat="43.16655" lon="2.54299">
        <ele>303.105804</ele>
        <time>2008-09-07T09:00:22Z</time>
      </trkpt>
      <trkpt lat="43.16659" lon="2.5431">
        <ele>300.936981</ele>
        <time>2008-09-07T09:00:33Z</time>
      </trkpt>
      <trkpt lat="43.16659" lon="2.54326">
        <ele>301.242371</ele>
        <time>2008-09-07T09:00:47Z</time>
      </trkpt>
      <trkpt lat="43.16656" lon="2.54337">
        <ele>303.612</ele>
        <time>2008-09-07T09:00:59Z</time>
      </trkpt>
      <trkpt lat="43.16654" lon="2.54338">
        <ele>304.921631</ele>
        <time>2008-09-07T09:01:09Z</time>
      </trkpt>
      <trkpt lat="43.16651" lon="2.54333">
        <ele>306.286407</ele>
        <time>2008-09-07T09:01:19Z</time>
      </trkpt>
      <trkpt lat="43.16646" lon="2.54316">
        <ele>309.086273</ele>
        <time>2008-09-07T09:01:35Z</time>
      </trkpt>
      <trkpt lat="43.16643" lon="2.54317">
        <ele>311.09964</ele>
        <time>2008-09-07T09:01:44Z</time>
      </trkpt>
      <trkpt lat="43.16643" lon="2.54323">
        <ele>311.264801</ele>
        <time>2008-09-07T09:01:50Z</time>
      </trkpt>
      <trkpt lat="43.16639" lon="2.54341">
        <ele>313.322113</ele>
        <time>2008-09-07T09:02:09Z</time>
      </trkpt>
      <trkpt lat="43.16636" lon="2.54355">
        <ele>314.207489</ele>
        <time>2008-09-07T09:02:25Z</time>
      </trkpt>
      <trkpt lat="43.16633" lon="2.54367">
        <ele>315.42749</ele>
        <time>2008-09-07T09:02:39Z</time>
      </trkpt>
      <trkpt lat="43.16618" lon="2.54388">
        <ele>322.432495</ele>
        <time>2008-09-07T09:03:02Z</time>
      </trkpt>
      <trkpt lat="43.16614" lon="2.54398">
        <ele>323.792511</ele>
        <time>2008-09-07T09:03:18Z</time>
      </trkpt>
      <trkpt lat="43.1661" lon="2.54428">
        <ele>325.992493</ele>
        <time>2008-09-07T09:03:30Z</time>
      </trkpt>
      <trkpt lat="43.16612" lon="2.54437">
        <ele>325.269989</ele>
        <time>2008-09-07T09:03:34Z</time>
      </trkpt>
      <trkpt lat="43.16615" lon="2.54476">
        <ele>323.431519</ele>
        <time>2008-09-07T09:03:47Z</time>
      </trkpt>
      <trkpt lat="43.16614" lon="2.54489">
        <ele>323.812286</ele>
        <time>2008-09-07T09:03:55Z</time>
      </trkpt>
      <trkpt lat="43.16611" lon="2.54503">
        <ele>325.388062</ele>
        <time>2008-09-07T09:04:19Z</time>
      </trkpt>
      <trkpt lat="43.16599" lon="2.54529">
        <ele>331.093506</ele>
        <time>2008-09-07T09:04:29Z</time>
      </trkpt>
      <trkpt lat="43.16589" lon="2.54557">
        <ele>332.96701</ele>
        <time>2008-09-07T09:04:39Z</time>
      </trkpt>
      <trkpt lat="43.16592" lon="2.54594">
        <ele>326.850494</ele>
        <time>2008-09-07T09:04:46Z</time>
      </trkpt>
      <trkpt lat="43.16581" lon="2.54631">
        <ele>323.10257</ele>
        <time>2008-09-07T09:04:53Z</time>
      </trkpt>
      <trkpt lat="43.16557" lon="2.54649">
        <ele>328.261749</ele>
        <time>2008-09-07T09:05:01Z</time>
      </trkpt>
      <trkpt lat="43.16542" lon="2.54666">
        <ele>335.647308</ele>
        <time>2008-09-07T09:05:07Z</time>
      </trkpt>
      <trkpt lat="43.16556" lon="2.54685">
        <ele>332.387787</ele>
        <time>2008-09-07T09:05:14Z</time>
      </trkpt>
      <trkpt lat="43.1659" lon="2.54713">
        <ele>322.246368</ele>
        <time>2008-09-07T09:05:20Z</time>
      </trkpt>
      <trkpt lat="43.16614" lon="2.54732">
        <ele>316.126862</ele>
        <time>2008-09-07T09:05:24Z</time>
      </trkpt>
      <trkpt lat="43.16631" lon="2.54769">
        <ele>314.858246</ele>
        <time>2008-09-07T09:05:30Z</time>
      </trkpt>
      <trkpt lat="43.16649" lon="2.548">
        <ele>308.903015</ele>
        <time>2008-09-07T09:05:36Z</time>
      </trkpt>
      <trkpt lat="43.16658" lon="2.54871">
        <ele>308.047485</ele>
        <time>2008-09-07T09:05:46Z</time>
      </trkpt>
      <trkpt lat="43.1668" lon="2.54936">
        <ele>298.223114</ele>
        <time>2008-09-07T09:05:55Z</time>
      </trkpt>
      <trkpt lat="43.16677" lon="2.54968">
        <ele>300.318542</ele>
        <time>2008-09-07T09:06:00Z</time>
      </trkpt>
      <trkpt lat="43.16668" lon="2.55002">
        <ele>303.602295</ele>
        <time>2008-09-07T09:06:05Z</time>
      </trkpt>
      <trkpt lat="43.16687" lon="2.5503">
        <ele>296.868744</ele>
        <time>2008-09-07T09:06:12Z</time>
      </trkpt>
      <trkpt lat="43.16708" lon="2.55068">
        <ele>289.043762</ele>
        <time>2008-09-07T09:06:19Z</time>
      </trkpt>
      <trkpt lat="43.16711" lon="2.55108">
        <ele>287.661346</ele>
        <time>2008-09-07T09:06:25Z</time>
      </trkpt>
      <trkpt lat="43.16704" lon="2.55131">
        <ele>291.05249</ele>
        <time>2008-09-07T09:06:29Z</time>
      </trkpt>
      <trkpt lat="43.16721" lon="2.55185">
        <ele>284.459259</ele>
        <time>2008-09-07T09:06:41Z</time>
      </trkpt>
      <trkpt lat="43.16723" lon="2.55186">
        <ele>283.951569</ele>
        <time>2008-09-07T09:06:45Z</time>
      </trkpt>
      <trkpt lat="43.16732" lon="2.55208">
        <ele>279.994415</ele>
        <time>2008-09-07T09:06:50Z</time>
      </trkpt>
      <trkpt lat="43.16733" lon="2.5525">
        <ele>278.392975</ele>
        <time>2008-09-07T09:06:57Z</time>
      </trkpt>
      <trkpt lat="43.16719" lon="2.55307">
        <ele>280.829956</ele>
        <time>2008-09-07T09:07:07Z</time>
      </trkpt>
      <trkpt lat="43.16717" lon="2.55371">
        <ele>275.795013</ele>
        <time>2008-09-07T09:07:17Z</time>
      </trkpt>
      <trkpt lat="43.16717" lon="2.55411">
        <ele>271.913727</ele>
        <time>2008-09-07T09:07:24Z</time>
      </trkpt>
      <trkpt lat="43.16721" lon="2.55445">
        <ele>268.266235</ele>
        <time>2008-09-07T09:07:29Z</time>
      </trkpt>
      <trkpt lat="43.16724" lon="2.55482">
        <ele>264.439392</ele>
        <time>2008-09-07T09:07:34Z</time>
      </trkpt>
      <trkpt lat="43.16738" lon="2.5549">
        <ele>260.646484</ele>
        <time>2008-09-07T09:07:38Z</time>
      </trkpt>
      <trkpt lat="43.16785" lon="2.55471">
        <ele>246.409729</ele>
        <time>2008-09-07T09:07:50Z</time>
      </trkpt>
      <trkpt lat="43.16792" lon="2.55454">
        <ele>243.423218</ele>
        <time>2008-09-07T09:07:55Z</time>
      </trkpt>
      <trkpt lat="43.16801" lon="2.55447">
        <ele>239.789795</ele>
        <time>2008-09-07T09:08:00Z</time>
      </trkpt>
      <trkpt lat="43.16811" lon="2.55442">
        <ele>235.202499</ele>
        <time>2008-09-07T09:08:06Z</time>
      </trkpt>
      <trkpt lat="43.1683" lon="2.55438">
        <ele>226.132767</ele>
        <time>2008-09-07T09:08:13Z</time>
      </trkpt>
      <trkpt lat="43.1684" lon="2.55442">
        <ele>220.87912</ele>
        <time>2008-09-07T09:08:18Z</time>
      </trkpt>
      <trkpt lat="43.16852" lon="2.55469">
        <ele>213.383209</ele>
        <time>2008-09-07T09:08:24Z</time>
      </trkpt>
      <trkpt lat="43.16864" lon="2.55491">
        <ele>206.5755</ele>
        <time>2008-09-07T09:08:30Z</time>
      </trkpt>
      <trkpt lat="43.16892" lon="2.55506">
        <ele>193.978622</ele>
        <time>2008-09-07T09:08:39Z</time>
      </trkpt>
      <trkpt lat="43.16905" lon="2.55503">
        <ele>188.268372</ele>
        <time>2008-09-07T09:08:45Z</time>
      </trkpt>
      <trkpt lat="43.16922" lon="2.55507">
        <ele>185.079559</ele>
        <time>2008-09-07T09:08:49Z</time>
      </trkpt>
      <trkpt lat="43.16938" lon="2.55511">
        <ele>182.193726</ele>
        <time>2008-09-07T09:08:55Z</time>
      </trkpt>
      <trkpt lat="43.16937" lon="2.55511">
        <ele>182.322998</ele>
        <time>2008-09-07T09:09:02Z</time>
      </trkpt>
      <trkpt lat="43.16937" lon="2.5552">
        <ele>182.171753</ele>
        <time>2008-09-07T09:09:55Z</time>
      </trkpt>
      <trkpt lat="43.16929" lon="2.55544">
        <ele>183.479507</ele>
        <time>2008-09-07T09:10:03Z</time>
      </trkpt>
      <trkpt lat="43.16919" lon="2.556">
        <ele>184.25</ele>
        <time>2008-09-07T09:10:17Z</time>
      </trkpt>
      <trkpt lat="43.16903" lon="2.55648">
        <ele>185.211746</ele>
        <time>2008-09-07T09:10:31Z</time>
      </trkpt>
      <trkpt lat="43.16876" lon="2.55678">
        <ele>189.895279</ele>
        <time>2008-09-07T09:10:45Z</time>
      </trkpt>
      <trkpt lat="43.16857" lon="2.55709">
        <ele>194.430161</ele>
        <time>2008-09-07T09:10:58Z</time>
      </trkpt>
      <trkpt lat="43.16871" lon="2.55753">
        <ele>192.766632</ele>
        <time>2008-09-07T09:11:13Z</time>
      </trkpt>
      <trkpt lat="43.16886" lon="2.55788">
        <ele>192.579193</ele>
        <time>2008-09-07T09:11:25Z</time>
      </trkpt>
      <trkpt lat="43.16883" lon="2.55841">
        <ele>196.856598</ele>
        <time>2008-09-07T09:11:41Z</time>
      </trkpt>
      <trkpt lat="43.1687" lon="2.55896">
        <ele>200.25383</ele>
        <time>2008-09-07T09:11:59Z</time>
      </trkpt>
      <trkpt lat="43.16847" lon="2.55926">
        <ele>204.040558</ele>
        <time>2008-09-07T09:12:14Z</time>
      </trkpt>
      <trkpt lat="43.16828" lon="2.55963">
        <ele>211.040588</ele>
        <time>2008-09-07T09:12:30Z</time>
      </trkpt>
      <trkpt lat="43.16843" lon="2.56002">
        <ele>208.619888</ele>
        <time>2008-09-07T09:12:44Z</time>
      </trkpt>
      <trkpt lat="43.16853" lon="2.5604">
        <ele>207.961517</ele>
        <time>2008-09-07T09:12:59Z</time>
      </trkpt>
      <trkpt lat="43.16855" lon="2.56079">
        <ele>208.039886</ele>
        <time>2008-09-07T09:13:11Z</time>
      </trkpt>
      <trkpt lat="43.1684" lon="2.56121">
        <ele>211.270905</ele>
        <time>2008-09-07T09:13:25Z</time>
      </trkpt>
      <trkpt lat="43.16805" lon="2.56136">
        <ele>214.475204</ele>
        <time>2008-09-07T09:13:40Z</time>
      </trkpt>
      <trkpt lat="43.16777" lon="2.56125">
        <ele>217.672943</ele>
        <time>2008-09-07T09:13:53Z</time>
      </trkpt>
      <trkpt lat="43.16744" lon="2.56109">
        <ele>220.739685</ele>
        <time>2008-09-07T09:14:09Z</time>
      </trkpt>
      <trkpt lat="43.16708" lon="2.56101">
        <ele>222.028442</ele>
        <time>2008-09-07T09:14:26Z</time>
      </trkpt>
      <trkpt lat="43.1669" lon="2.561">
        <ele>221.861389</ele>
        <time>2008-09-07T09:14:37Z</time>
      </trkpt>
      <trkpt lat="43.16682" lon="2.56095">
        <ele>222.668686</ele>
        <time>2008-09-07T09:14:49Z</time>
      </trkpt>
      <trkpt lat="43.16691" lon="2.56106">
        <ele>220.438248</ele>
        <time>2008-09-07T09:14:55Z</time>
      </trkpt>
      <trkpt lat="43.16727" lon="2.56121">
        <ele>218.699997</ele>
        <time>2008-09-07T09:15:00Z</time>
      </trkpt>
      <trkpt lat="43.16783" lon="2.56155">
        <ele>210.076004</ele>
        <time>2008-09-07T09:15:06Z</time>
      </trkpt>
      <trkpt lat="43.16831" lon="2.56163">
        <ele>206.903854</ele>
        <time>2008-09-07T09:15:11Z</time>
      </trkpt>
      <trkpt lat="43.16854" lon="2.56171">
        <ele>204.624603</ele>
        <time>2008-09-07T09:15:16Z</time>
      </trkpt>
      <trkpt lat="43.16851" lon="2.56217">
        <ele>202.804886</ele>
        <time>2008-09-07T09:15:23Z</time>
      </trkpt>
      <trkpt lat="43.16863" lon="2.56285">
        <ele>201.747711</ele>
        <time>2008-09-07T09:15:35Z</time>
      </trkpt>
      <trkpt lat="43.16894" lon="2.56414">
        <ele>198.00531</ele>
        <time>2008-09-07T09:15:53Z</time>
      </trkpt>
      <trkpt lat="43.16899" lon="2.56465">
        <ele>192.710007</ele>
        <time>2008-09-07T09:15:58Z</time>
      </trkpt>
      <trkpt lat="43.16908" lon="2.56513">
        <ele>187.513824</ele>
        <time>2008-09-07T09:16:02Z</time>
      </trkpt>
      <trkpt lat="43.16917" lon="2.56557">
        <ele>183.65303</ele>
        <time>2008-09-07T09:16:06Z</time>
      </trkpt>
      <trkpt lat="43.1694" lon="2.5663">
        <ele>181.134506</ele>
        <time>2008-09-07T09:16:13Z</time>
      </trkpt>
      <trkpt lat="43.16982" lon="2.568">
        <ele>178.489227</ele>
        <time>2008-09-07T09:16:27Z</time>
      </trkpt>
      <trkpt lat="43.16989" lon="2.56851">
        <ele>179.212128</ele>
        <time>2008-09-07T09:16:32Z</time>
      </trkpt>
      <trkpt lat="43.17" lon="2.5691">
        <ele>178.266296</ele>
        <time>2008-09-07T09:16:39Z</time>
      </trkpt>
      <trkpt lat="43.17008" lon="2.56971">
        <ele>176.473129</ele>
        <time>2008-09-07T09:16:46Z</time>
      </trkpt>
      <trkpt lat="43.17006" lon="2.57049">
        <ele>168.425827</ele>
        <time>2008-09-07T09:16:54Z</time>
      </trkpt>
      <trkpt lat="43.16997" lon="2.57103">
        <ele>164.500504</ele>
        <time>2008-09-07T09:16:59Z</time>
      </trkpt>
      <trkpt lat="43.16988" lon="2.57178">
        <ele>164.694626</ele>
        <time>2008-09-07T09:17:06Z</time>
      </trkpt>
      <trkpt lat="43.17003" lon="2.57245">
        <ele>162.492706</ele>
        <time>2008-09-07T09:17:13Z</time>
      </trkpt>
      <trkpt lat="43.17006" lon="2.57319">
        <ele>160.251007</ele>
        <time>2008-09-07T09:17:20Z</time>
      </trkpt>
      <trkpt lat="43.17016" lon="2.57409">
        <ele>159.262054</ele>
        <time>2008-09-07T09:17:29Z</time>
      </trkpt>
      <trkpt lat="43.16997" lon="2.57471">
        <ele>160.470169</ele>
        <time>2008-09-07T09:17:35Z</time>
      </trkpt>
      <trkpt lat="43.1699" lon="2.57505">
        <ele>160.710541</ele>
        <time>2008-09-07T09:17:38Z</time>
      </trkpt>
      <trkpt lat="43.16975" lon="2.57559">
        <ele>156.146255</ele>
        <time>2008-09-07T09:17:43Z</time>
      </trkpt>
      <trkpt lat="43.16938" lon="2.57604">
        <ele>145.626526</ele>
        <time>2008-09-07T09:17:51Z</time>
      </trkpt>
      <trkpt lat="43.16939" lon="2.57713">
        <ele>142.61145</ele>
        <time>2008-09-07T09:18:02Z</time>
      </trkpt>
      <trkpt lat="43.16944" lon="2.57766">
        <ele>142.894806</ele>
        <time>2008-09-07T09:18:07Z</time>
      </trkpt>
      <trkpt lat="43.16936" lon="2.57786">
        <ele>141.432755</ele>
        <time>2008-09-07T09:18:11Z</time>
      </trkpt>
      <trkpt lat="43.16906" lon="2.57769">
        <ele>136.623413</ele>
        <time>2008-09-07T09:18:17Z</time>
      </trkpt>
      <trkpt lat="43.16835" lon="2.57737">
        <ele>134.07016</ele>
        <time>2008-09-07T09:18:30Z</time>
      </trkpt>
      <trkpt lat="43.16769" lon="2.5774">
        <ele>140.975372</ele>
        <time>2008-09-07T09:18:44Z</time>
      </trkpt>
      <trkpt lat="43.16757" lon="2.57747">
        <ele>142.534897</ele>
        <time>2008-09-07T09:18:51Z</time>
      </trkpt>
      <trkpt lat="43.16751" lon="2.57755">
        <ele>142.634445</ele>
        <time>2008-09-07T09:19:02Z</time>
      </trkpt>
      <trkpt lat="43.16729" lon="2.57764">
        <ele>144.844391</ele>
        <time>2008-09-07T09:19:14Z</time>
      </trkpt>
      <trkpt lat="43.16708" lon="2.57772">
        <ele>147.489655</ele>
        <time>2008-09-07T09:19:25Z</time>
      </trkpt>
      <trkpt lat="43.16674" lon="2.57783">
        <ele>153.578888</ele>
        <time>2008-09-07T09:19:49Z</time>
      </trkpt>
      <trkpt lat="43.16651" lon="2.57798">
        <ele>156.240738</ele>
        <time>2008-09-07T09:20:07Z</time>
      </trkpt>
      <trkpt lat="43.16629" lon="2.57814">
        <ele>158.813553</ele>
        <time>2008-09-07T09:20:25Z</time>
      </trkpt>
      <trkpt lat="43.16612" lon="2.57831">
        <ele>160.429962</ele>
        <time>2008-09-07T09:20:40Z</time>
      </trkpt>
      <trkpt lat="43.16585" lon="2.57862">
        <ele>163.255356</ele>
        <time>2008-09-07T09:21:05Z</time>
      </trkpt>
      <trkpt lat="43.16566" lon="2.57864">
        <ele>166.761002</ele>
        <time>2008-09-07T09:21:19Z</time>
      </trkpt>
      <trkpt lat="43.16545" lon="2.57879">
        <ele>169.231628</ele>
        <time>2008-09-07T09:21:34Z</time>
      </trkpt>
      <trkpt lat="43.16525" lon="2.57903">
        <ele>171.256805</ele>
        <time>2008-09-07T09:21:50Z</time>
      </trkpt>
      <trkpt lat="43.16498" lon="2.57905">
        <ele>177.248169</ele>
        <time>2008-09-07T09:22:08Z</time>
      </trkpt>
      <trkpt lat="43.16485" lon="2.57924">
        <ele>179.918625</ele>
        <time>2008-09-07T09:22:21Z</time>
      </trkpt>
      <trkpt lat="43.16478" lon="2.57957">
        <ele>179.838608</ele>
        <time>2008-09-07T09:22:37Z</time>
      </trkpt>
      <trkpt lat="43.1647" lon="2.57973">
        <ele>181.657501</ele>
        <time>2008-09-07T09:22:44Z</time>
      </trkpt>
      <trkpt lat="43.16444" lon="2.58035">
        <ele>186.574326</ele>
        <time>2008-09-07T09:23:17Z</time>
      </trkpt>
      <trkpt lat="43.16435" lon="2.58049">
        <ele>188.368912</ele>
        <time>2008-09-07T09:23:25Z</time>
      </trkpt>
      <trkpt lat="43.16412" lon="2.58063">
        <ele>192.891098</ele>
        <time>2008-09-07T09:23:43Z</time>
      </trkpt>
      <trkpt lat="43.16394" lon="2.58042">
        <ele>198.913193</ele>
        <time>2008-09-07T09:23:59Z</time>
      </trkpt>
      <trkpt lat="43.16384" lon="2.5801">
        <ele>204.801422</ele>
        <time>2008-09-07T09:24:14Z</time>
      </trkpt>
      <trkpt lat="43.1637" lon="2.5799">
        <ele>209.446487</ele>
        <time>2008-09-07T09:24:26Z</time>
      </trkpt>
      <trkpt lat="43.16351" lon="2.57993">
        <ele>211.884094</ele>
        <time>2008-09-07T09:24:38Z</time>
      </trkpt>
      <trkpt lat="43.16322" lon="2.57994">
        <ele>213.541275</ele>
        <time>2008-09-07T09:24:57Z</time>
      </trkpt>
      <trkpt lat="43.16311" lon="2.5797">
        <ele>214.951447</ele>
        <time>2008-09-07T09:25:11Z</time>
      </trkpt>
      <trkpt lat="43.16308" lon="2.57955">
        <ele>216.181854</ele>
        <time>2008-09-07T09:25:18Z</time>
      </trkpt>
      <trkpt lat="43.16297" lon="2.57922">
        <ele>221.060196</ele>
        <time>2008-09-07T09:25:33Z</time>
      </trkpt>
      <trkpt lat="43.16276" lon="2.57895">
        <ele>222.178467</ele>
        <time>2008-09-07T09:25:46Z</time>
      </trkpt>
      <trkpt lat="43.16258" lon="2.57863">
        <ele>228.28598</ele>
        <time>2008-09-07T09:26:00Z</time>
      </trkpt>
      <trkpt lat="43.16233" lon="2.57856">
        <ele>228.244064</ele>
        <time>2008-09-07T09:26:13Z</time>
      </trkpt>
      <trkpt lat="43.16203" lon="2.57852">
        <ele>231.171005</ele>
        <time>2008-09-07T09:26:29Z</time>
      </trkpt>
      <trkpt lat="43.16173" lon="2.57846">
        <ele>234.493149</ele>
        <time>2008-09-07T09:26:45Z</time>
      </trkpt>
      <trkpt lat="43.16148" lon="2.57842">
        <ele>237.179596</ele>
        <time>2008-09-07T09:26:58Z</time>
      </trkpt>
      <trkpt lat="43.16117" lon="2.57833">
        <ele>239.604996</ele>
        <time>2008-09-07T09:27:16Z</time>
      </trkpt>
      <trkpt lat="43.16095" lon="2.57842">
        <ele>243.694</ele>
        <time>2008-09-07T09:27:27Z</time>
      </trkpt>
      <trkpt lat="43.16075" lon="2.57869">
        <ele>250.105621</ele>
        <time>2008-09-07T09:27:40Z</time>
      </trkpt>
      <trkpt lat="43.16067" lon="2.57902">
        <ele>253.746872</ele>
        <time>2008-09-07T09:27:53Z</time>
      </trkpt>
      <trkpt lat="43.16066" lon="2.57932">
        <ele>252.06781</ele>
        <time>2008-09-07T09:28:04Z</time>
      </trkpt>
      <trkpt lat="43.16056" lon="2.57949">
        <ele>249.943359</ele>
        <time>2008-09-07T09:28:13Z</time>
      </trkpt>
      <trkpt lat="43.16043" lon="2.57933">
        <ele>250.845337</ele>
        <time>2008-09-07T09:28:23Z</time>
      </trkpt>
      <trkpt lat="43.16023" lon="2.57911">
        <ele>254.345581</ele>
        <time>2008-09-07T09:28:39Z</time>
      </trkpt>
      <trkpt lat="43.16007" lon="2.57894">
        <ele>256.629883</ele>
        <time>2008-09-07T09:28:52Z</time>
      </trkpt>
      <trkpt lat="43.15992" lon="2.57875">
        <ele>258.539856</ele>
        <time>2008-09-07T09:29:06Z</time>
      </trkpt>
      <trkpt lat="43.1597" lon="2.57853">
        <ele>262.335205</ele>
        <time>2008-09-07T09:29:23Z</time>
      </trkpt>
      <trkpt lat="43.1596" lon="2.57829">
        <ele>264.570038</ele>
        <time>2008-09-07T09:29:36Z</time>
      </trkpt>
      <trkpt lat="43.15948" lon="2.57791">
        <ele>267.615204</ele>
        <time>2008-09-07T09:29:54Z</time>
      </trkpt>
      <trkpt lat="43.1593" lon="2.57742">
        <ele>272.676056</ele>
        <time>2008-09-07T09:30:19Z</time>
      </trkpt>
      <trkpt lat="43.1592" lon="2.57712">
        <ele>274.488129</ele>
        <time>2008-09-07T09:30:32Z</time>
      </trkpt>
      <trkpt lat="43.15909" lon="2.57666">
        <ele>275.820007</ele>
        <time>2008-09-07T09:30:49Z</time>
      </trkpt>
      <trkpt lat="43.15924" lon="2.57583">
        <ele>276.603485</ele>
        <time>2008-09-07T09:31:21Z</time>
      </trkpt>
      <trkpt lat="43.15905" lon="2.5756">
        <ele>280.553741</ele>
        <time>2008-09-07T09:31:36Z</time>
      </trkpt>
      <trkpt lat="43.15882" lon="2.57526">
        <ele>285.17749</ele>
        <time>2008-09-07T09:31:53Z</time>
      </trkpt>
      <trkpt lat="43.15863" lon="2.57491">
        <ele>288.20874</ele>
        <time>2008-09-07T09:32:09Z</time>
      </trkpt>
      <trkpt lat="43.15848" lon="2.57449">
        <ele>290.381073</ele>
        <time>2008-09-07T09:32:24Z</time>
      </trkpt>
      <trkpt lat="43.15835" lon="2.57406">
        <ele>292.492493</ele>
        <time>2008-09-07T09:32:39Z</time>
      </trkpt>
      <trkpt lat="43.15824" lon="2.57362">
        <ele>294.654999</ele>
        <time>2008-09-07T09:32:55Z</time>
      </trkpt>
      <trkpt lat="43.15809" lon="2.57306">
        <ele>296.994995</ele>
        <time>2008-09-07T09:33:16Z</time>
      </trkpt>
      <trkpt lat="43.1579" lon="2.57252">
        <ele>300.224335</ele>
        <time>2008-09-07T09:33:36Z</time>
      </trkpt>
      <trkpt lat="43.15785" lon="2.57227">
        <ele>301.358734</ele>
        <time>2008-09-07T09:33:48Z</time>
      </trkpt>
      <trkpt lat="43.15784" lon="2.5722">
        <ele>301.584991</ele>
        <time>2008-09-07T09:34:11Z</time>
      </trkpt>
      <trkpt lat="43.15786" lon="2.57216">
        <ele>301.714996</ele>
        <time>2008-09-07T09:35:41Z</time>
      </trkpt>
      <trkpt lat="43.15779" lon="2.57183">
        <ele>304.429993</ele>
        <time>2008-09-07T09:35:51Z</time>
      </trkpt>
      <trkpt lat="43.15777" lon="2.57134">
        <ele>307.229889</ele>
        <time>2008-09-07T09:36:03Z</time>
      </trkpt>
      <trkpt lat="43.15751" lon="2.57065">
        <ele>309.654816</ele>
        <time>2008-09-07T09:36:30Z</time>
      </trkpt>
      <trkpt lat="43.15777" lon="2.57042">
        <ele>311.647034</ele>
        <time>2008-09-07T09:36:46Z</time>
      </trkpt>
      <trkpt lat="43.15806" lon="2.57032">
        <ele>312.446777</ele>
        <time>2008-09-07T09:37:01Z</time>
      </trkpt>
      <trkpt lat="43.15826" lon="2.57001">
        <ele>315.45694</ele>
        <time>2008-09-07T09:37:15Z</time>
      </trkpt>
      <trkpt lat="43.15828" lon="2.56983">
        <ele>317.218781</ele>
        <time>2008-09-07T09:37:24Z</time>
      </trkpt>
      <trkpt lat="43.15822" lon="2.56938">
        <ele>320.867645</ele>
        <time>2008-09-07T09:37:45Z</time>
      </trkpt>
      <trkpt lat="43.15815" lon="2.56909">
        <ele>322.587494</ele>
        <time>2008-09-07T09:37:58Z</time>
      </trkpt>
      <trkpt lat="43.15826" lon="2.5689">
        <ele>324.23526</ele>
        <time>2008-09-07T09:38:09Z</time>
      </trkpt>
      <trkpt lat="43.15849" lon="2.56876">
        <ele>325.721527</ele>
        <time>2008-09-07T09:38:23Z</time>
      </trkpt>
      <trkpt lat="43.15867" lon="2.56824">
        <ele>330.131805</ele>
        <time>2008-09-07T09:38:47Z</time>
      </trkpt>
      <trkpt lat="43.15858" lon="2.56792">
        <ele>331.608093</ele>
        <time>2008-09-07T09:39:00Z</time>
      </trkpt>
      <trkpt lat="43.15822" lon="2.56681">
        <ele>329.181244</ele>
        <time>2008-09-07T09:39:30Z</time>
      </trkpt>
      <trkpt lat="43.15804" lon="2.56667">
        <ele>326.15387</ele>
        <time>2008-09-07T09:39:37Z</time>
      </trkpt>
      <trkpt lat="43.15799" lon="2.56627">
        <ele>325.788116</ele>
        <time>2008-09-07T09:39:44Z</time>
      </trkpt>
      <trkpt lat="43.15796" lon="2.56567">
        <ele>322.520599</ele>
        <time>2008-09-07T09:39:53Z</time>
      </trkpt>
      <trkpt lat="43.15777" lon="2.56554">
        <ele>319.389771</ele>
        <time>2008-09-07T09:39:58Z</time>
      </trkpt>
      <trkpt lat="43.15772" lon="2.56558">
        <ele>319.347961</ele>
        <time>2008-09-07T09:40:05Z</time>
      </trkpt>
      <trkpt lat="43.15773" lon="2.56558">
        <ele>319.396881</ele>
        <time>2008-09-07T09:47:14Z</time>
      </trkpt>
      <trkpt lat="43.15776" lon="2.5655">
        <ele>319.115387</ele>
        <time>2008-09-07T09:47:52Z</time>
      </trkpt>
      <trkpt lat="43.15778" lon="2.56514">
        <ele>319.552124</ele>
        <time>2008-09-07T09:48:04Z</time>
      </trkpt>
      <trkpt lat="43.15759" lon="2.56494">
        <ele>320.597137</ele>
        <time>2008-09-07T09:48:21Z</time>
      </trkpt>
      <trkpt lat="43.15748" lon="2.56484">
        <ele>321.48999</ele>
        <time>2008-09-07T09:48:30Z</time>
      </trkpt>
      <trkpt lat="43.15744" lon="2.56467">
        <ele>322.202484</ele>
        <time>2008-09-07T09:48:38Z</time>
      </trkpt>
      <trkpt lat="43.1576" lon="2.56445">
        <ele>322.225006</ele>
        <time>2008-09-07T09:48:51Z</time>
      </trkpt>
      <trkpt lat="43.15759" lon="2.56427">
        <ele>322.847504</ele>
        <time>2008-09-07T09:48:59Z</time>
      </trkpt>
      <trkpt lat="43.1573" lon="2.56387">
        <ele>325.357483</ele>
        <time>2008-09-07T09:49:11Z</time>
      </trkpt>
      <trkpt lat="43.15704" lon="2.56318">
        <ele>327.624146</ele>
        <time>2008-09-07T09:49:24Z</time>
      </trkpt>
      <trkpt lat="43.15686" lon="2.56232">
        <ele>328.973755</ele>
        <time>2008-09-07T09:49:37Z</time>
      </trkpt>
      <trkpt lat="43.15685" lon="2.56191">
        <ele>329.633759</ele>
        <time>2008-09-07T09:49:46Z</time>
      </trkpt>
      <trkpt lat="43.15698" lon="2.56144">
        <ele>331.155975</ele>
        <time>2008-09-07T09:49:57Z</time>
      </trkpt>
      <trkpt lat="43.15705" lon="2.56056">
        <ele>332.983765</ele>
        <time>2008-09-07T09:50:11Z</time>
      </trkpt>
      <trkpt lat="43.1572" lon="2.55984">
        <ele>334.514984</ele>
        <time>2008-09-07T09:50:25Z</time>
      </trkpt>
      <trkpt lat="43.15751" lon="2.55961">
        <ele>333.878754</ele>
        <time>2008-09-07T09:50:36Z</time>
      </trkpt>
      <trkpt lat="43.15801" lon="2.55921">
        <ele>331.729553</ele>
        <time>2008-09-07T09:50:52Z</time>
      </trkpt>
      <trkpt lat="43.1585" lon="2.55894">
        <ele>328.345001</ele>
        <time>2008-09-07T09:51:04Z</time>
      </trkpt>
      <trkpt lat="43.15889" lon="2.55859">
        <ele>326.147003</ele>
        <time>2008-09-07T09:51:14Z</time>
      </trkpt>
      <trkpt lat="43.15917" lon="2.55821">
        <ele>325.423065</ele>
        <time>2008-09-07T09:51:22Z</time>
      </trkpt>
      <trkpt lat="43.15932" lon="2.55776">
        <ele>324.797516</ele>
        <time>2008-09-07T09:51:30Z</time>
      </trkpt>
      <trkpt lat="43.15928" lon="2.55722">
        <ele>326.885284</ele>
        <time>2008-09-07T09:51:39Z</time>
      </trkpt>
      <trkpt lat="43.15933" lon="2.55658">
        <ele>328.157501</ele>
        <time>2008-09-07T09:51:49Z</time>
      </trkpt>
      <trkpt lat="43.15939" lon="2.55615">
        <ele>328.942505</ele>
        <time>2008-09-07T09:51:56Z</time>
      </trkpt>
      <trkpt lat="43.15929" lon="2.5559">
        <ele>330.890015</ele>
        <time>2008-09-07T09:52:01Z</time>
      </trkpt>
      <trkpt lat="43.15911" lon="2.55524">
        <ele>333.820343</ele>
        <time>2008-09-07T09:52:15Z</time>
      </trkpt>
      <trkpt lat="43.15885" lon="2.5546">
        <ele>336.111328</ele>
        <time>2008-09-07T09:52:34Z</time>
      </trkpt>
      <trkpt lat="43.15877" lon="2.55396">
        <ele>335.725006</ele>
        <time>2008-09-07T09:52:47Z</time>
      </trkpt>
      <trkpt lat="43.15882" lon="2.55345">
        <ele>334.778168</ele>
        <time>2008-09-07T09:52:55Z</time>
      </trkpt>
      <trkpt lat="43.15886" lon="2.55277">
        <ele>335.980499</ele>
        <time>2008-09-07T09:53:08Z</time>
      </trkpt>
      <trkpt lat="43.15897" lon="2.55213">
        <ele>337.922516</ele>
        <time>2008-09-07T09:53:22Z</time>
      </trkpt>
      <trkpt lat="43.15904" lon="2.55161">
        <ele>339.073425</ele>
        <time>2008-09-07T09:53:34Z</time>
      </trkpt>
      <trkpt lat="43.15908" lon="2.55116">
        <ele>339.919159</ele>
        <time>2008-09-07T09:53:44Z</time>
      </trkpt>
      <trkpt lat="43.15923" lon="2.55081">
        <ele>340.337952</ele>
        <time>2008-09-07T09:53:54Z</time>
      </trkpt>
      <trkpt lat="43.15934" lon="2.55063">
        <ele>342.004883</ele>
        <time>2008-09-07T09:54:01Z</time>
      </trkpt>
      <trkpt lat="43.15947" lon="2.5505">
        <ele>343.607208</ele>
        <time>2008-09-07T09:54:07Z</time>
      </trkpt>
      <trkpt lat="43.15957" lon="2.55038">
        <ele>344.742462</ele>
        <time>2008-09-07T09:54:12Z</time>
      </trkpt>
      <trkpt lat="43.15975" lon="2.55024">
        <ele>347.026703</ele>
        <time>2008-09-07T09:54:21Z</time>
      </trkpt>
      <trkpt lat="43.15995" lon="2.55004">
        <ele>349.0495</ele>
        <time>2008-09-07T09:54:32Z</time>
      </trkpt>
      <trkpt lat="43.16007" lon="2.54984">
        <ele>349.048431</ele>
        <time>2008-09-07T09:54:41Z</time>
      </trkpt>
      <trkpt lat="43.16036" lon="2.54977">
        <ele>351.782501</ele>
        <time>2008-09-07T09:54:55Z</time>
      </trkpt>
      <trkpt lat="43.16065" lon="2.54967">
        <ele>354.20636</ele>
        <time>2008-09-07T09:55:10Z</time>
      </trkpt>
      <trkpt lat="43.16085" lon="2.54963">
        <ele>356.026001</ele>
        <time>2008-09-07T09:55:20Z</time>
      </trkpt>
      <trkpt lat="43.16141" lon="2.54944">
        <ele>360.221985</ele>
        <time>2008-09-07T09:55:46Z</time>
      </trkpt>
      <trkpt lat="43.16161" lon="2.54915">
        <ele>356.640442</ele>
        <time>2008-09-07T09:55:56Z</time>
      </trkpt>
      <trkpt lat="43.16204" lon="2.54897">
        <ele>360.040741</ele>
        <time>2008-09-07T09:56:05Z</time>
      </trkpt>
      <trkpt lat="43.1624" lon="2.54883">
        <ele>364.129364</ele>
        <time>2008-09-07T09:56:15Z</time>
      </trkpt>
      <trkpt lat="43.16244" lon="2.54851">
        <ele>360.631042</ele>
        <time>2008-09-07T09:56:24Z</time>
      </trkpt>
      <trkpt lat="43.16235" lon="2.54808">
        <ele>356.43689</ele>
        <time>2008-09-07T09:56:35Z</time>
      </trkpt>
      <trkpt lat="43.16229" lon="2.54765">
        <ele>354.890015</ele>
        <time>2008-09-07T09:56:44Z</time>
      </trkpt>
      <trkpt lat="43.16225" lon="2.54724">
        <ele>356.639984</ele>
        <time>2008-09-07T09:56:56Z</time>
      </trkpt>
      <trkpt lat="43.16223" lon="2.54711">
        <ele>356.834991</ele>
        <time>2008-09-07T09:57:11Z</time>
      </trkpt>
      <trkpt lat="43.16222" lon="2.5467">
        <ele>360.370178</ele>
        <time>2008-09-07T09:57:20Z</time>
      </trkpt>
      <trkpt lat="43.16219" lon="2.54621">
        <ele>363.848541</ele>
        <time>2008-09-07T09:57:31Z</time>
      </trkpt>
      <trkpt lat="43.16215" lon="2.54583">
        <ele>366.635498</ele>
        <time>2008-09-07T09:57:42Z</time>
      </trkpt>
      <trkpt lat="43.16221" lon="2.54568">
        <ele>368.169006</ele>
        <time>2008-09-07T09:57:49Z</time>
      </trkpt>
      <trkpt lat="43.16227" lon="2.54541">
        <ele>369.938934</ele>
        <time>2008-09-07T09:58:12Z</time>
      </trkpt>
      <trkpt lat="43.16227" lon="2.54528">
        <ele>370.786743</ele>
        <time>2008-09-07T09:58:22Z</time>
      </trkpt>
      <trkpt lat="43.16234" lon="2.54517">
        <ele>370.521118</ele>
        <time>2008-09-07T09:58:32Z</time>
      </trkpt>
      <trkpt lat="43.16241" lon="2.54498">
        <ele>374.277008</ele>
        <time>2008-09-07T09:58:48Z</time>
      </trkpt>
      <trkpt lat="43.16245" lon="2.5448">
        <ele>376.289185</ele>
        <time>2008-09-07T09:59:03Z</time>
      </trkpt>
      <trkpt lat="43.1624" lon="2.54467">
        <ele>375.891388</ele>
        <time>2008-09-07T09:59:14Z</time>
      </trkpt>
      <trkpt lat="43.16235" lon="2.54458">
        <ele>375.64975</ele>
        <time>2008-09-07T09:59:27Z</time>
      </trkpt>
      <trkpt lat="43.16236" lon="2.54447">
        <ele>377.043457</ele>
        <time>2008-09-07T09:59:39Z</time>
      </trkpt>
      <trkpt lat="43.16231" lon="2.5443">
        <ele>378.78125</ele>
        <time>2008-09-07T09:59:57Z</time>
      </trkpt>
      <trkpt lat="43.16219" lon="2.54424">
        <ele>380.567963</ele>
        <time>2008-09-07T10:00:13Z</time>
      </trkpt>
      <trkpt lat="43.16207" lon="2.54421">
        <ele>381.98288</ele>
        <time>2008-09-07T10:00:29Z</time>
      </trkpt>
      <trkpt lat="43.162" lon="2.54415">
        <ele>383.071869</ele>
        <time>2008-09-07T10:00:39Z</time>
      </trkpt>
      <trkpt lat="43.16193" lon="2.54407">
        <ele>384.220673</ele>
        <time>2008-09-07T10:00:50Z</time>
      </trkpt>
      <trkpt lat="43.16193" lon="2.54406">
        <ele>384.320099</ele>
        <time>2008-09-07T10:00:54Z</time>
      </trkpt>
      <trkpt lat="43.16184" lon="2.54401">
        <ele>385.287262</ele>
        <time>2008-09-07T10:01:02Z</time>
      </trkpt>
      <trkpt lat="43.16178" lon="2.54384">
        <ele>387.680634</ele>
        <time>2008-09-07T10:01:17Z</time>
      </trkpt>
      <trkpt lat="43.16177" lon="2.54377">
        <ele>388.692169</ele>
        <time>2008-09-07T10:01:26Z</time>
      </trkpt>
      <trkpt lat="43.16178" lon="2.54374">
        <ele>388.933929</ele>
        <time>2008-09-07T10:01:32Z</time>
      </trkpt>
      <trkpt lat="43.16186" lon="2.54365">
        <ele>389.727875</ele>
        <time>2008-09-07T10:01:39Z</time>
      </trkpt>
      <trkpt lat="43.16197" lon="2.54346">
        <ele>391.537506</ele>
        <time>2008-09-07T10:01:49Z</time>
      </trkpt>
      <trkpt lat="43.16202" lon="2.54334">
        <ele>392.785431</ele>
        <time>2008-09-07T10:01:54Z</time>
      </trkpt>
      <trkpt lat="43.16199" lon="2.54323">
        <ele>394.735962</ele>
        <time>2008-09-07T10:02:01Z</time>
      </trkpt>
      <trkpt lat="43.16192" lon="2.54317">
        <ele>396.240936</ele>
        <time>2008-09-07T10:02:07Z</time>
      </trkpt>
      <trkpt lat="43.16185" lon="2.54309">
        <ele>397.857391</ele>
        <time>2008-09-07T10:02:16Z</time>
      </trkpt>
      <trkpt lat="43.16181" lon="2.54298">
        <ele>399.639099</ele>
        <time>2008-09-07T10:02:23Z</time>
      </trkpt>
      <trkpt lat="43.16178" lon="2.54279">
        <ele>402.368439</ele>
        <time>2008-09-07T10:02:32Z</time>
      </trkpt>
      <trkpt lat="43.16183" lon="2.5427">
        <ele>403.696655</ele>
        <time>2008-09-07T10:02:43Z</time>
      </trkpt>
      <trkpt lat="43.16183" lon="2.54268">
        <ele>404.0177</ele>
        <time>2008-09-07T10:02:49Z</time>
      </trkpt>
      <trkpt lat="43.1618" lon="2.54255">
        <ele>405.522461</ele>
        <time>2008-09-07T10:03:00Z</time>
      </trkpt>
      <trkpt lat="43.16174" lon="2.5425">
        <ele>406.05191</ele>
        <time>2008-09-07T10:03:13Z</time>
      </trkpt>
      <trkpt lat="43.16174" lon="2.54242">
        <ele>406.980072</ele>
        <time>2008-09-07T10:03:19Z</time>
      </trkpt>
      <trkpt lat="43.16171" lon="2.5423">
        <ele>408.410919</ele>
        <time>2008-09-07T10:03:31Z</time>
      </trkpt>
      <trkpt lat="43.16168" lon="2.54225">
        <ele>408.878632</ele>
        <time>2008-09-07T10:03:38Z</time>
      </trkpt>
      <trkpt lat="43.16166" lon="2.54216">
        <ele>409.841644</ele>
        <time>2008-09-07T10:03:47Z</time>
      </trkpt>
      <trkpt lat="43.16163" lon="2.54196">
        <ele>412.666473</ele>
        <time>2008-09-07T10:04:05Z</time>
      </trkpt>
      <trkpt lat="43.16158" lon="2.54184">
        <ele>413.881866</ele>
        <time>2008-09-07T10:04:15Z</time>
      </trkpt>
      <trkpt lat="43.16155" lon="2.54181">
        <ele>413.986115</ele>
        <time>2008-09-07T10:04:23Z</time>
      </trkpt>
      <trkpt lat="43.16145" lon="2.54174">
        <ele>413.741608</ele>
        <time>2008-09-07T10:04:30Z</time>
      </trkpt>
      <trkpt lat="43.16121" lon="2.54144">
        <ele>413.33905</ele>
        <time>2008-09-07T10:05:04Z</time>
      </trkpt>
      <trkpt lat="43.16101" lon="2.54133">
        <ele>410.554108</ele>
        <time>2008-09-07T10:05:13Z</time>
      </trkpt>
      <trkpt lat="43.16082" lon="2.54112">
        <ele>407.54303</ele>
        <time>2008-09-07T10:05:21Z</time>
      </trkpt>
      <trkpt lat="43.16075" lon="2.541">
        <ele>406.559052</ele>
        <time>2008-09-07T10:05:25Z</time>
      </trkpt>
      <trkpt lat="43.16058" lon="2.54086">
        <ele>402.878815</ele>
        <time>2008-09-07T10:05:32Z</time>
      </trkpt>
      <trkpt lat="43.16051" lon="2.54073">
        <ele>401.809387</ele>
        <time>2008-09-07T10:05:58Z</time>
      </trkpt>
      <trkpt lat="43.16026" lon="2.54048">
        <ele>395.916046</ele>
        <time>2008-09-07T10:06:11Z</time>
      </trkpt>
      <trkpt lat="43.16014" lon="2.54032">
        <ele>393.093689</ele>
        <time>2008-09-07T10:06:16Z</time>
      </trkpt>
      <trkpt lat="43.16002" lon="2.54022">
        <ele>390.933685</ele>
        <time>2008-09-07T10:06:20Z</time>
      </trkpt>
      <trkpt lat="43.15984" lon="2.54006">
        <ele>387.460449</ele>
        <time>2008-09-07T10:06:26Z</time>
      </trkpt>
      <trkpt lat="43.15976" lon="2.5399">
        <ele>386.111206</ele>
        <time>2008-09-07T10:06:30Z</time>
      </trkpt>
      <trkpt lat="43.15958" lon="2.53979">
        <ele>380.184875</ele>
        <time>2008-09-07T10:06:37Z</time>
      </trkpt>
      <trkpt lat="43.15939" lon="2.5397">
        <ele>374.837646</ele>
        <time>2008-09-07T10:06:43Z</time>
      </trkpt>
      <trkpt lat="43.15924" lon="2.53957">
        <ele>371.890656</ele>
        <time>2008-09-07T10:06:50Z</time>
      </trkpt>
      <trkpt lat="43.15896" lon="2.53944">
        <ele>367.178802</ele>
        <time>2008-09-07T10:06:59Z</time>
      </trkpt>
      <trkpt lat="43.15872" lon="2.53948">
        <ele>361.331207</ele>
        <time>2008-09-07T10:07:08Z</time>
      </trkpt>
      <trkpt lat="43.15848" lon="2.5395">
        <ele>356.491302</ele>
        <time>2008-09-07T10:07:14Z</time>
      </trkpt>
      <trkpt lat="43.15828" lon="2.53952">
        <ele>352.410736</ele>
        <time>2008-09-07T10:07:19Z</time>
      </trkpt>
      <trkpt lat="43.15809" lon="2.5396">
        <ele>347.535706</ele>
        <time>2008-09-07T10:07:25Z</time>
      </trkpt>
      <trkpt lat="43.15787" lon="2.53965">
        <ele>342.190948</ele>
        <time>2008-09-07T10:07:32Z</time>
      </trkpt>
      <trkpt lat="43.15766" lon="2.53975">
        <ele>338.296417</ele>
        <time>2008-09-07T10:07:39Z</time>
      </trkpt>
      <trkpt lat="43.15745" lon="2.53993">
        <ele>331.387512</ele>
        <time>2008-09-07T10:07:47Z</time>
      </trkpt>
      <trkpt lat="43.15723" lon="2.54002">
        <ele>322.930206</ele>
        <time>2008-09-07T10:07:55Z</time>
      </trkpt>
      <trkpt lat="43.15695" lon="2.54021">
        <ele>306.436493</ele>
        <time>2008-09-07T10:08:06Z</time>
      </trkpt>
      <trkpt lat="43.15679" lon="2.54029">
        <ele>298.584381</ele>
        <time>2008-09-07T10:08:13Z</time>
      </trkpt>
      <trkpt lat="43.15663" lon="2.54044">
        <ele>292.67453</ele>
        <time>2008-09-07T10:08:19Z</time>
      </trkpt>
      <trkpt lat="43.15653" lon="2.5405">
        <ele>289.17334</ele>
        <time>2008-09-07T10:08:23Z</time>
      </trkpt>
      <trkpt lat="43.15639" lon="2.54052">
        <ele>285.448975</ele>
        <time>2008-09-07T10:08:29Z</time>
      </trkpt>
      <trkpt lat="43.1563" lon="2.54041">
        <ele>284.334167</ele>
        <time>2008-09-07T10:08:34Z</time>
      </trkpt>
      <trkpt lat="43.1561" lon="2.54023">
        <ele>281.565491</ele>
        <time>2008-09-07T10:08:40Z</time>
      </trkpt>
      <trkpt lat="43.15565" lon="2.54056">
        <ele>269.077484</ele>
        <time>2008-09-07T10:08:49Z</time>
      </trkpt>
      <trkpt lat="43.15527" lon="2.54057">
        <ele>262.053223</ele>
        <time>2008-09-07T10:08:55Z</time>
      </trkpt>
      <trkpt lat="43.15504" lon="2.5408">
        <ele>257.522705</ele>
        <time>2008-09-07T10:09:03Z</time>
      </trkpt>
      <trkpt lat="43.15503" lon="2.541">
        <ele>256.605774</ele>
        <time>2008-09-07T10:09:08Z</time>
      </trkpt>
      <trkpt lat="43.15493" lon="2.541">
        <ele>255.719742</ele>
        <time>2008-09-07T10:09:13Z</time>
      </trkpt>
      <trkpt lat="43.15462" lon="2.54079">
        <ele>254.333389</ele>
        <time>2008-09-07T10:09:20Z</time>
      </trkpt>
      <trkpt lat="43.15443" lon="2.5406">
        <ele>255.741241</ele>
        <time>2008-09-07T10:09:26Z</time>
      </trkpt>
      <trkpt lat="43.15426" lon="2.54067">
        <ele>255.881256</ele>
        <time>2008-09-07T10:09:32Z</time>
      </trkpt>
      <trkpt lat="43.15404" lon="2.54116">
        <ele>256.875214</ele>
        <time>2008-09-07T10:09:45Z</time>
      </trkpt>
      <trkpt lat="43.15391" lon="2.54139">
        <ele>257.504181</ele>
        <time>2008-09-07T10:09:57Z</time>
      </trkpt>
      <trkpt lat="43.15385" lon="2.54155">
        <ele>257.207703</ele>
        <time>2008-09-07T10:10:03Z</time>
      </trkpt>
      <trkpt lat="43.15381" lon="2.54172">
        <ele>256.627502</ele>
        <time>2008-09-07T10:10:09Z</time>
      </trkpt>
      <trkpt lat="43.1537" lon="2.54204">
        <ele>256.218689</ele>
        <time>2008-09-07T10:10:17Z</time>
      </trkpt>
      <trkpt lat="43.15356" lon="2.54224">
        <ele>256.466644</ele>
        <time>2008-09-07T10:10:25Z</time>
      </trkpt>
      <trkpt lat="43.15338" lon="2.54242">
        <ele>256.504486</ele>
        <time>2008-09-07T10:10:32Z</time>
      </trkpt>
      <trkpt lat="43.15315" lon="2.54275">
        <ele>252.809143</ele>
        <time>2008-09-07T10:10:41Z</time>
      </trkpt>
      <trkpt lat="43.15299" lon="2.54279">
        <ele>252.293762</ele>
        <time>2008-09-07T10:10:48Z</time>
      </trkpt>
      <trkpt lat="43.15278" lon="2.54292">
        <ele>248.879837</ele>
        <time>2008-09-07T10:10:54Z</time>
      </trkpt>
      <trkpt lat="43.15265" lon="2.54289">
        <ele>247.285507</ele>
        <time>2008-09-07T10:10:59Z</time>
      </trkpt>
      <trkpt lat="43.1523" lon="2.54261">
        <ele>244.748505</ele>
        <time>2008-09-07T10:11:17Z</time>
      </trkpt>
      <trkpt lat="43.15213" lon="2.54252">
        <ele>242.271301</ele>
        <time>2008-09-07T10:11:32Z</time>
      </trkpt>
      <trkpt lat="43.15208" lon="2.5422">
        <ele>244.028549</ele>
        <time>2008-09-07T10:11:41Z</time>
      </trkpt>
      <trkpt lat="43.15196" lon="2.54175">
        <ele>246.032227</ele>
        <time>2008-09-07T10:11:52Z</time>
      </trkpt>
      <trkpt lat="43.15186" lon="2.54126">
        <ele>248.489838</ele>
        <time>2008-09-07T10:12:08Z</time>
      </trkpt>
      <trkpt lat="43.15192" lon="2.54084">
        <ele>253.311874</ele>
        <time>2008-09-07T10:12:22Z</time>
      </trkpt>
      <trkpt lat="43.15251" lon="2.53935">
        <ele>266.03891</ele>
        <time>2008-09-07T10:13:30Z</time>
      </trkpt>
      <trkpt lat="43.15268" lon="2.5391">
        <ele>270.236603</ele>
        <time>2008-09-07T10:13:45Z</time>
      </trkpt>
      <trkpt lat="43.15282" lon="2.53885">
        <ele>274.621246</ele>
        <time>2008-09-07T10:14:00Z</time>
      </trkpt>
      <trkpt lat="43.15287" lon="2.53858">
        <ele>275.577271</ele>
        <time>2008-09-07T10:14:14Z</time>
      </trkpt>
      <trkpt lat="43.15269" lon="2.53827">
        <ele>276.523529</ele>
        <time>2008-09-07T10:14:31Z</time>
      </trkpt>
      <trkpt lat="43.15241" lon="2.53808">
        <ele>277.636017</ele>
        <time>2008-09-07T10:14:48Z</time>
      </trkpt>
      <trkpt lat="43.1522" lon="2.53789">
        <ele>279.805786</ele>
        <time>2008-09-07T10:15:03Z</time>
      </trkpt>
      <trkpt lat="43.15228" lon="2.53781">
        <ele>281.45755</ele>
        <time>2008-09-07T10:15:10Z</time>
      </trkpt>
      <trkpt lat="43.15246" lon="2.5378">
        <ele>282.443634</ele>
        <time>2008-09-07T10:15:21Z</time>
      </trkpt>
      <trkpt lat="43.15268" lon="2.53775">
        <ele>284.652496</ele>
        <time>2008-09-07T10:15:36Z</time>
      </trkpt>
      <trkpt lat="43.15293" lon="2.53772">
        <ele>286.804382</ele>
        <time>2008-09-07T10:15:52Z</time>
      </trkpt>
      <trkpt lat="43.15334" lon="2.53751">
        <ele>295.926758</ele>
        <time>2008-09-07T10:16:22Z</time>
      </trkpt>
      <trkpt lat="43.15346" lon="2.53755">
        <ele>296.47348</ele>
        <time>2008-09-07T10:16:31Z</time>
      </trkpt>
      <trkpt lat="43.15408" lon="2.53772">
        <ele>295.576202</ele>
        <time>2008-09-07T10:17:12Z</time>
      </trkpt>
      <trkpt lat="43.15431" lon="2.53768">
        <ele>295.807861</ele>
        <time>2008-09-07T10:17:28Z</time>
      </trkpt>
      <trkpt lat="43.15451" lon="2.53755">
        <ele>296.867554</ele>
        <time>2008-09-07T10:17:43Z</time>
      </trkpt>
      <trkpt lat="43.15457" lon="2.53745">
        <ele>298.734802</ele>
        <time>2008-09-07T10:17:50Z</time>
      </trkpt>
      <trkpt lat="43.15467" lon="2.53727">
        <ele>302.289246</ele>
        <time>2008-09-07T10:18:01Z</time>
      </trkpt>
      <trkpt lat="43.15487" lon="2.53694">
        <ele>304.6987</ele>
        <time>2008-09-07T10:18:21Z</time>
      </trkpt>
      <trkpt lat="43.15497" lon="2.53659">
        <ele>306.964661</ele>
        <time>2008-09-07T10:18:38Z</time>
      </trkpt>
      <trkpt lat="43.15499" lon="2.53632">
        <ele>311.560333</ele>
        <time>2008-09-07T10:18:51Z</time>
      </trkpt>
      <trkpt lat="43.15506" lon="2.53598">
        <ele>316.420898</ele>
        <time>2008-09-07T10:19:07Z</time>
      </trkpt>
      <trkpt lat="43.15521" lon="2.53583">
        <ele>318.272949</ele>
        <time>2008-09-07T10:19:16Z</time>
      </trkpt>
      <trkpt lat="43.15538" lon="2.53587">
        <ele>317.605133</ele>
        <time>2008-09-07T10:19:25Z</time>
      </trkpt>
      <trkpt lat="43.15559" lon="2.53579">
        <ele>319.026459</ele>
        <time>2008-09-07T10:19:37Z</time>
      </trkpt>
      <trkpt lat="43.15583" lon="2.53546">
        <ele>324.753235</ele>
        <time>2008-09-07T10:19:55Z</time>
      </trkpt>
      <trkpt lat="43.15609" lon="2.53527">
        <ele>326.952393</ele>
        <time>2008-09-07T10:20:10Z</time>
      </trkpt>
      <trkpt lat="43.15632" lon="2.53501">
        <ele>329.534698</ele>
        <time>2008-09-07T10:20:23Z</time>
      </trkpt>
      <trkpt lat="43.15631" lon="2.53463">
        <ele>330.312134</ele>
        <time>2008-09-07T10:20:35Z</time>
      </trkpt>
      <trkpt lat="43.1561" lon="2.53418">
        <ele>332.700134</ele>
        <time>2008-09-07T10:20:52Z</time>
      </trkpt>
      <trkpt lat="43.15596" lon="2.53391">
        <ele>336.089996</ele>
        <time>2008-09-07T10:21:07Z</time>
      </trkpt>
      <trkpt lat="43.15583" lon="2.53363">
        <ele>339.617493</ele>
        <time>2008-09-07T10:21:21Z</time>
      </trkpt>
      <trkpt lat="43.15563" lon="2.53326">
        <ele>343.349518</ele>
        <time>2008-09-07T10:21:39Z</time>
      </trkpt>
      <trkpt lat="43.15541" lon="2.53298">
        <ele>346.892273</ele>
        <time>2008-09-07T10:21:57Z</time>
      </trkpt>
      <trkpt lat="43.15524" lon="2.53281">
        <ele>349.723267</ele>
        <time>2008-09-07T10:22:10Z</time>
      </trkpt>
      <trkpt lat="43.15483" lon="2.53258">
        <ele>354.96759</ele>
        <time>2008-09-07T10:22:40Z</time>
      </trkpt>
      <trkpt lat="43.15462" lon="2.5326">
        <ele>357.250732</ele>
        <time>2008-09-07T10:22:54Z</time>
      </trkpt>
      <trkpt lat="43.15432" lon="2.53266">
        <ele>359.80368</ele>
        <time>2008-09-07T10:23:12Z</time>
      </trkpt>
      <trkpt lat="43.15382" lon="2.53274">
        <ele>361.274994</ele>
        <time>2008-09-07T10:23:40Z</time>
      </trkpt>
      <trkpt lat="43.15355" lon="2.53237">
        <ele>361.285004</ele>
        <time>2008-09-07T10:23:53Z</time>
      </trkpt>
      <trkpt lat="43.15313" lon="2.53187">
        <ele>363.521393</ele>
        <time>2008-09-07T10:24:10Z</time>
      </trkpt>
      <trkpt lat="43.1528" lon="2.53183">
        <ele>364.179169</ele>
        <time>2008-09-07T10:24:20Z</time>
      </trkpt>
      <trkpt lat="43.15277" lon="2.53151">
        <ele>365.269226</ele>
        <time>2008-09-07T10:24:29Z</time>
      </trkpt>
      <trkpt lat="43.1528" lon="2.53109">
        <ele>366.083954</ele>
        <time>2008-09-07T10:24:42Z</time>
      </trkpt>
      <trkpt lat="43.15286" lon="2.53102">
        <ele>366.39624</ele>
        <time>2008-09-07T10:24:49Z</time>
      </trkpt>
      <trkpt lat="43.15288" lon="2.53092">
        <ele>366.401245</ele>
        <time>2008-09-07T10:25:15Z</time>
      </trkpt>
      <trkpt lat="43.15296" lon="2.53086">
        <ele>366.671021</ele>
        <time>2008-09-07T10:25:19Z</time>
      </trkpt>
      <trkpt lat="43.1532" lon="2.53081">
        <ele>366.824707</ele>
        <time>2008-09-07T10:25:32Z</time>
      </trkpt>
      <trkpt lat="43.15348" lon="2.53084">
        <ele>367.220001</ele>
        <time>2008-09-07T10:25:46Z</time>
      </trkpt>
      <trkpt lat="43.15379" lon="2.53086">
        <ele>367.899994</ele>
        <time>2008-09-07T10:26:01Z</time>
      </trkpt>
      <trkpt lat="43.15412" lon="2.53064">
        <ele>369.388885</ele>
        <time>2008-09-07T10:26:14Z</time>
      </trkpt>
      <trkpt lat="43.15453" lon="2.53034">
        <ele>373.232574</ele>
        <time>2008-09-07T10:26:30Z</time>
      </trkpt>
      <trkpt lat="43.15485" lon="2.5302">
        <ele>376.950317</ele>
        <time>2008-09-07T10:26:47Z</time>
      </trkpt>
      <trkpt lat="43.15509" lon="2.52997">
        <ele>381.228119</ele>
        <time>2008-09-07T10:27:03Z</time>
      </trkpt>
      <trkpt lat="43.1552" lon="2.52959">
        <ele>383.225342</ele>
        <time>2008-09-07T10:27:18Z</time>
      </trkpt>
      <trkpt lat="43.15533" lon="2.52905">
        <ele>385.098938</ele>
        <time>2008-09-07T10:27:37Z</time>
      </trkpt>
      <trkpt lat="43.15549" lon="2.52858">
        <ele>387.397736</ele>
        <time>2008-09-07T10:27:54Z</time>
      </trkpt>
      <trkpt lat="43.15574" lon="2.52821">
        <ele>390.779999</ele>
        <time>2008-09-07T10:28:10Z</time>
      </trkpt>
      <trkpt lat="43.15602" lon="2.52796">
        <ele>394.054993</ele>
        <time>2008-09-07T10:28:25Z</time>
      </trkpt>
      <trkpt lat="43.15629" lon="2.52769">
        <ele>396.554474</ele>
        <time>2008-09-07T10:28:40Z</time>
      </trkpt>
      <trkpt lat="43.15708" lon="2.52734">
        <ele>399.831696</ele>
        <time>2008-09-07T10:29:15Z</time>
      </trkpt>
      <trkpt lat="43.15735" lon="2.52684">
        <ele>400.719391</ele>
        <time>2008-09-07T10:29:29Z</time>
      </trkpt>
      <trkpt lat="43.15763" lon="2.52609">
        <ele>400.452881</ele>
        <time>2008-09-07T10:29:44Z</time>
      </trkpt>
      <trkpt lat="43.15783" lon="2.5254">
        <ele>402.942413</ele>
        <time>2008-09-07T10:29:57Z</time>
      </trkpt>
      <trkpt lat="43.15821" lon="2.52482">
        <ele>404.587799</ele>
        <time>2008-09-07T10:30:11Z</time>
      </trkpt>
      <trkpt lat="43.1584" lon="2.52439">
        <ele>407.791931</ele>
        <time>2008-09-07T10:30:23Z</time>
      </trkpt>
      <trkpt lat="43.15864" lon="2.52414">
        <ele>409.69339</ele>
        <time>2008-09-07T10:30:39Z</time>
      </trkpt>
      <trkpt lat="43.15889" lon="2.52404">
        <ele>410.981445</ele>
        <time>2008-09-07T10:30:54Z</time>
      </trkpt>
      <trkpt lat="43.1589" lon="2.52372">
        <ele>413.608551</ele>
        <time>2008-09-07T10:31:09Z</time>
      </trkpt>
      <trkpt lat="43.15889" lon="2.52334">
        <ele>415.251068</ele>
        <time>2008-09-07T10:31:23Z</time>
      </trkpt>
      <trkpt lat="43.15897" lon="2.52147">
        <ele>423.893433</ele>
        <time>2008-09-07T10:32:23Z</time>
      </trkpt>
      <trkpt lat="43.15892" lon="2.52087">
        <ele>424.263733</ele>
        <time>2008-09-07T10:32:37Z</time>
      </trkpt>
      <trkpt lat="43.15877" lon="2.52028">
        <ele>422.194275</ele>
        <time>2008-09-07T10:32:48Z</time>
      </trkpt>
      <trkpt lat="43.15876" lon="2.51953">
        <ele>422.375</ele>
        <time>2008-09-07T10:33:01Z</time>
      </trkpt>
      <trkpt lat="43.15885" lon="2.5189">
        <ele>424.25</ele>
        <time>2008-09-07T10:33:16Z</time>
      </trkpt>
      <trkpt lat="43.15897" lon="2.51853">
        <ele>426.351807</ele>
        <time>2008-09-07T10:33:30Z</time>
      </trkpt>
      <trkpt lat="43.15912" lon="2.51814">
        <ele>428.502502</ele>
        <time>2008-09-07T10:33:45Z</time>
      </trkpt>
      <trkpt lat="43.15941" lon="2.51759">
        <ele>433.215942</ele>
        <time>2008-09-07T10:34:08Z</time>
      </trkpt>
      <trkpt lat="43.1593" lon="2.5171">
        <ele>432.703796</ele>
        <time>2008-09-07T10:34:24Z</time>
      </trkpt>
      <trkpt lat="43.15941" lon="2.51665">
        <ele>434.41626</ele>
        <time>2008-09-07T10:34:39Z</time>
      </trkpt>
      <trkpt lat="43.15966" lon="2.51643">
        <ele>438.549988</ele>
        <time>2008-09-07T10:34:53Z</time>
      </trkpt>
      <trkpt lat="43.15995" lon="2.5165">
        <ele>441.496246</ele>
        <time>2008-09-07T10:35:06Z</time>
      </trkpt>
      <trkpt lat="43.16026" lon="2.51631">
        <ele>444.046448</ele>
        <time>2008-09-07T10:35:21Z</time>
      </trkpt>
      <trkpt lat="43.16041" lon="2.51588">
        <ele>444.539001</ele>
        <time>2008-09-07T10:35:35Z</time>
      </trkpt>
      <trkpt lat="43.16035" lon="2.51547">
        <ele>443.596252</ele>
        <time>2008-09-07T10:35:49Z</time>
      </trkpt>
      <trkpt lat="43.16034" lon="2.51497">
        <ele>444.527344</ele>
        <time>2008-09-07T10:36:05Z</time>
      </trkpt>
      <trkpt lat="43.1602" lon="2.5144">
        <ele>443.937042</ele>
        <time>2008-09-07T10:36:20Z</time>
      </trkpt>
      <trkpt lat="43.1602" lon="2.51374">
        <ele>444.516876</ele>
        <time>2008-09-07T10:36:34Z</time>
      </trkpt>
      <trkpt lat="43.16039" lon="2.51312">
        <ele>445.395844</ele>
        <time>2008-09-07T10:36:47Z</time>
      </trkpt>
      <trkpt lat="43.16074" lon="2.51278">
        <ele>447.763855</ele>
        <time>2008-09-07T10:37:00Z</time>
      </trkpt>
      <trkpt lat="43.16089" lon="2.51266">
        <ele>449.176239</ele>
        <time>2008-09-07T10:37:07Z</time>
      </trkpt>
      <trkpt lat="43.16079" lon="2.5122">
        <ele>447.316254</ele>
        <time>2008-09-07T10:37:19Z</time>
      </trkpt>
      <trkpt lat="43.16091" lon="2.51174">
        <ele>447.382507</ele>
        <time>2008-09-07T10:37:32Z</time>
      </trkpt>
      <trkpt lat="43.16151" lon="2.51099">
        <ele>453.351257</ele>
        <time>2008-09-07T10:37:58Z</time>
      </trkpt>
      <trkpt lat="43.16149" lon="2.51061">
        <ele>451.705872</ele>
        <time>2008-09-07T10:38:07Z</time>
      </trkpt>
      <trkpt lat="43.16154" lon="2.51022">
        <ele>450.167419</ele>
        <time>2008-09-07T10:38:18Z</time>
      </trkpt>
      <trkpt lat="43.16204" lon="2.51013">
        <ele>454.704987</ele>
        <time>2008-09-07T10:38:35Z</time>
      </trkpt>
      <trkpt lat="43.16241" lon="2.5098">
        <ele>455.401093</ele>
        <time>2008-09-07T10:38:49Z</time>
      </trkpt>
      <trkpt lat="43.1626" lon="2.5093">
        <ele>454.954987</ele>
        <time>2008-09-07T10:39:02Z</time>
      </trkpt>
      <trkpt lat="43.16261" lon="2.50888">
        <ele>454.720795</ele>
        <time>2008-09-07T10:39:13Z</time>
      </trkpt>
      <trkpt lat="43.16237" lon="2.50849">
        <ele>452.63266</ele>
        <time>2008-09-07T10:39:25Z</time>
      </trkpt>
      <trkpt lat="43.16233" lon="2.50788">
        <ele>453.781281</ele>
        <time>2008-09-07T10:39:39Z</time>
      </trkpt>
      <trkpt lat="43.16237" lon="2.50743">
        <ele>453.966644</ele>
        <time>2008-09-07T10:39:51Z</time>
      </trkpt>
      <trkpt lat="43.16253" lon="2.50682">
        <ele>456.942505</ele>
        <time>2008-09-07T10:40:05Z</time>
      </trkpt>
      <trkpt lat="43.1625" lon="2.50669">
        <ele>456.337494</ele>
        <time>2008-09-07T10:40:14Z</time>
      </trkpt>
      <trkpt lat="43.16252" lon="2.50679">
        <ele>456.695007</ele>
        <time>2008-09-07T10:40:22Z</time>
      </trkpt>
      <trkpt lat="43.16253" lon="2.50679">
        <ele>457.024994</ele>
        <time>2008-09-07T10:40:43Z</time>
      </trkpt>
      <trkpt lat="43.16241" lon="2.50657">
        <ele>454.082489</ele>
        <time>2008-09-07T10:40:51Z</time>
      </trkpt>
      <trkpt lat="43.16221" lon="2.50638">
        <ele>450.624451</ele>
        <time>2008-09-07T10:40:59Z</time>
      </trkpt>
      <trkpt lat="43.16208" lon="2.50635">
        <ele>447.91394</ele>
        <time>2008-09-07T10:41:08Z</time>
      </trkpt>
      <trkpt lat="43.16209" lon="2.50638">
        <ele>447.869476</ele>
        <time>2008-09-07T10:41:42Z</time>
      </trkpt>
      <trkpt lat="43.16193" lon="2.5064">
        <ele>444.219696</ele>
        <time>2008-09-07T10:41:48Z</time>
      </trkpt>
      <trkpt lat="43.16172" lon="2.50614">
        <ele>440.145477</ele>
        <time>2008-09-07T10:41:56Z</time>
      </trkpt>
      <trkpt lat="43.16155" lon="2.50594">
        <ele>436.98999</ele>
        <time>2008-09-07T10:42:01Z</time>
      </trkpt>
      <trkpt lat="43.16126" lon="2.50558">
        <ele>429.556885</ele>
        <time>2008-09-07T10:42:08Z</time>
      </trkpt>
      <trkpt lat="43.16093" lon="2.50531">
        <ele>421.866486</ele>
        <time>2008-09-07T10:42:15Z</time>
      </trkpt>
      <trkpt lat="43.1606" lon="2.50515">
        <ele>413.687988</ele>
        <time>2008-09-07T10:42:24Z</time>
      </trkpt>
      <trkpt lat="43.16027" lon="2.50504">
        <ele>406.441132</ele>
        <time>2008-09-07T10:42:30Z</time>
      </trkpt>
      <trkpt lat="43.15969" lon="2.50491">
        <ele>392.77063</ele>
        <time>2008-09-07T10:42:41Z</time>
      </trkpt>
      <trkpt lat="43.15961" lon="2.50476">
        <ele>392.541016</ele>
        <time>2008-09-07T10:42:47Z</time>
      </trkpt>
      <trkpt lat="43.15964" lon="2.50471">
        <ele>393.529388</ele>
        <time>2008-09-07T10:42:58Z</time>
      </trkpt>
      <trkpt lat="43.15966" lon="2.50426">
        <ele>393.501251</ele>
        <time>2008-09-07T10:43:07Z</time>
      </trkpt>
      <trkpt lat="43.1596" lon="2.50404">
        <ele>391.869873</ele>
        <time>2008-09-07T10:43:11Z</time>
      </trkpt>
      <trkpt lat="43.15942" lon="2.50375">
        <ele>387.790161</ele>
        <time>2008-09-07T10:43:17Z</time>
      </trkpt>
      <trkpt lat="43.15925" lon="2.50352">
        <ele>384.113495</ele>
        <time>2008-09-07T10:43:22Z</time>
      </trkpt>
      <trkpt lat="43.1591" lon="2.50326">
        <ele>380.164032</ele>
        <time>2008-09-07T10:43:27Z</time>
      </trkpt>
      <trkpt lat="43.15884" lon="2.50296">
        <ele>374.579834</ele>
        <time>2008-09-07T10:43:33Z</time>
      </trkpt>
      <trkpt lat="43.15855" lon="2.50261">
        <ele>370.678528</ele>
        <time>2008-09-07T10:43:42Z</time>
      </trkpt>
      <trkpt lat="43.15836" lon="2.50247">
        <ele>368.536255</ele>
        <time>2008-09-07T10:43:49Z</time>
      </trkpt>
      <trkpt lat="43.15814" lon="2.50243">
        <ele>365.724152</ele>
        <time>2008-09-07T10:43:57Z</time>
      </trkpt>
      <trkpt lat="43.1581" lon="2.50227">
        <ele>367.775299</ele>
        <time>2008-09-07T10:44:03Z</time>
      </trkpt>
      <trkpt lat="43.1583" lon="2.50146">
        <ele>369.182678</ele>
        <time>2008-09-07T10:44:19Z</time>
      </trkpt>
      <trkpt lat="43.15851" lon="2.50033">
        <ele>368.646454</ele>
        <time>2008-09-07T10:44:37Z</time>
      </trkpt>
      <trkpt lat="43.15868" lon="2.49936">
        <ele>366.738586</ele>
        <time>2008-09-07T10:44:54Z</time>
      </trkpt>
      <trkpt lat="43.15885" lon="2.49859">
        <ele>366.333618</ele>
        <time>2008-09-07T10:45:08Z</time>
      </trkpt>
      <trkpt lat="43.15896" lon="2.49792">
        <ele>364.609802</ele>
        <time>2008-09-07T10:45:17Z</time>
      </trkpt>
      <trkpt lat="43.1592" lon="2.49674">
        <ele>363.122498</ele>
        <time>2008-09-07T10:45:33Z</time>
      </trkpt>
      <trkpt lat="43.15929" lon="2.49623">
        <ele>364.084015</ele>
        <time>2008-09-07T10:45:40Z</time>
      </trkpt>
      <trkpt lat="43.15947" lon="2.49545">
        <ele>364.630005</ele>
        <time>2008-09-07T10:45:52Z</time>
      </trkpt>
      <trkpt lat="43.1595" lon="2.49519">
        <ele>363.929993</ele>
        <time>2008-09-07T10:46:01Z</time>
      </trkpt>
      <trkpt lat="43.15948" lon="2.49518">
        <ele>363.820007</ele>
        <time>2008-09-07T10:55:31Z</time>
      </trkpt>
      <trkpt lat="43.15952" lon="2.4951">
        <ele>363.73999</ele>
        <time>2008-09-07T10:55:39Z</time>
      </trkpt>
      <trkpt lat="43.15954" lon="2.49509">
        <ele>363.787506</ele>
        <time>2008-09-07T10:55:43Z</time>
      </trkpt>
      <trkpt lat="43.15953" lon="2.49506">
        <ele>363.667511</ele>
        <time>2008-09-07T10:55:48Z</time>
      </trkpt>
      <trkpt lat="43.15955" lon="2.49509">
        <ele>363.839996</ele>
        <time>2008-09-07T10:56:25Z</time>
      </trkpt>
      <trkpt lat="43.15957" lon="2.49509">
        <ele>363.94751</ele>
        <time>2008-09-07T10:56:29Z</time>
      </trkpt>
      <trkpt lat="43.16022" lon="2.49508">
        <ele>364.48407</ele>
        <time>2008-09-07T10:56:51Z</time>
      </trkpt>
      <trkpt lat="43.16046" lon="2.49505">
        <ele>363.696472</ele>
        <time>2008-09-07T10:57:02Z</time>
      </trkpt>
      <trkpt lat="43.16109" lon="2.49504">
        <ele>363.446259</ele>
        <time>2008-09-07T10:57:19Z</time>
      </trkpt>
      <trkpt lat="43.16148" lon="2.49498">
        <ele>363.930573</ele>
        <time>2008-09-07T10:57:32Z</time>
      </trkpt>
      <trkpt lat="43.16198" lon="2.49494">
        <ele>362.627777</ele>
        <time>2008-09-07T10:57:51Z</time>
      </trkpt>
      <trkpt lat="43.16255" lon="2.49495">
        <ele>360.404114</ele>
        <time>2008-09-07T10:58:03Z</time>
      </trkpt>
      <trkpt lat="43.16327" lon="2.49515">
        <ele>360.295288</ele>
        <time>2008-09-07T10:58:15Z</time>
      </trkpt>
      <trkpt lat="43.16392" lon="2.4954">
        <ele>364.692017</ele>
        <time>2008-09-07T10:58:41Z</time>
      </trkpt>
      <trkpt lat="43.16426" lon="2.49561">
        <ele>368.637848</ele>
        <time>2008-09-07T10:59:00Z</time>
      </trkpt>
      <trkpt lat="43.16456" lon="2.49587">
        <ele>371.315338</ele>
        <time>2008-09-07T10:59:17Z</time>
      </trkpt>
      <trkpt lat="43.16489" lon="2.49615">
        <ele>373.657837</ele>
        <time>2008-09-07T10:59:36Z</time>
      </trkpt>
      <trkpt lat="43.16521" lon="2.49614">
        <ele>371.747498</ele>
        <time>2008-09-07T10:59:52Z</time>
      </trkpt>
      <trkpt lat="43.16577" lon="2.49683">
        <ele>379.782471</ele>
        <time>2008-09-07T11:00:25Z</time>
      </trkpt>
      <trkpt lat="43.16595" lon="2.49671">
        <ele>379.058899</ele>
        <time>2008-09-07T11:00:32Z</time>
      </trkpt>
      <trkpt lat="43.1663" lon="2.49635">
        <ele>377.650879</ele>
        <time>2008-09-07T11:00:46Z</time>
      </trkpt>
      <trkpt lat="43.16659" lon="2.49611">
        <ele>374.720062</ele>
        <time>2008-09-07T11:00:55Z</time>
      </trkpt>
      <trkpt lat="43.16691" lon="2.49601">
        <ele>373.747528</ele>
        <time>2008-09-07T11:01:02Z</time>
      </trkpt>
      <trkpt lat="43.16737" lon="2.49616">
        <ele>375.255096</ele>
        <time>2008-09-07T11:01:13Z</time>
      </trkpt>
      <trkpt lat="43.16781" lon="2.49642">
        <ele>376.784119</ele>
        <time>2008-09-07T11:01:27Z</time>
      </trkpt>
      <trkpt lat="43.16806" lon="2.49667">
        <ele>379.692535</ele>
        <time>2008-09-07T11:01:35Z</time>
      </trkpt>
      <trkpt lat="43.1685" lon="2.49661">
        <ele>372.264618</ele>
        <time>2008-09-07T11:01:47Z</time>
      </trkpt>
      <trkpt lat="43.16875" lon="2.49624">
        <ele>366.019653</ele>
        <time>2008-09-07T11:01:53Z</time>
      </trkpt>
      <trkpt lat="43.16893" lon="2.49568">
        <ele>361.128387</ele>
        <time>2008-09-07T11:01:59Z</time>
      </trkpt>
      <trkpt lat="43.16918" lon="2.49557">
        <ele>359.548065</ele>
        <time>2008-09-07T11:02:06Z</time>
      </trkpt>
      <trkpt lat="43.16921" lon="2.49679">
        <ele>358.055756</ele>
        <time>2008-09-07T11:02:24Z</time>
      </trkpt>
      <trkpt lat="43.16934" lon="2.49731">
        <ele>351.699646</ele>
        <time>2008-09-07T11:02:30Z</time>
      </trkpt>
      <trkpt lat="43.16934" lon="2.49768">
        <ele>351.202332</ele>
        <time>2008-09-07T11:02:37Z</time>
      </trkpt>
      <trkpt lat="43.1694" lon="2.4979">
        <ele>348.482208</ele>
        <time>2008-09-07T11:02:41Z</time>
      </trkpt>
      <trkpt lat="43.16971" lon="2.49863">
        <ele>340.96875</ele>
        <time>2008-09-07T11:02:48Z</time>
      </trkpt>
      <trkpt lat="43.17013" lon="2.49964">
        <ele>332.147858</ele>
        <time>2008-09-07T11:02:58Z</time>
      </trkpt>
      <trkpt lat="43.17028" lon="2.4999">
        <ele>329.39035</ele>
        <time>2008-09-07T11:03:02Z</time>
      </trkpt>
      <trkpt lat="43.17037" lon="2.50003">
        <ele>327.636627</ele>
        <time>2008-09-07T11:03:08Z</time>
      </trkpt>
      <trkpt lat="43.17047" lon="2.50005">
        <ele>326.820099</ele>
        <time>2008-09-07T11:03:23Z</time>
      </trkpt>
      <trkpt lat="43.17072" lon="2.50007">
        <ele>325.791595</ele>
        <time>2008-09-07T11:03:32Z</time>
      </trkpt>
      <trkpt lat="43.17087" lon="2.50008">
        <ele>325.26532</ele>
        <time>2008-09-07T11:03:39Z</time>
      </trkpt>
      <trkpt lat="43.1709" lon="2.50006">
        <ele>325.186584</ele>
        <time>2008-09-07T11:03:46Z</time>
      </trkpt>
      <trkpt lat="43.17089" lon="2.50006">
        <ele>325.221191</ele>
        <time>2008-09-07T11:04:08Z</time>
      </trkpt>
      <trkpt lat="43.17097" lon="2.50008">
        <ele>324.84433</ele>
        <time>2008-09-07T11:04:15Z</time>
      </trkpt>
      <trkpt lat="43.17116" lon="2.50009">
        <ele>322.787415</ele>
        <time>2008-09-07T11:04:19Z</time>
      </trkpt>
      <trkpt lat="43.17157" lon="2.50013">
        <ele>317.38562</ele>
        <time>2008-09-07T11:04:29Z</time>
      </trkpt>
      <trkpt lat="43.17169" lon="2.50038">
        <ele>315.774567</ele>
        <time>2008-09-07T11:04:35Z</time>
      </trkpt>
      <trkpt lat="43.17198" lon="2.50093">
        <ele>306.403442</ele>
        <time>2008-09-07T11:04:43Z</time>
      </trkpt>
      <trkpt lat="43.17172" lon="2.50117">
        <ele>310.336365</ele>
        <time>2008-09-07T11:04:48Z</time>
      </trkpt>
      <trkpt lat="43.1717" lon="2.50146">
        <ele>306.632568</ele>
        <time>2008-09-07T11:04:52Z</time>
      </trkpt>
      <trkpt lat="43.17173" lon="2.50184">
        <ele>301.135498</ele>
        <time>2008-09-07T11:04:58Z</time>
      </trkpt>
      <trkpt lat="43.17171" lon="2.50209">
        <ele>297.3573</ele>
        <time>2008-09-07T11:05:04Z</time>
      </trkpt>
      <trkpt lat="43.17179" lon="2.50238">
        <ele>293.90155</ele>
        <time>2008-09-07T11:05:10Z</time>
      </trkpt>
      <trkpt lat="43.17187" lon="2.50269">
        <ele>290.719879</ele>
        <time>2008-09-07T11:05:16Z</time>
      </trkpt>
      <trkpt lat="43.17182" lon="2.50272">
        <ele>289.707062</ele>
        <time>2008-09-07T11:05:24Z</time>
      </trkpt>
      <trkpt lat="43.17173" lon="2.50282">
        <ele>286.413116</ele>
        <time>2008-09-07T11:05:29Z</time>
      </trkpt>
      <trkpt lat="43.17154" lon="2.50277">
        <ele>282.709595</ele>
        <time>2008-09-07T11:05:39Z</time>
      </trkpt>
      <trkpt lat="43.17138" lon="2.50265">
        <ele>281.493011</ele>
        <time>2008-09-07T11:05:49Z</time>
      </trkpt>
      <trkpt lat="43.17125" lon="2.50254">
        <ele>280.570404</ele>
        <time>2008-09-07T11:06:03Z</time>
      </trkpt>
      <trkpt lat="43.17109" lon="2.50246">
        <ele>278.131042</ele>
        <time>2008-09-07T11:06:08Z</time>
      </trkpt>
      <trkpt lat="43.17126" lon="2.50293">
        <ele>272.169708</ele>
        <time>2008-09-07T11:06:16Z</time>
      </trkpt>
      <trkpt lat="43.17142" lon="2.5035">
        <ele>261.234039</ele>
        <time>2008-09-07T11:06:22Z</time>
      </trkpt>
      <trkpt lat="43.17154" lon="2.50388">
        <ele>257.098633</ele>
        <time>2008-09-07T11:06:26Z</time>
      </trkpt>
      <trkpt lat="43.17169" lon="2.50443">
        <ele>247.205582</ele>
        <time>2008-09-07T11:06:38Z</time>
      </trkpt>
      <trkpt lat="43.17163" lon="2.50461">
        <ele>241.238556</ele>
        <time>2008-09-07T11:06:46Z</time>
      </trkpt>
      <trkpt lat="43.17173" lon="2.50494">
        <ele>234.555969</ele>
        <time>2008-09-07T11:06:50Z</time>
      </trkpt>
      <trkpt lat="43.17187" lon="2.50536">
        <ele>226.647827</ele>
        <time>2008-09-07T11:06:55Z</time>
      </trkpt>
      <trkpt lat="43.17188" lon="2.50586">
        <ele>215.616806</ele>
        <time>2008-09-07T11:07:04Z</time>
      </trkpt>
      <trkpt lat="43.17194" lon="2.50616">
        <ele>211.39743</ele>
        <time>2008-09-07T11:07:11Z</time>
      </trkpt>
      <trkpt lat="43.17196" lon="2.50623">
        <ele>210.449402</ele>
        <time>2008-09-07T11:07:19Z</time>
      </trkpt>
      <trkpt lat="43.17195" lon="2.50623">
        <ele>210.532578</ele>
        <time>2008-09-07T11:07:24Z</time>
      </trkpt>
      <trkpt lat="43.17196" lon="2.5063">
        <ele>209.786407</ele>
        <time>2008-09-07T11:07:26Z</time>
      </trkpt>
      <trkpt lat="43.17195" lon="2.50657">
        <ele>207.3255</ele>
        <time>2008-09-07T11:07:32Z</time>
      </trkpt>
      <trkpt lat="43.17204" lon="2.50697">
        <ele>205.502625</ele>
        <time>2008-09-07T11:07:38Z</time>
      </trkpt>
      <trkpt lat="43.17241" lon="2.50725">
        <ele>196.656769</ele>
        <time>2008-09-07T11:07:44Z</time>
      </trkpt>
      <trkpt lat="43.17274" lon="2.50745">
        <ele>187.298798</ele>
        <time>2008-09-07T11:07:48Z</time>
      </trkpt>
      <trkpt lat="43.17298" lon="2.50802">
        <ele>181.523102</ele>
        <time>2008-09-07T11:07:54Z</time>
      </trkpt>
      <trkpt lat="43.17321" lon="2.50853">
        <ele>177.50032</ele>
        <time>2008-09-07T11:08:00Z</time>
      </trkpt>
      <trkpt lat="43.17352" lon="2.50868">
        <ele>171.790131</ele>
        <time>2008-09-07T11:08:05Z</time>
      </trkpt>
      <trkpt lat="43.17378" lon="2.50902">
        <ele>168.652496</ele>
        <time>2008-09-07T11:08:12Z</time>
      </trkpt>
      <trkpt lat="43.17429" lon="2.50896">
        <ele>160.36972</ele>
        <time>2008-09-07T11:08:17Z</time>
      </trkpt>
      <trkpt lat="43.17473" lon="2.50916">
        <ele>155.538147</ele>
        <time>2008-09-07T11:08:21Z</time>
      </trkpt>
      <trkpt lat="43.17532" lon="2.50923">
        <ele>150.910095</ele>
        <time>2008-09-07T11:08:27Z</time>
      </trkpt>
      <trkpt lat="43.17564" lon="2.50933">
        <ele>149.66687</ele>
        <time>2008-09-07T11:08:32Z</time>
      </trkpt>
      <trkpt lat="43.17548" lon="2.5082">
        <ele>142.175552</ele>
        <time>2008-09-07T11:08:47Z</time>
      </trkpt>
      <trkpt lat="43.17547" lon="2.50803">
        <ele>140.777008</ele>
        <time>2008-09-07T11:08:49Z</time>
      </trkpt>
      <trkpt lat="43.17541" lon="2.50766">
        <ele>139.482681</ele>
        <time>2008-09-07T11:08:56Z</time>
      </trkpt>
      <trkpt lat="43.17541" lon="2.50768">
        <ele>139.412689</ele>
        <time>2008-09-07T11:09:01Z</time>
      </trkpt>
      <trkpt lat="43.1754" lon="2.50782">
        <ele>139.252151</ele>
        <time>2008-09-07T11:09:10Z</time>
      </trkpt>
      <trkpt lat="43.17537" lon="2.50781">
        <ele>139.459</ele>
        <time>2008-09-07T11:09:13Z</time>
      </trkpt>
      <trkpt lat="43.17528" lon="2.50764">
        <ele>140.736847</ele>
        <time>2008-09-07T11:09:23Z</time>
      </trkpt>
      <trkpt lat="43.17534" lon="2.50725">
        <ele>141.279572</ele>
        <time>2008-09-07T11:09:38Z</time>
      </trkpt>
      <trkpt lat="43.17531" lon="2.50648">
        <ele>148.849884</ele>
        <time>2008-09-07T11:10:09Z</time>
      </trkpt>
      <trkpt lat="43.17534" lon="2.50608">
        <ele>152.166382</ele>
        <time>2008-09-07T11:10:24Z</time>
      </trkpt>
      <trkpt lat="43.17546" lon="2.50566">
        <ele>152.07283</ele>
        <time>2008-09-07T11:10:38Z</time>
      </trkpt>
      <trkpt lat="43.17563" lon="2.50524">
        <ele>149.381256</ele>
        <time>2008-09-07T11:10:47Z</time>
      </trkpt>
      <trkpt lat="43.17555" lon="2.50499">
        <ele>151.871246</ele>
        <time>2008-09-07T11:10:53Z</time>
      </trkpt>
      <trkpt lat="43.17556" lon="2.50421">
        <ele>153.013748</ele>
        <time>2008-09-07T11:11:06Z</time>
      </trkpt>
      <trkpt lat="43.17554" lon="2.50398">
        <ele>153.793518</ele>
        <time>2008-09-07T11:11:10Z</time>
      </trkpt>
      <trkpt lat="43.17557" lon="2.50306">
        <ele>153.827881</ele>
        <time>2008-09-07T11:11:24Z</time>
      </trkpt>
      <trkpt lat="43.17554" lon="2.50242">
        <ele>154.524994</ele>
        <time>2008-09-07T11:11:33Z</time>
      </trkpt>
      <trkpt lat="43.17545" lon="2.50184">
        <ele>156.779999</ele>
        <time>2008-09-07T11:11:44Z</time>
      </trkpt>
      <trkpt lat="43.17557" lon="2.50148">
        <ele>153.809998</ele>
        <time>2008-09-07T11:11:53Z</time>
      </trkpt>
      <trkpt lat="43.17556" lon="2.50133">
        <ele>154.25</ele>
        <time>2008-09-07T11:11:58Z</time>
      </trkpt>
      <trkpt lat="43.17559" lon="2.50119">
        <ele>153.315002</ele>
        <time>2008-09-07T11:12:16Z</time>
      </trkpt>
      <trkpt lat="43.1757" lon="2.50104">
        <ele>150.53125</ele>
        <time>2008-09-07T11:12:22Z</time>
      </trkpt>
      <trkpt lat="43.17571" lon="2.50102">
        <ele>150.445007</ele>
        <time>2008-09-07T11:12:33Z</time>
      </trkpt>
      <trkpt lat="43.17583" lon="2.50095">
        <ele>147.363754</ele>
        <time>2008-09-07T11:12:36Z</time>
      </trkpt>
      <trkpt lat="43.17592" lon="2.50027">
        <ele>143.104996</ele>
        <time>2008-09-07T11:12:49Z</time>
      </trkpt>
      <trkpt lat="43.17596" lon="2.49972">
        <ele>138.765854</ele>
        <time>2008-09-07T11:12:55Z</time>
      </trkpt>
      <trkpt lat="43.17602" lon="2.49923">
        <ele>134.166183</ele>
        <time>2008-09-07T11:12:59Z</time>
      </trkpt>
      <trkpt lat="43.17609" lon="2.49892">
        <ele>130.386719</ele>
        <time>2008-09-07T11:13:04Z</time>
      </trkpt>
      <trkpt lat="43.176" lon="2.49849">
        <ele>129.442505</ele>
        <time>2008-09-07T11:13:15Z</time>
      </trkpt>
      <trkpt lat="43.17588" lon="2.49792">
        <ele>128.69165</ele>
        <time>2008-09-07T11:13:24Z</time>
      </trkpt>
      <trkpt lat="43.17591" lon="2.49735">
        <ele>123.53875</ele>
        <time>2008-09-07T11:13:32Z</time>
      </trkpt>
      <trkpt lat="43.17609" lon="2.49676">
        <ele>117.139374</ele>
        <time>2008-09-07T11:13:38Z</time>
      </trkpt>
      <trkpt lat="43.17659" lon="2.49655">
        <ele>107.002502</ele>
        <time>2008-09-07T11:13:43Z</time>
      </trkpt>
      <trkpt lat="43.1769" lon="2.49641">
        <ele>101.770195</ele>
        <time>2008-09-07T11:13:46Z</time>
      </trkpt>
      <trkpt lat="43.17711" lon="2.49591">
        <ele>98.798752</ele>
        <time>2008-09-07T11:13:52Z</time>
      </trkpt>
      <trkpt lat="43.17706" lon="2.49492">
        <ele>97.206299</ele>
        <time>2008-09-07T11:14:02Z</time>
      </trkpt>
      <trkpt lat="43.17726" lon="2.49436">
        <ele>95.022308</ele>
        <time>2008-09-07T11:14:09Z</time>
      </trkpt>
      <trkpt lat="43.17709" lon="2.49428">
        <ele>95.362503</ele>
        <time>2008-09-07T11:14:15Z</time>
      </trkpt>
      <trkpt lat="43.17669" lon="2.494">
        <ele>96.622101</ele>
        <time>2008-09-07T11:14:26Z</time>
      </trkpt>
      <trkpt lat="43.17664" lon="2.49396">
        <ele>96.842476</ele>
        <time>2008-09-07T11:14:36Z</time>
      </trkpt>
      <trkpt lat="43.17647" lon="2.49382">
        <ele>97.595764</ele>
        <time>2008-09-07T11:14:43Z</time>
      </trkpt>
      <trkpt lat="43.17632" lon="2.49352">
        <ele>98.272697</ele>
        <time>2008-09-07T11:14:49Z</time>
      </trkpt>
      <trkpt lat="43.17612" lon="2.49302">
        <ele>99.047577</ele>
        <time>2008-09-07T11:14:57Z</time>
      </trkpt>
      <trkpt lat="43.17598" lon="2.49234">
        <ele>99.036423</ele>
        <time>2008-09-07T11:15:09Z</time>
      </trkpt>
      <trkpt lat="43.17595" lon="2.49197">
        <ele>99.075935</ele>
        <time>2008-09-07T11:15:17Z</time>
      </trkpt>
      <trkpt lat="43.17602" lon="2.49165">
        <ele>98.892502</ele>
        <time>2008-09-07T11:15:24Z</time>
      </trkpt>
      <trkpt lat="43.17625" lon="2.49159">
        <ele>99.290001</ele>
        <time>2008-09-07T11:15:30Z</time>
      </trkpt>
      <trkpt lat="43.17627" lon="2.49108">
        <ele>98.222504</ele>
        <time>2008-09-07T11:15:41Z</time>
      </trkpt>
      <trkpt lat="43.17614" lon="2.49049">
        <ele>96.132614</ele>
        <time>2008-09-07T11:15:55Z</time>
      </trkpt>
      <trkpt lat="43.17605" lon="2.48999">
        <ele>94.71315</ele>
        <time>2008-09-07T11:16:07Z</time>
      </trkpt>
      <trkpt lat="43.17616" lon="2.48949">
        <ele>95.898361</ele>
        <time>2008-09-07T11:16:16Z</time>
      </trkpt>
      <trkpt lat="43.17643" lon="2.48949">
        <ele>97.561218</ele>
        <time>2008-09-07T11:16:23Z</time>
      </trkpt>
      <trkpt lat="43.17651" lon="2.49016">
        <ele>99.877403</ele>
        <time>2008-09-07T11:16:35Z</time>
      </trkpt>
      <trkpt lat="43.17667" lon="2.49081">
        <ele>101.360382</ele>
        <time>2008-09-07T11:16:51Z</time>
      </trkpt>
      <trkpt lat="43.17681" lon="2.49151">
        <ele>100.065865</ele>
        <time>2008-09-07T11:17:10Z</time>
      </trkpt>
      <trkpt lat="43.17703" lon="2.49183">
        <ele>100.393837</ele>
        <time>2008-09-07T11:17:22Z</time>
      </trkpt>
      <trkpt lat="43.17741" lon="2.49212">
        <ele>98.748863</ele>
        <time>2008-09-07T11:17:39Z</time>
      </trkpt>
      <trkpt lat="43.17751" lon="2.49205">
        <ele>98.912628</ele>
        <time>2008-09-07T11:17:44Z</time>
      </trkpt>
      <trkpt lat="43.17742" lon="2.49175">
        <ele>101.271202</ele>
        <time>2008-09-07T11:17:56Z</time>
      </trkpt>
      <trkpt lat="43.17744" lon="2.49154">
        <ele>103.826347</ele>
        <time>2008-09-07T11:18:09Z</time>
      </trkpt>
      <trkpt lat="43.17749" lon="2.49144">
        <ele>104.294998</ele>
        <time>2008-09-07T11:18:16Z</time>
      </trkpt>
      <trkpt lat="43.17756" lon="2.49113">
        <ele>105.915245</ele>
        <time>2008-09-07T11:18:33Z</time>
      </trkpt>
      <trkpt lat="43.1776" lon="2.49081">
        <ele>107.839249</ele>
        <time>2008-09-07T11:18:44Z</time>
      </trkpt>
      <trkpt lat="43.17755" lon="2.49044">
        <ele>111.438248</ele>
        <time>2008-09-07T11:18:58Z</time>
      </trkpt>
      <trkpt lat="43.17747" lon="2.49001">
        <ele>115.224648</ele>
        <time>2008-09-07T11:19:17Z</time>
      </trkpt>
      <trkpt lat="43.17733" lon="2.48984">
        <ele>118.963448</ele>
        <time>2008-09-07T11:19:29Z</time>
      </trkpt>
      <trkpt lat="43.17727" lon="2.48967">
        <ele>120.171249</ele>
        <time>2008-09-07T11:19:35Z</time>
      </trkpt>
      <trkpt lat="43.17723" lon="2.4894">
        <ele>118.796043</ele>
        <time>2008-09-07T11:19:41Z</time>
      </trkpt>
      <trkpt lat="43.17731" lon="2.48902">
        <ele>113.297577</ele>
        <time>2008-09-07T11:19:46Z</time>
      </trkpt>
      <trkpt lat="43.17755" lon="2.48873">
        <ele>109.996002</ele>
        <time>2008-09-07T11:19:52Z</time>
      </trkpt>
      <trkpt lat="43.17755" lon="2.48845">
        <ele>107.471687</ele>
        <time>2008-09-07T11:19:57Z</time>
      </trkpt>
      <trkpt lat="43.17763" lon="2.4878">
        <ele>106.851524</ele>
        <time>2008-09-07T11:20:08Z</time>
      </trkpt>
      <trkpt lat="43.17763" lon="2.48711">
        <ele>107.234032</ele>
        <time>2008-09-07T11:20:16Z</time>
      </trkpt>
      <trkpt lat="43.17759" lon="2.48657">
        <ele>106.134941</ele>
        <time>2008-09-07T11:20:24Z</time>
      </trkpt>
      <trkpt lat="43.17731" lon="2.48586">
        <ele>107.928566</ele>
        <time>2008-09-07T11:20:37Z</time>
      </trkpt>
      <trkpt lat="43.17702" lon="2.48535">
        <ele>112.322403</ele>
        <time>2008-09-07T11:20:49Z</time>
      </trkpt>
      <trkpt lat="43.17684" lon="2.48497">
        <ele>118.772499</ele>
        <time>2008-09-07T11:21:02Z</time>
      </trkpt>
      <trkpt lat="43.17672" lon="2.48478">
        <ele>120.410622</ele>
        <time>2008-09-07T11:21:12Z</time>
      </trkpt>
      <trkpt lat="43.17676" lon="2.48461">
        <ele>123.254501</ele>
        <time>2008-09-07T11:21:20Z</time>
      </trkpt>
      <trkpt lat="43.17688" lon="2.48419">
        <ele>127.93631</ele>
        <time>2008-09-07T11:21:33Z</time>
      </trkpt>
      <trkpt lat="43.17698" lon="2.48385">
        <ele>129.72023</ele>
        <time>2008-09-07T11:21:44Z</time>
      </trkpt>
      <trkpt lat="43.17704" lon="2.48348">
        <ele>132.188828</ele>
        <time>2008-09-07T11:21:55Z</time>
      </trkpt>
      <trkpt lat="43.17707" lon="2.48335">
        <ele>132.864532</ele>
        <time>2008-09-07T11:22:00Z</time>
      </trkpt>
      <trkpt lat="43.17706" lon="2.48334">
        <ele>133.046219</ele>
        <time>2008-09-07T11:22:25Z</time>
      </trkpt>
      <trkpt lat="43.17715" lon="2.48296">
        <ele>130.426254</ele>
        <time>2008-09-07T11:22:40Z</time>
      </trkpt>
      <trkpt lat="43.17707" lon="2.48257">
        <ele>129.336868</ele>
        <time>2008-09-07T11:22:49Z</time>
      </trkpt>
      <trkpt lat="43.17699" lon="2.48211">
        <ele>124.889626</ele>
        <time>2008-09-07T11:22:54Z</time>
      </trkpt>
      <trkpt lat="43.17695" lon="2.48169">
        <ele>123.082626</ele>
        <time>2008-09-07T11:23:00Z</time>
      </trkpt>
      <trkpt lat="43.17675" lon="2.48072">
        <ele>125.810532</ele>
        <time>2008-09-07T11:23:25Z</time>
      </trkpt>
      <trkpt lat="43.17681" lon="2.48033">
        <ele>127.368874</ele>
        <time>2008-09-07T11:23:36Z</time>
      </trkpt>
      <trkpt lat="43.17683" lon="2.47981">
        <ele>129.793137</ele>
        <time>2008-09-07T11:23:52Z</time>
      </trkpt>
      <trkpt lat="43.17684" lon="2.47914">
        <ele>132.978745</ele>
        <time>2008-09-07T11:24:17Z</time>
      </trkpt>
      <trkpt lat="43.17665" lon="2.4788">
        <ele>137.556778</ele>
        <time>2008-09-07T11:24:33Z</time>
      </trkpt>
      <trkpt lat="43.17648" lon="2.47852">
        <ele>141.507507</ele>
        <time>2008-09-07T11:24:47Z</time>
      </trkpt>
      <trkpt lat="43.17645" lon="2.478">
        <ele>143.2742</ele>
        <time>2008-09-07T11:25:02Z</time>
      </trkpt>
      <trkpt lat="43.17644" lon="2.47757">
        <ele>144.18428</ele>
        <time>2008-09-07T11:25:13Z</time>
      </trkpt>
      <trkpt lat="43.17632" lon="2.47691">
        <ele>146.699997</ele>
        <time>2008-09-07T11:25:30Z</time>
      </trkpt>
      <trkpt lat="43.17603" lon="2.4766">
        <ele>154.147491</ele>
        <time>2008-09-07T11:25:44Z</time>
      </trkpt>
      <trkpt lat="43.17573" lon="2.47604">
        <ele>157.355011</ele>
        <time>2008-09-07T11:26:09Z</time>
      </trkpt>
      <trkpt lat="43.17564" lon="2.47631">
        <ele>159.632004</ele>
        <time>2008-09-07T11:26:22Z</time>
      </trkpt>
      <trkpt lat="43.17559" lon="2.47666">
        <ele>160.760269</ele>
        <time>2008-09-07T11:26:41Z</time>
      </trkpt>
      <trkpt lat="43.17546" lon="2.47693">
        <ele>161.06691</ele>
        <time>2008-09-07T11:26:57Z</time>
      </trkpt>
      <trkpt lat="43.17536" lon="2.47681">
        <ele>159.045319</ele>
        <time>2008-09-07T11:27:04Z</time>
      </trkpt>
      <trkpt lat="43.1752" lon="2.47607">
        <ele>158.017212</ele>
        <time>2008-09-07T11:27:20Z</time>
      </trkpt>
      <trkpt lat="43.1751" lon="2.47554">
        <ele>159.383072</ele>
        <time>2008-09-07T11:27:34Z</time>
      </trkpt>
      <trkpt lat="43.17489" lon="2.475">
        <ele>160.839996</ele>
        <time>2008-09-07T11:27:51Z</time>
      </trkpt>
      <trkpt lat="43.17462" lon="2.47454">
        <ele>162.835251</ele>
        <time>2008-09-07T11:28:05Z</time>
      </trkpt>
      <trkpt lat="43.17433" lon="2.47345">
        <ele>163.515213</ele>
        <time>2008-09-07T11:28:37Z</time>
      </trkpt>
      <trkpt lat="43.17434" lon="2.47302">
        <ele>165.912323</ele>
        <time>2008-09-07T11:28:49Z</time>
      </trkpt>
      <trkpt lat="43.17424" lon="2.47251">
        <ele>172.721191</ele>
        <time>2008-09-07T11:29:06Z</time>
      </trkpt>
      <trkpt lat="43.17417" lon="2.47203">
        <ele>180.875</ele>
        <time>2008-09-07T11:29:20Z</time>
      </trkpt>
      <trkpt lat="43.17407" lon="2.47155">
        <ele>182.885635</ele>
        <time>2008-09-07T11:29:38Z</time>
      </trkpt>
      <trkpt lat="43.17407" lon="2.47131">
        <ele>184.053406</ele>
        <time>2008-09-07T11:29:49Z</time>
      </trkpt>
      <trkpt lat="43.1743" lon="2.47113">
        <ele>184.318024</ele>
        <time>2008-09-07T11:30:05Z</time>
      </trkpt>
      <trkpt lat="43.17435" lon="2.47088">
        <ele>184.884186</ele>
        <time>2008-09-07T11:30:21Z</time>
      </trkpt>
      <trkpt lat="43.17442" lon="2.47083">
        <ele>184.473785</ele>
        <time>2008-09-07T11:30:37Z</time>
      </trkpt>
      <trkpt lat="43.17468" lon="2.47062">
        <ele>182.236908</ele>
        <time>2008-09-07T11:30:45Z</time>
      </trkpt>
      <trkpt lat="43.17495" lon="2.47064">
        <ele>178.33165</ele>
        <time>2008-09-07T11:30:52Z</time>
      </trkpt>
      <trkpt lat="43.17507" lon="2.47051">
        <ele>176.978668</ele>
        <time>2008-09-07T11:30:56Z</time>
      </trkpt>
      <trkpt lat="43.17538" lon="2.47034">
        <ele>172.568024</ele>
        <time>2008-09-07T11:31:03Z</time>
      </trkpt>
      <trkpt lat="43.17556" lon="2.47037">
        <ele>169.432037</ele>
        <time>2008-09-07T11:31:08Z</time>
      </trkpt>
      <trkpt lat="43.17562" lon="2.47013">
        <ele>167.663315</ele>
        <time>2008-09-07T11:31:16Z</time>
      </trkpt>
      <trkpt lat="43.17575" lon="2.46987">
        <ele>164.686905</ele>
        <time>2008-09-07T11:31:22Z</time>
      </trkpt>
      <trkpt lat="43.17582" lon="2.4694">
        <ele>162.024994</ele>
        <time>2008-09-07T11:31:29Z</time>
      </trkpt>
      <trkpt lat="43.17576" lon="2.46891">
        <ele>161.930771</ele>
        <time>2008-09-07T11:31:37Z</time>
      </trkpt>
      <trkpt lat="43.17569" lon="2.46879">
        <ele>162.913071</ele>
        <time>2008-09-07T11:31:41Z</time>
      </trkpt>
      <trkpt lat="43.17574" lon="2.46858">
        <ele>161.637665</ele>
        <time>2008-09-07T11:31:48Z</time>
      </trkpt>
      <trkpt lat="43.17593" lon="2.46835">
        <ele>158.1474</ele>
        <time>2008-09-07T11:31:54Z</time>
      </trkpt>
      <trkpt lat="43.17597" lon="2.46816">
        <ele>157.585709</ele>
        <time>2008-09-07T11:31:59Z</time>
      </trkpt>
      <trkpt lat="43.1762" lon="2.46774">
        <ele>152.879791</ele>
        <time>2008-09-07T11:32:09Z</time>
      </trkpt>
      <trkpt lat="43.17634" lon="2.46758">
        <ele>149.977341</ele>
        <time>2008-09-07T11:32:12Z</time>
      </trkpt>
      <trkpt lat="43.17673" lon="2.46733">
        <ele>142.643448</ele>
        <time>2008-09-07T11:32:21Z</time>
      </trkpt>
      <trkpt lat="43.17712" lon="2.46728">
        <ele>137.904465</ele>
        <time>2008-09-07T11:32:28Z</time>
      </trkpt>
      <trkpt lat="43.17743" lon="2.46701">
        <ele>134.582504</ele>
        <time>2008-09-07T11:32:35Z</time>
      </trkpt>
      <trkpt lat="43.17768" lon="2.46666">
        <ele>131.769379</ele>
        <time>2008-09-07T11:32:41Z</time>
      </trkpt>
      <trkpt lat="43.17796" lon="2.46652">
        <ele>127.77179</ele>
        <time>2008-09-07T11:32:48Z</time>
      </trkpt>
      <trkpt lat="43.17815" lon="2.46645">
        <ele>125.262794</ele>
        <time>2008-09-07T11:32:53Z</time>
      </trkpt>
      <trkpt lat="43.17844" lon="2.46622">
        <ele>122.388222</ele>
        <time>2008-09-07T11:33:01Z</time>
      </trkpt>
      <trkpt lat="43.1784" lon="2.4659">
        <ele>123.894699</ele>
        <time>2008-09-07T11:33:09Z</time>
      </trkpt>
      <trkpt lat="43.17854" lon="2.46562">
        <ele>123.924416</ele>
        <time>2008-09-07T11:33:16Z</time>
      </trkpt>
      <trkpt lat="43.17863" lon="2.4652">
        <ele>123.106354</ele>
        <time>2008-09-07T11:33:24Z</time>
      </trkpt>
      <trkpt lat="43.17856" lon="2.46472">
        <ele>119.639252</ele>
        <time>2008-09-07T11:33:33Z</time>
      </trkpt>
      <trkpt lat="43.17847" lon="2.4643">
        <ele>112.384506</ele>
        <time>2008-09-07T11:33:39Z</time>
      </trkpt>
      <trkpt lat="43.17844" lon="2.46403">
        <ele>109.236641</ele>
        <time>2008-09-07T11:33:44Z</time>
      </trkpt>
      <trkpt lat="43.17867" lon="2.46386">
        <ele>106.116249</ele>
        <time>2008-09-07T11:33:50Z</time>
      </trkpt>
      <trkpt lat="43.17921" lon="2.46386">
        <ele>104.028725</ele>
        <time>2008-09-07T11:33:58Z</time>
      </trkpt>
      <trkpt lat="43.17988" lon="2.46392">
        <ele>104.592979</ele>
        <time>2008-09-07T11:34:13Z</time>
      </trkpt>
      <trkpt lat="43.18028" lon="2.46385">
        <ele>100.953529</ele>
        <time>2008-09-07T11:34:21Z</time>
      </trkpt>
      <trkpt lat="43.18047" lon="2.4639">
        <ele>100.093315</ele>
        <time>2008-09-07T11:34:24Z</time>
      </trkpt>
      <trkpt lat="43.18098" lon="2.46408">
        <ele>99.314568</ele>
        <time>2008-09-07T11:34:34Z</time>
      </trkpt>
      <trkpt lat="43.18128" lon="2.46384">
        <ele>98.877289</ele>
        <time>2008-09-07T11:34:45Z</time>
      </trkpt>
      <trkpt lat="43.18155" lon="2.46349">
        <ele>98.342903</ele>
        <time>2008-09-07T11:34:56Z</time>
      </trkpt>
      <trkpt lat="43.18174" lon="2.46265">
        <ele>99.240578</ele>
        <time>2008-09-07T11:35:11Z</time>
      </trkpt>
      <trkpt lat="43.18187" lon="2.46189">
        <ele>98.793777</ele>
        <time>2008-09-07T11:35:21Z</time>
      </trkpt>
      <trkpt lat="43.18196" lon="2.46134">
        <ele>99.204712</ele>
        <time>2008-09-07T11:35:31Z</time>
      </trkpt>
      <trkpt lat="43.18214" lon="2.46111">
        <ele>100.131905</ele>
        <time>2008-09-07T11:35:40Z</time>
      </trkpt>
      <trkpt lat="43.18253" lon="2.46085">
        <ele>104.061142</ele>
        <time>2008-09-07T11:35:57Z</time>
      </trkpt>
      <trkpt lat="43.18266" lon="2.46048">
        <ele>106.900002</ele>
        <time>2008-09-07T11:36:09Z</time>
      </trkpt>
      <trkpt lat="43.18272" lon="2.45998">
        <ele>108.586456</ele>
        <time>2008-09-07T11:36:26Z</time>
      </trkpt>
      <trkpt lat="43.18294" lon="2.45947">
        <ele>112.557564</ele>
        <time>2008-09-07T11:36:45Z</time>
      </trkpt>
      <trkpt lat="43.1832" lon="2.45919">
        <ele>115.092873</ele>
        <time>2008-09-07T11:37:00Z</time>
      </trkpt>
      <trkpt lat="43.18349" lon="2.45887">
        <ele>115.957977</ele>
        <time>2008-09-07T11:37:12Z</time>
      </trkpt>
      <trkpt lat="43.18409" lon="2.45808">
        <ele>113.739998</ele>
        <time>2008-09-07T11:37:30Z</time>
      </trkpt>
      <trkpt lat="43.18443" lon="2.45729">
        <ele>114.275002</ele>
        <time>2008-09-07T11:37:43Z</time>
      </trkpt>
      <trkpt lat="43.18474" lon="2.45666">
        <ele>113.73394</ele>
        <time>2008-09-07T11:37:53Z</time>
      </trkpt>
      <trkpt lat="43.18527" lon="2.45615">
        <ele>111.862282</ele>
        <time>2008-09-07T11:38:05Z</time>
      </trkpt>
      <trkpt lat="43.18549" lon="2.45571">
        <ele>113.279999</ele>
        <time>2008-09-07T11:38:13Z</time>
      </trkpt>
      <trkpt lat="43.18524" lon="2.45564">
        <ele>114.745003</ele>
        <time>2008-09-07T11:38:22Z</time>
      </trkpt>
      <trkpt lat="43.18483" lon="2.4556">
        <ele>116.707497</ele>
        <time>2008-09-07T11:38:36Z</time>
      </trkpt>
      <trkpt lat="43.18437" lon="2.45554">
        <ele>119.172363</ele>
        <time>2008-09-07T11:38:51Z</time>
      </trkpt>
      <trkpt lat="43.18384" lon="2.45532">
        <ele>122.022499</ele>
        <time>2008-09-07T11:39:07Z</time>
      </trkpt>
      <trkpt lat="43.18335" lon="2.45517">
        <ele>121.756248</ele>
        <time>2008-09-07T11:39:20Z</time>
      </trkpt>
      <trkpt lat="43.18261" lon="2.45516">
        <ele>117.965065</ele>
        <time>2008-09-07T11:39:35Z</time>
      </trkpt>
      <trkpt lat="43.18228" lon="2.45485">
        <ele>116.037498</ele>
        <time>2008-09-07T11:39:41Z</time>
      </trkpt>
      <trkpt lat="43.18226" lon="2.45431">
        <ele>117.143486</ele>
        <time>2008-09-07T11:39:51Z</time>
      </trkpt>
      <trkpt lat="43.18233" lon="2.45387">
        <ele>118.188675</ele>
        <time>2008-09-07T11:40:01Z</time>
      </trkpt>
      <trkpt lat="43.18266" lon="2.45379">
        <ele>122.528999</ele>
        <time>2008-09-07T11:40:14Z</time>
      </trkpt>
      <trkpt lat="43.18326" lon="2.45371">
        <ele>125.456253</ele>
        <time>2008-09-07T11:40:35Z</time>
      </trkpt>
      <trkpt lat="43.18385" lon="2.45364">
        <ele>126.094063</ele>
        <time>2008-09-07T11:40:51Z</time>
      </trkpt>
      <trkpt lat="43.18451" lon="2.45353">
        <ele>125.422501</ele>
        <time>2008-09-07T11:41:05Z</time>
      </trkpt>
      <trkpt lat="43.18538" lon="2.45311">
        <ele>125.578751</ele>
        <time>2008-09-07T11:41:24Z</time>
      </trkpt>
      <trkpt lat="43.18582" lon="2.45278">
        <ele>125.526817</ele>
        <time>2008-09-07T11:41:36Z</time>
      </trkpt>
      <trkpt lat="43.18587" lon="2.45265">
        <ele>125.75148</ele>
        <time>2008-09-07T11:41:42Z</time>
      </trkpt>
      <trkpt lat="43.18588" lon="2.45263">
        <ele>125.755234</ele>
        <time>2008-09-07T11:51:32Z</time>
      </trkpt>
      <trkpt lat="43.18586" lon="2.45262">
        <ele>125.875626</ele>
        <time>2008-09-07T11:52:15Z</time>
      </trkpt>
      <trkpt lat="43.18585" lon="2.45247">
        <ele>126.150742</ele>
        <time>2008-09-07T11:52:22Z</time>
      </trkpt>
      <trkpt lat="43.18589" lon="2.452">
        <ele>126.652512</ele>
        <time>2008-09-07T11:52:36Z</time>
      </trkpt>
      <trkpt lat="43.18594" lon="2.45147">
        <ele>127.850044</ele>
        <time>2008-09-07T11:52:49Z</time>
      </trkpt>
      <trkpt lat="43.18593" lon="2.45047">
        <ele>130.246078</ele>
        <time>2008-09-07T11:53:14Z</time>
      </trkpt>
      <trkpt lat="43.18588" lon="2.45009">
        <ele>132.655807</ele>
        <time>2008-09-07T11:53:27Z</time>
      </trkpt>
      <trkpt lat="43.18581" lon="2.44982">
        <ele>134.422501</ele>
        <time>2008-09-07T11:53:38Z</time>
      </trkpt>
      <trkpt lat="43.18568" lon="2.44954">
        <ele>136.782501</ele>
        <time>2008-09-07T11:53:52Z</time>
      </trkpt>
      <trkpt lat="43.18548" lon="2.4492">
        <ele>139.121872</ele>
        <time>2008-09-07T11:54:08Z</time>
      </trkpt>
      <trkpt lat="43.18536" lon="2.44874">
        <ele>140.693573</ele>
        <time>2008-09-07T11:54:24Z</time>
      </trkpt>
      <trkpt lat="43.18531" lon="2.44834">
        <ele>142.079544</ele>
        <time>2008-09-07T11:54:38Z</time>
      </trkpt>
      <trkpt lat="43.18528" lon="2.44779">
        <ele>143.957504</ele>
        <time>2008-09-07T11:54:55Z</time>
      </trkpt>
      <trkpt lat="43.18528" lon="2.44751">
        <ele>144.78331</ele>
        <time>2008-09-07T11:55:03Z</time>
      </trkpt>
      <trkpt lat="43.18549" lon="2.44736">
        <ele>145.127838</ele>
        <time>2008-09-07T11:55:11Z</time>
      </trkpt>
      <trkpt lat="43.18553" lon="2.44669">
        <ele>147.389801</ele>
        <time>2008-09-07T11:55:24Z</time>
      </trkpt>
      <trkpt lat="43.18556" lon="2.44587">
        <ele>147.637283</ele>
        <time>2008-09-07T11:55:41Z</time>
      </trkpt>
      <trkpt lat="43.18558" lon="2.44506">
        <ele>145.867493</ele>
        <time>2008-09-07T11:55:55Z</time>
      </trkpt>
      <trkpt lat="43.18555" lon="2.44397">
        <ele>145.042496</ele>
        <time>2008-09-07T11:56:10Z</time>
      </trkpt>
      <trkpt lat="43.18561" lon="2.44308">
        <ele>146.343842</ele>
        <time>2008-09-07T11:56:24Z</time>
      </trkpt>
      <trkpt lat="43.18562" lon="2.4424">
        <ele>147.961868</ele>
        <time>2008-09-07T11:56:39Z</time>
      </trkpt>
      <trkpt lat="43.18567" lon="2.4417">
        <ele>149.757492</ele>
        <time>2008-09-07T11:56:58Z</time>
      </trkpt>
      <trkpt lat="43.18577" lon="2.44065">
        <ele>156.6129</ele>
        <time>2008-09-07T11:57:27Z</time>
      </trkpt>
      <trkpt lat="43.18574" lon="2.44031">
        <ele>160.095001</ele>
        <time>2008-09-07T11:57:40Z</time>
      </trkpt>
      <trkpt lat="43.1856" lon="2.44017">
        <ele>161.059998</ele>
        <time>2008-09-07T11:57:52Z</time>
      </trkpt>
      <trkpt lat="43.18543" lon="2.43989">
        <ele>162.850006</ele>
        <time>2008-09-07T11:58:04Z</time>
      </trkpt>
      <trkpt lat="43.1852" lon="2.43968">
        <ele>163.583099</ele>
        <time>2008-09-07T11:58:17Z</time>
      </trkpt>
      <trkpt lat="43.18499" lon="2.43962">
        <ele>163.224899</ele>
        <time>2008-09-07T11:58:28Z</time>
      </trkpt>
      <trkpt lat="43.18439" lon="2.4396">
        <ele>164.726547</ele>
        <time>2008-09-07T11:58:43Z</time>
      </trkpt>
      <trkpt lat="43.18414" lon="2.43961">
        <ele>165.95079</ele>
        <time>2008-09-07T11:58:50Z</time>
      </trkpt>
      <trkpt lat="43.18368" lon="2.43921">
        <ele>169.799179</ele>
        <time>2008-09-07T11:59:05Z</time>
      </trkpt>
      <trkpt lat="43.1834" lon="2.43895">
        <ele>173.440994</ele>
        <time>2008-09-07T11:59:15Z</time>
      </trkpt>
      <trkpt lat="43.18351" lon="2.43861">
        <ele>173.615387</ele>
        <time>2008-09-07T11:59:23Z</time>
      </trkpt>
      <trkpt lat="43.18336" lon="2.43825">
        <ele>174.954498</ele>
        <time>2008-09-07T11:59:30Z</time>
      </trkpt>
      <trkpt lat="43.18285" lon="2.43817">
        <ele>177.148758</ele>
        <time>2008-09-07T11:59:42Z</time>
      </trkpt>
      <trkpt lat="43.18259" lon="2.43805">
        <ele>176.630005</ele>
        <time>2008-09-07T11:59:48Z</time>
      </trkpt>
      <trkpt lat="43.18221" lon="2.43813">
        <ele>176.083603</ele>
        <time>2008-09-07T11:59:58Z</time>
      </trkpt>
      <trkpt lat="43.18185" lon="2.43827">
        <ele>174.5905</ele>
        <time>2008-09-07T12:00:07Z</time>
      </trkpt>
      <trkpt lat="43.18164" lon="2.4383">
        <ele>175.001251</ele>
        <time>2008-09-07T12:00:13Z</time>
      </trkpt>
      <trkpt lat="43.18125" lon="2.439">
        <ele>170.100006</ele>
        <time>2008-09-07T12:00:25Z</time>
      </trkpt>
      <trkpt lat="43.18104" lon="2.43936">
        <ele>164.789368</ele>
        <time>2008-09-07T12:00:33Z</time>
      </trkpt>
      <trkpt lat="43.18071" lon="2.43888">
        <ele>173.294388</ele>
        <time>2008-09-07T12:00:49Z</time>
      </trkpt>
      <trkpt lat="43.18038" lon="2.43873">
        <ele>176.238205</ele>
        <time>2008-09-07T12:00:59Z</time>
      </trkpt>
      <trkpt lat="43.18013" lon="2.43868">
        <ele>175.504196</ele>
        <time>2008-09-07T12:01:04Z</time>
      </trkpt>
      <trkpt lat="43.1796" lon="2.43864">
        <ele>174.284348</ele>
        <time>2008-09-07T12:01:14Z</time>
      </trkpt>
      <trkpt lat="43.17947" lon="2.43855">
        <ele>175.080048</ele>
        <time>2008-09-07T12:01:18Z</time>
      </trkpt>
      <trkpt lat="43.17926" lon="2.43846">
        <ele>176.492508</ele>
        <time>2008-09-07T12:01:28Z</time>
      </trkpt>
      <trkpt lat="43.17901" lon="2.43843">
        <ele>179.045639</ele>
        <time>2008-09-07T12:01:41Z</time>
      </trkpt>
      <trkpt lat="43.1787" lon="2.43801">
        <ele>187.256348</ele>
        <time>2008-09-07T12:02:06Z</time>
      </trkpt>
      <trkpt lat="43.17844" lon="2.43782">
        <ele>192.380188</ele>
        <time>2008-09-07T12:02:22Z</time>
      </trkpt>
      <trkpt lat="43.17817" lon="2.43754">
        <ele>196.780975</ele>
        <time>2008-09-07T12:02:38Z</time>
      </trkpt>
      <trkpt lat="43.17799" lon="2.43721">
        <ele>198.561249</ele>
        <time>2008-09-07T12:02:53Z</time>
      </trkpt>
      <trkpt lat="43.17769" lon="2.43712">
        <ele>199.095703</ele>
        <time>2008-09-07T12:03:05Z</time>
      </trkpt>
      <trkpt lat="43.17754" lon="2.43701">
        <ele>199.119019</ele>
        <time>2008-09-07T12:03:15Z</time>
      </trkpt>
      <trkpt lat="43.17747" lon="2.437">
        <ele>199.136429</ele>
        <time>2008-09-07T12:03:25Z</time>
      </trkpt>
      <trkpt lat="43.17753" lon="2.4369">
        <ele>198.932816</ele>
        <time>2008-09-07T12:03:30Z</time>
      </trkpt>
      <trkpt lat="43.17799" lon="2.4366">
        <ele>199.46315</ele>
        <time>2008-09-07T12:03:40Z</time>
      </trkpt>
      <trkpt lat="43.17835" lon="2.43621">
        <ele>200</ele>
        <time>2008-09-07T12:03:51Z</time>
      </trkpt>
      <trkpt lat="43.17848" lon="2.4361">
        <ele>200</ele>
        <time>2008-09-07T12:03:57Z</time>
      </trkpt>
      <trkpt lat="43.17853" lon="2.43568">
        <ele>199.657135</ele>
        <time>2008-09-07T12:04:08Z</time>
      </trkpt>
      <trkpt lat="43.17861" lon="2.43527">
        <ele>199.270004</ele>
        <time>2008-09-07T12:04:19Z</time>
      </trkpt>
      <trkpt lat="43.17884" lon="2.43489">
        <ele>198.954681</ele>
        <time>2008-09-07T12:04:27Z</time>
      </trkpt>
      <trkpt lat="43.17906" lon="2.43453">
        <ele>200.010529</ele>
        <time>2008-09-07T12:04:38Z</time>
      </trkpt>
      <trkpt lat="43.17914" lon="2.43412">
        <ele>201.087204</ele>
        <time>2008-09-07T12:04:55Z</time>
      </trkpt>
      <trkpt lat="43.17931" lon="2.43375">
        <ele>202.467255</ele>
        <time>2008-09-07T12:05:11Z</time>
      </trkpt>
      <trkpt lat="43.17945" lon="2.43351">
        <ele>203.689178</ele>
        <time>2008-09-07T12:05:19Z</time>
      </trkpt>
      <trkpt lat="43.17971" lon="2.43321">
        <ele>204.068604</ele>
        <time>2008-09-07T12:05:31Z</time>
      </trkpt>
      <trkpt lat="43.18004" lon="2.433">
        <ele>204.886246</ele>
        <time>2008-09-07T12:05:40Z</time>
      </trkpt>
      <trkpt lat="43.18034" lon="2.43276">
        <ele>204.73468</ele>
        <time>2008-09-07T12:05:51Z</time>
      </trkpt>
      <trkpt lat="43.18043" lon="2.43241">
        <ele>205.698792</ele>
        <time>2008-09-07T12:06:01Z</time>
      </trkpt>
      <trkpt lat="43.18075" lon="2.43207">
        <ele>206.918854</ele>
        <time>2008-09-07T12:06:16Z</time>
      </trkpt>
      <trkpt lat="43.1811" lon="2.43153">
        <ele>210.694061</ele>
        <time>2008-09-07T12:06:33Z</time>
      </trkpt>
      <trkpt lat="43.18147" lon="2.431">
        <ele>213.359604</ele>
        <time>2008-09-07T12:06:49Z</time>
      </trkpt>
      <trkpt lat="43.18176" lon="2.43031">
        <ele>215.622543</ele>
        <time>2008-09-07T12:07:06Z</time>
      </trkpt>
      <trkpt lat="43.18202" lon="2.42981">
        <ele>215.947189</ele>
        <time>2008-09-07T12:07:20Z</time>
      </trkpt>
      <trkpt lat="43.18264" lon="2.42886">
        <ele>214.30275</ele>
        <time>2008-09-07T12:07:41Z</time>
      </trkpt>
      <trkpt lat="43.18282" lon="2.42854">
        <ele>212.58342</ele>
        <time>2008-09-07T12:07:47Z</time>
      </trkpt>
      <trkpt lat="43.18295" lon="2.4282">
        <ele>209.657654</ele>
        <time>2008-09-07T12:07:54Z</time>
      </trkpt>
      <trkpt lat="43.18277" lon="2.42806">
        <ele>211.440948</ele>
        <time>2008-09-07T12:08:00Z</time>
      </trkpt>
      <trkpt lat="43.18265" lon="2.42764">
        <ele>208.730331</ele>
        <time>2008-09-07T12:08:08Z</time>
      </trkpt>
      <trkpt lat="43.18266" lon="2.4274">
        <ele>206.702499</ele>
        <time>2008-09-07T12:08:12Z</time>
      </trkpt>
      <trkpt lat="43.18275" lon="2.42672">
        <ele>204.947006</ele>
        <time>2008-09-07T12:08:23Z</time>
      </trkpt>
      <trkpt lat="43.18286" lon="2.426">
        <ele>204.229492</ele>
        <time>2008-09-07T12:08:34Z</time>
      </trkpt>
      <trkpt lat="43.18305" lon="2.42565">
        <ele>203.342102</ele>
        <time>2008-09-07T12:08:41Z</time>
      </trkpt>
      <trkpt lat="43.18334" lon="2.42508">
        <ele>196.283676</ele>
        <time>2008-09-07T12:08:48Z</time>
      </trkpt>
      <trkpt lat="43.18371" lon="2.42451">
        <ele>192.21582</ele>
        <time>2008-09-07T12:08:57Z</time>
      </trkpt>
      <trkpt lat="43.18389" lon="2.42439">
        <ele>191.132751</ele>
        <time>2008-09-07T12:09:03Z</time>
      </trkpt>
      <trkpt lat="43.18406" lon="2.42436">
        <ele>191</ele>
        <time>2008-09-07T12:09:11Z</time>
      </trkpt>
      <trkpt lat="43.18421" lon="2.4243">
        <ele>189.28569</ele>
        <time>2008-09-07T12:09:16Z</time>
      </trkpt>
      <trkpt lat="43.18431" lon="2.42402">
        <ele>186.929794</ele>
        <time>2008-09-07T12:09:22Z</time>
      </trkpt>
      <trkpt lat="43.18464" lon="2.42363">
        <ele>181.286255</ele>
        <time>2008-09-07T12:09:31Z</time>
      </trkpt>
      <trkpt lat="43.1847" lon="2.42344">
        <ele>177.626251</ele>
        <time>2008-09-07T12:09:35Z</time>
      </trkpt>
      <trkpt lat="43.18474" lon="2.42323">
        <ele>173.949997</ele>
        <time>2008-09-07T12:09:40Z</time>
      </trkpt>
      <trkpt lat="43.18468" lon="2.42307">
        <ele>172.639999</ele>
        <time>2008-09-07T12:09:43Z</time>
      </trkpt>
      <trkpt lat="43.18472" lon="2.42253">
        <ele>165.850006</ele>
        <time>2008-09-07T12:09:51Z</time>
      </trkpt>
      <trkpt lat="43.18491" lon="2.42196">
        <ele>158.43576</ele>
        <time>2008-09-07T12:09:59Z</time>
      </trkpt>
      <trkpt lat="43.1851" lon="2.42159">
        <ele>149.384003</ele>
        <time>2008-09-07T12:10:05Z</time>
      </trkpt>
      <trkpt lat="43.18527" lon="2.42171">
        <ele>148.256119</ele>
        <time>2008-09-07T12:10:11Z</time>
      </trkpt>
      <trkpt lat="43.18545" lon="2.42198">
        <ele>148.566803</ele>
        <time>2008-09-07T12:10:16Z</time>
      </trkpt>
      <trkpt lat="43.18573" lon="2.42191">
        <ele>147.342636</ele>
        <time>2008-09-07T12:10:20Z</time>
      </trkpt>
      <trkpt lat="43.18603" lon="2.4217">
        <ele>146.449982</ele>
        <time>2008-09-07T12:10:28Z</time>
      </trkpt>
      <trkpt lat="43.18628" lon="2.42157">
        <ele>148.730225</ele>
        <time>2008-09-07T12:10:36Z</time>
      </trkpt>
      <trkpt lat="43.18655" lon="2.42139">
        <ele>149.590973</ele>
        <time>2008-09-07T12:10:47Z</time>
      </trkpt>
      <trkpt lat="43.18683" lon="2.42129">
        <ele>151.377686</ele>
        <time>2008-09-07T12:10:53Z</time>
      </trkpt>
      <trkpt lat="43.18693" lon="2.42124">
        <ele>151.353394</ele>
        <time>2008-09-07T12:10:58Z</time>
      </trkpt>
      <trkpt lat="43.18715" lon="2.42101">
        <ele>149.897324</ele>
        <time>2008-09-07T12:11:08Z</time>
      </trkpt>
      <trkpt lat="43.18719" lon="2.42039">
        <ele>143.711151</ele>
        <time>2008-09-07T12:11:16Z</time>
      </trkpt>
      <trkpt lat="43.18715" lon="2.42016">
        <ele>140.769531</ele>
        <time>2008-09-07T12:11:23Z</time>
      </trkpt>
      <trkpt lat="43.18711" lon="2.42007">
        <ele>138.284775</ele>
        <time>2008-09-07T12:11:49Z</time>
      </trkpt>
      <trkpt lat="43.18712" lon="2.42003">
        <ele>138.116257</ele>
        <time>2008-09-07T12:11:59Z</time>
      </trkpt>
      <trkpt lat="43.18707" lon="2.41951">
        <ele>126.317139</ele>
        <time>2008-09-07T12:12:19Z</time>
      </trkpt>
      <trkpt lat="43.18707" lon="2.41947">
        <ele>125.50515</ele>
        <time>2008-09-07T12:12:48Z</time>
      </trkpt>
      <trkpt lat="43.18701" lon="2.41901">
        <ele>120.09333</ele>
        <time>2008-09-07T12:12:59Z</time>
      </trkpt>
      <trkpt lat="43.18695" lon="2.41832">
        <ele>138.319016</ele>
        <time>2008-09-07T12:13:14Z</time>
      </trkpt>
      <trkpt lat="43.18675" lon="2.41812">
        <ele>146.016312</ele>
        <time>2008-09-07T12:13:24Z</time>
      </trkpt>
      <trkpt lat="43.18643" lon="2.41808">
        <ele>144.490311</ele>
        <time>2008-09-07T12:13:37Z</time>
      </trkpt>
      <trkpt lat="43.18637" lon="2.41769">
        <ele>146.635529</ele>
        <time>2008-09-07T12:13:52Z</time>
      </trkpt>
      <trkpt lat="43.18634" lon="2.41692">
        <ele>148.818939</ele>
        <time>2008-09-07T12:14:15Z</time>
      </trkpt>
      <trkpt lat="43.18638" lon="2.41633">
        <ele>151.617981</ele>
        <time>2008-09-07T12:14:29Z</time>
      </trkpt>
      <trkpt lat="43.18641" lon="2.41565">
        <ele>153.859314</ele>
        <time>2008-09-07T12:14:42Z</time>
      </trkpt>
      <trkpt lat="43.1865" lon="2.41512">
        <ele>154.93959</ele>
        <time>2008-09-07T12:14:53Z</time>
      </trkpt>
      <trkpt lat="43.1868" lon="2.41474">
        <ele>157.011322</ele>
        <time>2008-09-07T12:15:08Z</time>
      </trkpt>
      <trkpt lat="43.18696" lon="2.41458">
        <ele>158.583115</ele>
        <time>2008-09-07T12:15:17Z</time>
      </trkpt>
      <trkpt lat="43.18712" lon="2.41443">
        <ele>160.67128</ele>
        <time>2008-09-07T12:15:30Z</time>
      </trkpt>
      <trkpt lat="43.18733" lon="2.41431">
        <ele>161.964066</ele>
        <time>2008-09-07T12:15:43Z</time>
      </trkpt>
      <trkpt lat="43.18749" lon="2.41425">
        <ele>162.397919</ele>
        <time>2008-09-07T12:15:52Z</time>
      </trkpt>
      <trkpt lat="43.18772" lon="2.41455">
        <ele>162.756882</ele>
        <time>2008-09-07T12:16:04Z</time>
      </trkpt>
      <trkpt lat="43.18857" lon="2.41553">
        <ele>156.420685</ele>
        <time>2008-09-07T12:16:19Z</time>
      </trkpt>
      <trkpt lat="43.18898" lon="2.41576">
        <ele>152.445343</ele>
        <time>2008-09-07T12:16:24Z</time>
      </trkpt>
      <trkpt lat="43.18974" lon="2.41587">
        <ele>151.410706</ele>
        <time>2008-09-07T12:16:32Z</time>
      </trkpt>
      <trkpt lat="43.19008" lon="2.41597">
        <ele>152.690445</ele>
        <time>2008-09-07T12:16:38Z</time>
      </trkpt>
      <trkpt lat="43.19024" lon="2.41628">
        <ele>152.751556</ele>
        <time>2008-09-07T12:16:43Z</time>
      </trkpt>
      <trkpt lat="43.19027" lon="2.41695">
        <ele>151.690002</ele>
        <time>2008-09-07T12:16:52Z</time>
      </trkpt>
      <trkpt lat="43.19025" lon="2.4188">
        <ele>149.354233</ele>
        <time>2008-09-07T12:17:21Z</time>
      </trkpt>
      <trkpt lat="43.19034" lon="2.41893">
        <ele>148.776993</ele>
        <time>2008-09-07T12:17:26Z</time>
      </trkpt>
      <trkpt lat="43.19044" lon="2.41885">
        <ele>148.97168</ele>
        <time>2008-09-07T12:17:29Z</time>
      </trkpt>
      <trkpt lat="43.19087" lon="2.41858">
        <ele>150.301254</ele>
        <time>2008-09-07T12:17:39Z</time>
      </trkpt>
      <trkpt lat="43.1913" lon="2.41835">
        <ele>151.498444</ele>
        <time>2008-09-07T12:17:52Z</time>
      </trkpt>
      <trkpt lat="43.1915" lon="2.41783">
        <ele>155.137497</ele>
        <time>2008-09-07T12:18:07Z</time>
      </trkpt>
      <trkpt lat="43.19171" lon="2.41739">
        <ele>158.151932</ele>
        <time>2008-09-07T12:18:21Z</time>
      </trkpt>
      <trkpt lat="43.19208" lon="2.41707">
        <ele>159.589081</ele>
        <time>2008-09-07T12:18:34Z</time>
      </trkpt>
      <trkpt lat="43.19251" lon="2.41665">
        <ele>158.902756</ele>
        <time>2008-09-07T12:18:49Z</time>
      </trkpt>
      <trkpt lat="43.19289" lon="2.41621">
        <ele>158.750168</ele>
        <time>2008-09-07T12:19:04Z</time>
      </trkpt>
      <trkpt lat="43.19301" lon="2.41605">
        <ele>159.104568</ele>
        <time>2008-09-07T12:19:09Z</time>
      </trkpt>
      <trkpt lat="43.19293" lon="2.41583">
        <ele>159.59285</ele>
        <time>2008-09-07T12:19:17Z</time>
      </trkpt>
      <trkpt lat="43.19268" lon="2.41542">
        <ele>160.350006</ele>
        <time>2008-09-07T12:19:32Z</time>
      </trkpt>
      <trkpt lat="43.1924" lon="2.41489">
        <ele>160.466248</ele>
        <time>2008-09-07T12:19:50Z</time>
      </trkpt>
      <trkpt lat="43.19249" lon="2.41447">
        <ele>162.727493</ele>
        <time>2008-09-07T12:20:03Z</time>
      </trkpt>
      <trkpt lat="43.19263" lon="2.41397">
        <ele>164.94104</ele>
        <time>2008-09-07T12:20:21Z</time>
      </trkpt>
      <trkpt lat="43.19278" lon="2.41345">
        <ele>167.456863</ele>
        <time>2008-09-07T12:20:38Z</time>
      </trkpt>
      <trkpt lat="43.19307" lon="2.41243">
        <ele>173.770004</ele>
        <time>2008-09-07T12:21:12Z</time>
      </trkpt>
      <trkpt lat="43.19322" lon="2.41192">
        <ele>176.329971</ele>
        <time>2008-09-07T12:21:28Z</time>
      </trkpt>
      <trkpt lat="43.19339" lon="2.41128">
        <ele>178.442505</ele>
        <time>2008-09-07T12:21:47Z</time>
      </trkpt>
      <trkpt lat="43.19353" lon="2.41075">
        <ele>178.684464</ele>
        <time>2008-09-07T12:21:59Z</time>
      </trkpt>
      <trkpt lat="43.19372" lon="2.41006">
        <ele>177.031723</ele>
        <time>2008-09-07T12:22:12Z</time>
      </trkpt>
      <trkpt lat="43.1939" lon="2.40931">
        <ele>179.341248</ele>
        <time>2008-09-07T12:22:26Z</time>
      </trkpt>
      <trkpt lat="43.19405" lon="2.40861">
        <ele>181.804535</ele>
        <time>2008-09-07T12:22:41Z</time>
      </trkpt>
      <trkpt lat="43.1942" lon="2.40794">
        <ele>182.120667</ele>
        <time>2008-09-07T12:22:58Z</time>
      </trkpt>
      <trkpt lat="43.19424" lon="2.40757">
        <ele>181.672119</ele>
        <time>2008-09-07T12:23:07Z</time>
      </trkpt>
      <trkpt lat="43.19446" lon="2.4073">
        <ele>180.534576</ele>
        <time>2008-09-07T12:23:13Z</time>
      </trkpt>
      <trkpt lat="43.19462" lon="2.40705">
        <ele>179.937653</ele>
        <time>2008-09-07T12:23:17Z</time>
      </trkpt>
      <trkpt lat="43.1947" lon="2.40668">
        <ele>178.209198</ele>
        <time>2008-09-07T12:23:21Z</time>
      </trkpt>
      <trkpt lat="43.19494" lon="2.40594">
        <ele>175.934509</ele>
        <time>2008-09-07T12:23:29Z</time>
      </trkpt>
      <trkpt lat="43.19527" lon="2.40561">
        <ele>173.271622</ele>
        <time>2008-09-07T12:23:35Z</time>
      </trkpt>
      <trkpt lat="43.19567" lon="2.40533">
        <ele>170.10173</ele>
        <time>2008-09-07T12:23:42Z</time>
      </trkpt>
      <trkpt lat="43.19575" lon="2.40536">
        <ele>170.186157</ele>
        <time>2008-09-07T12:23:47Z</time>
      </trkpt>
      <trkpt lat="43.19572" lon="2.40534">
        <ele>170.063995</ele>
        <time>2008-09-07T12:23:52Z</time>
      </trkpt>
      <trkpt lat="43.19552" lon="2.40555">
        <ele>172.48053</ele>
        <time>2008-09-07T12:24:05Z</time>
      </trkpt>
      <trkpt lat="43.19529" lon="2.40575">
        <ele>174.347504</ele>
        <time>2008-09-07T12:24:19Z</time>
      </trkpt>
      <trkpt lat="43.19512" lon="2.40599">
        <ele>176.146698</ele>
        <time>2008-09-07T12:24:30Z</time>
      </trkpt>
      <trkpt lat="43.19509" lon="2.40599">
        <ele>176.142975</ele>
        <time>2008-09-07T12:24:43Z</time>
      </trkpt>
      <trkpt lat="43.19498" lon="2.40626">
        <ele>177.006531</ele>
        <time>2008-09-07T12:24:52Z</time>
      </trkpt>
      <trkpt lat="43.19507" lon="2.40677">
        <ele>180.256729</ele>
        <time>2008-09-07T12:25:06Z</time>
      </trkpt>
      <trkpt lat="43.19523" lon="2.40688">
        <ele>182.759155</ele>
        <time>2008-09-07T12:25:16Z</time>
      </trkpt>
      <trkpt lat="43.19537" lon="2.4068">
        <ele>183.607635</ele>
        <time>2008-09-07T12:25:29Z</time>
      </trkpt>
      <trkpt lat="43.19547" lon="2.40682">
        <ele>184.869812</ele>
        <time>2008-09-07T12:25:36Z</time>
      </trkpt>
      <trkpt lat="43.19551" lon="2.40688">
        <ele>185.872269</ele>
        <time>2008-09-07T12:25:42Z</time>
      </trkpt>
      <trkpt lat="43.19562" lon="2.40686">
        <ele>187.096954</ele>
        <time>2008-09-07T12:25:50Z</time>
      </trkpt>
      <trkpt lat="43.19566" lon="2.40697">
        <ele>188.627762</ele>
        <time>2008-09-07T12:25:59Z</time>
      </trkpt>
      <trkpt lat="43.19584" lon="2.40702">
        <ele>191.134964</ele>
        <time>2008-09-07T12:26:08Z</time>
      </trkpt>
      <trkpt lat="43.19591" lon="2.40717">
        <ele>193.478516</ele>
        <time>2008-09-07T12:26:19Z</time>
      </trkpt>
      <trkpt lat="43.19594" lon="2.4074">
        <ele>195.050003</ele>
        <time>2008-09-07T12:26:29Z</time>
      </trkpt>
      <trkpt lat="43.19591" lon="2.40763">
        <ele>195.856247</ele>
        <time>2008-09-07T12:26:40Z</time>
      </trkpt>
      <trkpt lat="43.196" lon="2.40787">
        <ele>197.295547</ele>
        <time>2008-09-07T12:26:50Z</time>
      </trkpt>
      <trkpt lat="43.19627" lon="2.40793">
        <ele>198.981247</ele>
        <time>2008-09-07T12:27:02Z</time>
      </trkpt>
      <trkpt lat="43.19641" lon="2.40773">
        <ele>199.854797</ele>
        <time>2008-09-07T12:27:12Z</time>
      </trkpt>
      <trkpt lat="43.19647" lon="2.40766">
        <ele>199.838364</ele>
        <time>2008-09-07T12:27:17Z</time>
      </trkpt>
      <trkpt lat="43.19663" lon="2.40752">
        <ele>200.337631</ele>
        <time>2008-09-07T12:27:31Z</time>
      </trkpt>
      <trkpt lat="43.19675" lon="2.40746">
        <ele>200.398499</ele>
        <time>2008-09-07T12:27:41Z</time>
      </trkpt>
      <trkpt lat="43.1969" lon="2.40738">
        <ele>200.585678</ele>
        <time>2008-09-07T12:27:50Z</time>
      </trkpt>
      <trkpt lat="43.19731" lon="2.40724">
        <ele>200.637238</ele>
        <time>2008-09-07T12:28:11Z</time>
      </trkpt>
      <trkpt lat="43.19746" lon="2.40702">
        <ele>200.692001</ele>
        <time>2008-09-07T12:28:21Z</time>
      </trkpt>
      <trkpt lat="43.19768" lon="2.40667">
        <ele>201.622925</ele>
        <time>2008-09-07T12:28:30Z</time>
      </trkpt>
      <trkpt lat="43.19788" lon="2.40654">
        <ele>201.614182</ele>
        <time>2008-09-07T12:28:40Z</time>
      </trkpt>
      <trkpt lat="43.19802" lon="2.40655">
        <ele>201.775452</ele>
        <time>2008-09-07T12:28:47Z</time>
      </trkpt>
      <trkpt lat="43.19816" lon="2.40654">
        <ele>202.091782</ele>
        <time>2008-09-07T12:28:56Z</time>
      </trkpt>
      <trkpt lat="43.19848" lon="2.40647">
        <ele>202.514847</ele>
        <time>2008-09-07T12:29:05Z</time>
      </trkpt>
      <trkpt lat="43.19878" lon="2.40619">
        <ele>202.49173</ele>
        <time>2008-09-07T12:29:14Z</time>
      </trkpt>
      <trkpt lat="43.19893" lon="2.40615">
        <ele>202.880081</ele>
        <time>2008-09-07T12:29:21Z</time>
      </trkpt>
      <trkpt lat="43.19924" lon="2.40577">
        <ele>201.154114</ele>
        <time>2008-09-07T12:29:30Z</time>
      </trkpt>
      <trkpt lat="43.19958" lon="2.4055">
        <ele>201.474503</ele>
        <time>2008-09-07T12:29:36Z</time>
      </trkpt>
      <trkpt lat="43.19986" lon="2.40535">
        <ele>202.996155</ele>
        <time>2008-09-07T12:29:42Z</time>
      </trkpt>
      <trkpt lat="43.20002" lon="2.40539">
        <ele>202.815933</ele>
        <time>2008-09-07T12:29:50Z</time>
      </trkpt>
      <trkpt lat="43.20008" lon="2.40509">
        <ele>203.176819</ele>
        <time>2008-09-07T12:30:00Z</time>
      </trkpt>
      <trkpt lat="43.20013" lon="2.40476">
        <ele>203.834198</ele>
        <time>2008-09-07T12:30:10Z</time>
      </trkpt>
      <trkpt lat="43.20027" lon="2.40446">
        <ele>203.474899</ele>
        <time>2008-09-07T12:30:16Z</time>
      </trkpt>
      <trkpt lat="43.20045" lon="2.40428">
        <ele>201.464798</ele>
        <time>2008-09-07T12:30:23Z</time>
      </trkpt>
      <trkpt lat="43.20065" lon="2.40401">
        <ele>197.998032</ele>
        <time>2008-09-07T12:30:32Z</time>
      </trkpt>
      <trkpt lat="43.20075" lon="2.40406">
        <ele>197.694992</ele>
        <time>2008-09-07T12:30:37Z</time>
      </trkpt>
      <trkpt lat="43.20081" lon="2.40395">
        <ele>194.52005</ele>
        <time>2008-09-07T12:30:45Z</time>
      </trkpt>
      <trkpt lat="43.20073" lon="2.40381">
        <ele>193.447372</ele>
        <time>2008-09-07T12:30:49Z</time>
      </trkpt>
      <trkpt lat="43.20075" lon="2.40358">
        <ele>188.734009</ele>
        <time>2008-09-07T12:30:56Z</time>
      </trkpt>
      <trkpt lat="43.20051" lon="2.40346">
        <ele>186.610077</ele>
        <time>2008-09-07T12:31:05Z</time>
      </trkpt>
      <trkpt lat="43.20042" lon="2.40319">
        <ele>179.845245</ele>
        <time>2008-09-07T12:31:13Z</time>
      </trkpt>
      <trkpt lat="43.20039" lon="2.40286">
        <ele>171.763977</ele>
        <time>2008-09-07T12:31:20Z</time>
      </trkpt>
      <trkpt lat="43.20046" lon="2.40254">
        <ele>165.99968</ele>
        <time>2008-09-07T12:31:28Z</time>
      </trkpt>
      <trkpt lat="43.20055" lon="2.40225">
        <ele>160.332703</ele>
        <time>2008-09-07T12:31:35Z</time>
      </trkpt>
      <trkpt lat="43.2006" lon="2.40198">
        <ele>154.263275</ele>
        <time>2008-09-07T12:31:40Z</time>
      </trkpt>
      <trkpt lat="43.20067" lon="2.40171">
        <ele>146.394394</ele>
        <time>2008-09-07T12:31:45Z</time>
      </trkpt>
      <trkpt lat="43.20074" lon="2.40144">
        <ele>141.612503</ele>
        <time>2008-09-07T12:31:50Z</time>
      </trkpt>
      <trkpt lat="43.20081" lon="2.40114">
        <ele>137.960007</ele>
        <time>2008-09-07T12:31:54Z</time>
      </trkpt>
      <trkpt lat="43.20091" lon="2.40085">
        <ele>133.709885</ele>
        <time>2008-09-07T12:31:58Z</time>
      </trkpt>
      <trkpt lat="43.20085" lon="2.40032">
        <ele>131.566925</ele>
        <time>2008-09-07T12:32:18Z</time>
      </trkpt>
      <trkpt lat="43.20078" lon="2.40012">
        <ele>131.049927</ele>
        <time>2008-09-07T12:32:22Z</time>
      </trkpt>
      <trkpt lat="43.20056" lon="2.39992">
        <ele>131.131073</ele>
        <time>2008-09-07T12:32:29Z</time>
      </trkpt>
      <trkpt lat="43.2007" lon="2.39954">
        <ele>130.855392</ele>
        <time>2008-09-07T12:32:39Z</time>
      </trkpt>
      <trkpt lat="43.20078" lon="2.39924">
        <ele>132.831894</ele>
        <time>2008-09-07T12:32:49Z</time>
      </trkpt>
      <trkpt lat="43.2009" lon="2.39891">
        <ele>136.403122</ele>
        <time>2008-09-07T12:33:05Z</time>
      </trkpt>
      <trkpt lat="43.20105" lon="2.39854">
        <ele>138.545563</ele>
        <time>2008-09-07T12:33:20Z</time>
      </trkpt>
      <trkpt lat="43.20124" lon="2.39797">
        <ele>141.100403</ele>
        <time>2008-09-07T12:33:37Z</time>
      </trkpt>
      <trkpt lat="43.20145" lon="2.39746">
        <ele>143.887222</ele>
        <time>2008-09-07T12:33:53Z</time>
      </trkpt>
      <trkpt lat="43.20162" lon="2.3969">
        <ele>147.201126</ele>
        <time>2008-09-07T12:34:09Z</time>
      </trkpt>
      <trkpt lat="43.20175" lon="2.39626">
        <ele>149.486313</ele>
        <time>2008-09-07T12:34:27Z</time>
      </trkpt>
      <trkpt lat="43.20186" lon="2.39595">
        <ele>150.732498</ele>
        <time>2008-09-07T12:34:40Z</time>
      </trkpt>
      <trkpt lat="43.20189" lon="2.39559">
        <ele>152.067505</ele>
        <time>2008-09-07T12:34:54Z</time>
      </trkpt>
      <trkpt lat="43.202" lon="2.39485">
        <ele>152.88797</ele>
        <time>2008-09-07T12:35:23Z</time>
      </trkpt>
      <trkpt lat="43.20192" lon="2.39418">
        <ele>153.2668</ele>
        <time>2008-09-07T12:35:39Z</time>
      </trkpt>
      <trkpt lat="43.20186" lon="2.39395">
        <ele>153.828705</ele>
        <time>2008-09-07T12:35:48Z</time>
      </trkpt>
      <trkpt lat="43.20157" lon="2.39416">
        <ele>153.487274</ele>
        <time>2008-09-07T12:36:00Z</time>
      </trkpt>
      <trkpt lat="43.20109" lon="2.39454">
        <ele>152.482941</ele>
        <time>2008-09-07T12:36:14Z</time>
      </trkpt>
      <trkpt lat="43.20076" lon="2.39466">
        <ele>153.096252</ele>
        <time>2008-09-07T12:36:25Z</time>
      </trkpt>
      <trkpt lat="43.20041" lon="2.39458">
        <ele>154.612045</ele>
        <time>2008-09-07T12:36:37Z</time>
      </trkpt>
      <trkpt lat="43.2002" lon="2.39446">
        <ele>155.880005</ele>
        <time>2008-09-07T12:36:45Z</time>
      </trkpt>
      <trkpt lat="43.1998" lon="2.39469">
        <ele>157.787506</ele>
        <time>2008-09-07T12:37:01Z</time>
      </trkpt>
      <trkpt lat="43.1994" lon="2.39494">
        <ele>159.625</ele>
        <time>2008-09-07T12:37:18Z</time>
      </trkpt>
      <trkpt lat="43.19907" lon="2.39521">
        <ele>160.964996</ele>
        <time>2008-09-07T12:37:33Z</time>
      </trkpt>
      <trkpt lat="43.19865" lon="2.39543">
        <ele>162.557755</ele>
        <time>2008-09-07T12:37:49Z</time>
      </trkpt>
      <trkpt lat="43.1981" lon="2.39575">
        <ele>163.473755</ele>
        <time>2008-09-07T12:38:07Z</time>
      </trkpt>
      <trkpt lat="43.19765" lon="2.39597">
        <ele>163.857773</ele>
        <time>2008-09-07T12:38:21Z</time>
      </trkpt>
      <trkpt lat="43.19751" lon="2.39561">
        <ele>166.764099</ele>
        <time>2008-09-07T12:38:33Z</time>
      </trkpt>
      <trkpt lat="43.19736" lon="2.39515">
        <ele>170.764999</ele>
        <time>2008-09-07T12:38:53Z</time>
      </trkpt>
      <trkpt lat="43.19723" lon="2.39497">
        <ele>172.865005</ele>
        <time>2008-09-07T12:39:06Z</time>
      </trkpt>
      <trkpt lat="43.19698" lon="2.39482">
        <ele>176.582596</ele>
        <time>2008-09-07T12:39:25Z</time>
      </trkpt>
      <trkpt lat="43.19679" lon="2.39468">
        <ele>180.335602</ele>
        <time>2008-09-07T12:39:41Z</time>
      </trkpt>
      <trkpt lat="43.19637" lon="2.39444">
        <ele>187.848755</ele>
        <time>2008-09-07T12:40:14Z</time>
      </trkpt>
      <trkpt lat="43.19636" lon="2.39419">
        <ele>190.266251</ele>
        <time>2008-09-07T12:40:28Z</time>
      </trkpt>
      <trkpt lat="43.19638" lon="2.39403">
        <ele>191.876251</ele>
        <time>2008-09-07T12:40:36Z</time>
      </trkpt>
      <trkpt lat="43.19648" lon="2.39383">
        <ele>192.817505</ele>
        <time>2008-09-07T12:40:49Z</time>
      </trkpt>
      <trkpt lat="43.19663" lon="2.39356">
        <ele>194.145294</ele>
        <time>2008-09-07T12:41:04Z</time>
      </trkpt>
      <trkpt lat="43.19667" lon="2.39333">
        <ele>196.593796</ele>
        <time>2008-09-07T12:41:18Z</time>
      </trkpt>
      <trkpt lat="43.19669" lon="2.39311">
        <ele>199.178131</ele>
        <time>2008-09-07T12:41:34Z</time>
      </trkpt>
      <trkpt lat="43.19668" lon="2.39277">
        <ele>204.281555</ele>
        <time>2008-09-07T12:42:00Z</time>
      </trkpt>
      <trkpt lat="43.19666" lon="2.39259">
        <ele>207.117966</ele>
        <time>2008-09-07T12:42:13Z</time>
      </trkpt>
      <trkpt lat="43.19664" lon="2.39238">
        <ele>210.788223</ele>
        <time>2008-09-07T12:42:26Z</time>
      </trkpt>
      <trkpt lat="43.19665" lon="2.39214">
        <ele>213.486572</ele>
        <time>2008-09-07T12:42:40Z</time>
      </trkpt>
      <trkpt lat="43.19664" lon="2.39194">
        <ele>216.554596</ele>
        <time>2008-09-07T12:42:54Z</time>
      </trkpt>
      <trkpt lat="43.19665" lon="2.39176">
        <ele>218.695206</ele>
        <time>2008-09-07T12:43:04Z</time>
      </trkpt>
      <trkpt lat="43.19675" lon="2.39147">
        <ele>220.483246</ele>
        <time>2008-09-07T12:43:21Z</time>
      </trkpt>
      <trkpt lat="43.19679" lon="2.3912">
        <ele>223.072861</ele>
        <time>2008-09-07T12:43:29Z</time>
      </trkpt>
      <trkpt lat="43.19681" lon="2.39096">
        <ele>226.138672</ele>
        <time>2008-09-07T12:43:37Z</time>
      </trkpt>
      <trkpt lat="43.19689" lon="2.3907">
        <ele>228.134369</ele>
        <time>2008-09-07T12:43:47Z</time>
      </trkpt>
      <trkpt lat="43.19698" lon="2.39051">
        <ele>228.786621</ele>
        <time>2008-09-07T12:43:59Z</time>
      </trkpt>
      <trkpt lat="43.19702" lon="2.39039">
        <ele>229.757599</ele>
        <time>2008-09-07T12:44:10Z</time>
      </trkpt>
      <trkpt lat="43.19694" lon="2.39039">
        <ele>231.548737</ele>
        <time>2008-09-07T12:44:18Z</time>
      </trkpt>
      <trkpt lat="43.19676" lon="2.3905">
        <ele>234.044327</ele>
        <time>2008-09-07T12:44:33Z</time>
      </trkpt>
      <trkpt lat="43.19674" lon="2.39055">
        <ele>233.878296</ele>
        <time>2008-09-07T12:44:37Z</time>
      </trkpt>
      <trkpt lat="43.19648" lon="2.39097">
        <ele>234.645386</ele>
        <time>2008-09-07T12:45:04Z</time>
      </trkpt>
      <trkpt lat="43.19638" lon="2.39131">
        <ele>233.694748</ele>
        <time>2008-09-07T12:45:13Z</time>
      </trkpt>
      <trkpt lat="43.19635" lon="2.39161">
        <ele>229.865036</ele>
        <time>2008-09-07T12:45:19Z</time>
      </trkpt>
      <trkpt lat="43.19622" lon="2.39189">
        <ele>229.126892</ele>
        <time>2008-09-07T12:45:27Z</time>
      </trkpt>
      <trkpt lat="43.196" lon="2.39201">
        <ele>227.600616</ele>
        <time>2008-09-07T12:45:34Z</time>
      </trkpt>
      <trkpt lat="43.1959" lon="2.39183">
        <ele>229.444</ele>
        <time>2008-09-07T12:45:42Z</time>
      </trkpt>
      <trkpt lat="43.19589" lon="2.39148">
        <ele>233.438797</ele>
        <time>2008-09-07T12:45:56Z</time>
      </trkpt>
      <trkpt lat="43.19591" lon="2.39123">
        <ele>236.496628</ele>
        <time>2008-09-07T12:46:07Z</time>
      </trkpt>
      <trkpt lat="43.19598" lon="2.39093">
        <ele>239.006241</ele>
        <time>2008-09-07T12:46:22Z</time>
      </trkpt>
      <trkpt lat="43.19603" lon="2.39066">
        <ele>241.171524</ele>
        <time>2008-09-07T12:46:37Z</time>
      </trkpt>
      <trkpt lat="43.19608" lon="2.39041">
        <ele>243.263275</ele>
        <time>2008-09-07T12:46:50Z</time>
      </trkpt>
      <trkpt lat="43.19611" lon="2.39008">
        <ele>245.593277</ele>
        <time>2008-09-07T12:47:04Z</time>
      </trkpt>
      <trkpt lat="43.19618" lon="2.38972">
        <ele>247.770554</ele>
        <time>2008-09-07T12:47:20Z</time>
      </trkpt>
      <trkpt lat="43.19629" lon="2.38938">
        <ele>248.672867</ele>
        <time>2008-09-07T12:47:33Z</time>
      </trkpt>
      <trkpt lat="43.1965" lon="2.38907">
        <ele>248.320862</ele>
        <time>2008-09-07T12:47:43Z</time>
      </trkpt>
      <trkpt lat="43.1967" lon="2.38877">
        <ele>249.522491</ele>
        <time>2008-09-07T12:47:53Z</time>
      </trkpt>
      <trkpt lat="43.19681" lon="2.38843">
        <ele>246.897995</ele>
        <time>2008-09-07T12:47:59Z</time>
      </trkpt>
      <trkpt lat="43.19704" lon="2.38747">
        <ele>243.25322</ele>
        <time>2008-09-07T12:48:11Z</time>
      </trkpt>
      <trkpt lat="43.19723" lon="2.38721">
        <ele>240.846024</ele>
        <time>2008-09-07T12:48:18Z</time>
      </trkpt>
      <trkpt lat="43.19728" lon="2.38667">
        <ele>239.052414</ele>
        <time>2008-09-07T12:48:28Z</time>
      </trkpt>
      <trkpt lat="43.1972" lon="2.38636">
        <ele>240.138474</ele>
        <time>2008-09-07T12:48:34Z</time>
      </trkpt>
      <trkpt lat="43.19704" lon="2.38598">
        <ele>244.319107</ele>
        <time>2008-09-07T12:48:43Z</time>
      </trkpt>
      <trkpt lat="43.19708" lon="2.38581">
        <ele>244.742996</ele>
        <time>2008-09-07T12:48:48Z</time>
      </trkpt>
      <trkpt lat="43.1972" lon="2.38547">
        <ele>243.731598</ele>
        <time>2008-09-07T12:48:57Z</time>
      </trkpt>
      <trkpt lat="43.19734" lon="2.3851">
        <ele>241.213852</ele>
        <time>2008-09-07T12:49:05Z</time>
      </trkpt>
      <trkpt lat="43.19753" lon="2.38448">
        <ele>236.570419</ele>
        <time>2008-09-07T12:49:13Z</time>
      </trkpt>
      <trkpt lat="43.1975" lon="2.38414">
        <ele>235.164032</ele>
        <time>2008-09-07T12:49:19Z</time>
      </trkpt>
      <trkpt lat="43.19722" lon="2.38385">
        <ele>238.874649</ele>
        <time>2008-09-07T12:49:26Z</time>
      </trkpt>
      <trkpt lat="43.19687" lon="2.38363">
        <ele>237.169144</ele>
        <time>2008-09-07T12:49:37Z</time>
      </trkpt>
      <trkpt lat="43.19667" lon="2.38368">
        <ele>235.665619</ele>
        <time>2008-09-07T12:49:43Z</time>
      </trkpt>
      <trkpt lat="43.19661" lon="2.38411">
        <ele>237.870621</ele>
        <time>2008-09-07T12:49:50Z</time>
      </trkpt>
      <trkpt lat="43.19658" lon="2.38458">
        <ele>239.946152</ele>
        <time>2008-09-07T12:50:00Z</time>
      </trkpt>
      <trkpt lat="43.19635" lon="2.38468">
        <ele>238.090759</ele>
        <time>2008-09-07T12:50:06Z</time>
      </trkpt>
      <trkpt lat="43.19597" lon="2.3846">
        <ele>238.21228</ele>
        <time>2008-09-07T12:50:15Z</time>
      </trkpt>
      <trkpt lat="43.1957" lon="2.38464">
        <ele>239.41925</ele>
        <time>2008-09-07T12:50:26Z</time>
      </trkpt>
      <trkpt lat="43.1949" lon="2.3849">
        <ele>238.76001</ele>
        <time>2008-09-07T12:50:51Z</time>
      </trkpt>
      <trkpt lat="43.19469" lon="2.38541">
        <ele>238.678101</ele>
        <time>2008-09-07T12:51:03Z</time>
      </trkpt>
      <trkpt lat="43.19454" lon="2.38564">
        <ele>238.760513</ele>
        <time>2008-09-07T12:51:09Z</time>
      </trkpt>
      <trkpt lat="43.19436" lon="2.38628">
        <ele>239.263077</ele>
        <time>2008-09-07T12:51:25Z</time>
      </trkpt>
      <trkpt lat="43.19419" lon="2.38647">
        <ele>240.436005</ele>
        <time>2008-09-07T12:51:34Z</time>
      </trkpt>
      <trkpt lat="43.19377" lon="2.38624">
        <ele>240.938858</ele>
        <time>2008-09-07T12:51:48Z</time>
      </trkpt>
      <trkpt lat="43.19313" lon="2.38604">
        <ele>241</ele>
        <time>2008-09-07T12:52:12Z</time>
      </trkpt>
      <trkpt lat="43.19288" lon="2.38604">
        <ele>241.18544</ele>
        <time>2008-09-07T12:52:27Z</time>
      </trkpt>
      <trkpt lat="43.19271" lon="2.38606">
        <ele>241.334152</ele>
        <time>2008-09-07T12:52:37Z</time>
      </trkpt>
      <trkpt lat="43.19257" lon="2.38596">
        <ele>241.702499</ele>
        <time>2008-09-07T12:52:45Z</time>
      </trkpt>
      <trkpt lat="43.19233" lon="2.38567">
        <ele>242.685669</ele>
        <time>2008-09-07T12:53:00Z</time>
      </trkpt>
      <trkpt lat="43.19208" lon="2.38534">
        <ele>243.131668</ele>
        <time>2008-09-07T12:53:16Z</time>
      </trkpt>
      <trkpt lat="43.19202" lon="2.38509">
        <ele>243.339401</ele>
        <time>2008-09-07T12:53:26Z</time>
      </trkpt>
      <trkpt lat="43.19189" lon="2.38473">
        <ele>243.280579</ele>
        <time>2008-09-07T12:53:32Z</time>
      </trkpt>
      <trkpt lat="43.19179" lon="2.3843">
        <ele>242.276917</ele>
        <time>2008-09-07T12:53:38Z</time>
      </trkpt>
      <trkpt lat="43.19174" lon="2.38398">
        <ele>240.714279</ele>
        <time>2008-09-07T12:53:42Z</time>
      </trkpt>
      <trkpt lat="43.19175" lon="2.38363">
        <ele>239.380402</ele>
        <time>2008-09-07T12:53:46Z</time>
      </trkpt>
      <trkpt lat="43.19167" lon="2.38326">
        <ele>236.920151</ele>
        <time>2008-09-07T12:53:50Z</time>
      </trkpt>
      <trkpt lat="43.19157" lon="2.38266">
        <ele>232.600967</ele>
        <time>2008-09-07T12:53:56Z</time>
      </trkpt>
      <trkpt lat="43.19145" lon="2.38217">
        <ele>229.061783</ele>
        <time>2008-09-07T12:54:01Z</time>
      </trkpt>
      <trkpt lat="43.19143" lon="2.38154">
        <ele>225.509354</ele>
        <time>2008-09-07T12:54:07Z</time>
      </trkpt>
      <trkpt lat="43.19137" lon="2.38076">
        <ele>220.049164</ele>
        <time>2008-09-07T12:54:14Z</time>
      </trkpt>
      <trkpt lat="43.19138" lon="2.38001">
        <ele>214.35585</ele>
        <time>2008-09-07T12:54:21Z</time>
      </trkpt>
      <trkpt lat="43.1914" lon="2.37948">
        <ele>210.742493</ele>
        <time>2008-09-07T12:54:27Z</time>
      </trkpt>
      <trkpt lat="43.1915" lon="2.37903">
        <ele>208.027496</ele>
        <time>2008-09-07T12:54:33Z</time>
      </trkpt>
      <trkpt lat="43.19155" lon="2.37892">
        <ele>207.488754</ele>
        <time>2008-09-07T12:54:39Z</time>
      </trkpt>
      <trkpt lat="43.19128" lon="2.3788">
        <ele>206.335007</ele>
        <time>2008-09-07T12:54:47Z</time>
      </trkpt>
      <trkpt lat="43.19093" lon="2.37842">
        <ele>202.887497</ele>
        <time>2008-09-07T12:54:58Z</time>
      </trkpt>
      <trkpt lat="43.19059" lon="2.37787">
        <ele>201.786377</ele>
        <time>2008-09-07T12:55:09Z</time>
      </trkpt>
      <trkpt lat="43.19075" lon="2.37763">
        <ele>202.610001</ele>
        <time>2008-09-07T12:55:13Z</time>
      </trkpt>
      <trkpt lat="43.19092" lon="2.37682">
        <ele>201.534653</ele>
        <time>2008-09-07T12:55:22Z</time>
      </trkpt>
      <trkpt lat="43.19101" lon="2.37587">
        <ele>199.606583</ele>
        <time>2008-09-07T12:55:33Z</time>
      </trkpt>
      <trkpt lat="43.19078" lon="2.37562">
        <ele>200.179718</ele>
        <time>2008-09-07T12:55:45Z</time>
      </trkpt>
      <trkpt lat="43.19063" lon="2.37559">
        <ele>200.71785</ele>
        <time>2008-09-07T12:55:54Z</time>
      </trkpt>
      <trkpt lat="43.19055" lon="2.37543">
        <ele>200.803024</ele>
        <time>2008-09-07T12:56:03Z</time>
      </trkpt>
      <trkpt lat="43.19057" lon="2.37507">
        <ele>200.760498</ele>
        <time>2008-09-07T12:56:20Z</time>
      </trkpt>
      <trkpt lat="43.1905" lon="2.37482">
        <ele>201.26355</ele>
        <time>2008-09-07T12:56:33Z</time>
      </trkpt>
      <trkpt lat="43.19046" lon="2.37427">
        <ele>201.5439</ele>
        <time>2008-09-07T12:56:46Z</time>
      </trkpt>
      <trkpt lat="43.19042" lon="2.37397">
        <ele>201.680939</ele>
        <time>2008-09-07T12:56:51Z</time>
      </trkpt>
      <trkpt lat="43.19024" lon="2.3732">
        <ele>201.308746</ele>
        <time>2008-09-07T12:57:01Z</time>
      </trkpt>
      <trkpt lat="43.19008" lon="2.37281">
        <ele>201.399994</ele>
        <time>2008-09-07T12:57:07Z</time>
      </trkpt>
      <trkpt lat="43.19034" lon="2.37181">
        <ele>198.540817</ele>
        <time>2008-09-07T12:57:16Z</time>
      </trkpt>
      <trkpt lat="43.19031" lon="2.37141">
        <ele>196.883743</ele>
        <time>2008-09-07T12:57:21Z</time>
      </trkpt>
      <trkpt lat="43.19013" lon="2.37092">
        <ele>193.079147</ele>
        <time>2008-09-07T12:57:30Z</time>
      </trkpt>
      <trkpt lat="43.18971" lon="2.37064">
        <ele>189.168228</ele>
        <time>2008-09-07T12:57:36Z</time>
      </trkpt>
      <trkpt lat="43.1894" lon="2.3703">
        <ele>185.136505</ele>
        <time>2008-09-07T12:57:42Z</time>
      </trkpt>
      <trkpt lat="43.18918" lon="2.37003">
        <ele>182.932297</ele>
        <time>2008-09-07T12:57:47Z</time>
      </trkpt>
      <trkpt lat="43.18905" lon="2.36967">
        <ele>181.369995</ele>
        <time>2008-09-07T12:57:51Z</time>
      </trkpt>
      <trkpt lat="43.1889" lon="2.36958">
        <ele>179.102295</ele>
        <time>2008-09-07T12:57:56Z</time>
      </trkpt>
      <trkpt lat="43.18821" lon="2.37001">
        <ele>172.822632</ele>
        <time>2008-09-07T12:58:07Z</time>
      </trkpt>
      <trkpt lat="43.18805" lon="2.36992">
        <ele>170.557495</ele>
        <time>2008-09-07T12:58:12Z</time>
      </trkpt>
      <trkpt lat="43.18809" lon="2.36952">
        <ele>169.413712</ele>
        <time>2008-09-07T12:58:19Z</time>
      </trkpt>
      <trkpt lat="43.1881" lon="2.36952">
        <ele>169.466721</ele>
        <time>2008-09-07T12:58:24Z</time>
      </trkpt>
      <trkpt lat="43.18813" lon="2.36941">
        <ele>169.239212</ele>
        <time>2008-09-07T12:58:26Z</time>
      </trkpt>
      <trkpt lat="43.18823" lon="2.36867">
        <ele>164.463318</ele>
        <time>2008-09-07T12:58:34Z</time>
      </trkpt>
      <trkpt lat="43.18801" lon="2.36852">
        <ele>161.33284</ele>
        <time>2008-09-07T12:58:38Z</time>
      </trkpt>
      <trkpt lat="43.18707" lon="2.36795">
        <ele>154.34375</ele>
        <time>2008-09-07T12:58:54Z</time>
      </trkpt>
      <trkpt lat="43.18643" lon="2.36754">
        <ele>149.455002</ele>
        <time>2008-09-07T12:59:03Z</time>
      </trkpt>
      <trkpt lat="43.18601" lon="2.3672">
        <ele>146.372498</ele>
        <time>2008-09-07T12:59:09Z</time>
      </trkpt>
      <trkpt lat="43.18579" lon="2.36666">
        <ele>144.548752</ele>
        <time>2008-09-07T12:59:16Z</time>
      </trkpt>
      <trkpt lat="43.18535" lon="2.36641">
        <ele>141.619095</ele>
        <time>2008-09-07T12:59:23Z</time>
      </trkpt>
      <trkpt lat="43.18489" lon="2.36616">
        <ele>138.690002</ele>
        <time>2008-09-07T12:59:28Z</time>
      </trkpt>
      <trkpt lat="43.18426" lon="2.36569">
        <ele>136.632004</ele>
        <time>2008-09-07T12:59:36Z</time>
      </trkpt>
      <trkpt lat="43.18416" lon="2.36531">
        <ele>135.946259</ele>
        <time>2008-09-07T12:59:40Z</time>
      </trkpt>
      <trkpt lat="43.18388" lon="2.36502">
        <ele>135.330002</ele>
        <time>2008-09-07T12:59:46Z</time>
      </trkpt>
      <trkpt lat="43.18362" lon="2.36487">
        <ele>135.154785</ele>
        <time>2008-09-07T12:59:52Z</time>
      </trkpt>
      <trkpt lat="43.1836" lon="2.36392">
        <ele>134.599518</ele>
        <time>2008-09-07T13:00:07Z</time>
      </trkpt>
      <trkpt lat="43.18374" lon="2.36379">
        <ele>134.324997</ele>
        <time>2008-09-07T13:00:12Z</time>
      </trkpt>
      <trkpt lat="43.18387" lon="2.3634">
        <ele>133.853439</ele>
        <time>2008-09-07T13:00:19Z</time>
      </trkpt>
      <trkpt lat="43.18384" lon="2.3629">
        <ele>133.471252</ele>
        <time>2008-09-07T13:00:28Z</time>
      </trkpt>
      <trkpt lat="43.18372" lon="2.36265">
        <ele>133.327499</ele>
        <time>2008-09-07T13:00:37Z</time>
      </trkpt>
      <trkpt lat="43.18363" lon="2.3622">
        <ele>132.560333</ele>
        <time>2008-09-07T13:00:48Z</time>
      </trkpt>
      <trkpt lat="43.18355" lon="2.36194">
        <ele>132.155502</ele>
        <time>2008-09-07T13:00:58Z</time>
      </trkpt>
      <trkpt lat="43.18337" lon="2.36185">
        <ele>132.993958</ele>
        <time>2008-09-07T13:01:41Z</time>
      </trkpt>
    </trkseg>
  </trk>
</gpx>